Wetterdaten: Donnerstag, 20.06.2019
Datum Zeit Temp. A. Pool Temp. Temp. 5cm Feuchte A. Luftdruck Regen Wind Richtung Richtung Sonnenschein ET UV Solar Taupunkt Windchill Windben Empfang
20.06.2019 00:00 18,8 C 25,6 C 15,6 C 78 % 1008,8 hPa 0,0 l/m 0,6 km/h (0 Bft) O 96 0 min 0,000 mm 0,0 UV-I 0 W/m 14,9 C 18,8 C 1,6 km/h (1 Bft) 100,00 %
20.06.2019 00:02 18,8 C 25,6 C 16,1 C 78 % 1008,7 hPa 0,0 l/m 2,8 km/h (1 Bft) O 96 0 min 0,000 mm 0,0 UV-I 0 W/m 14,9 C 18,8 C 4,8 km/h (1 Bft) 94,59 %
20.06.2019 00:04 18,8 C 25,6 C 16,1 C 78 % 1008,7 hPa 0,0 l/m 2,5 km/h (1 Bft) O 96 0 min 0,000 mm 0,0 UV-I 0 W/m 14,9 C 18,8 C 3,2 km/h (1 Bft) 97,87 %
20.06.2019 00:06 18,7 C 25,6 C 16,1 C 78 % 1008,8 hPa 0,0 l/m 2,5 km/h (1 Bft) O 98 0 min 0,000 mm 0,0 UV-I 0 W/m 14,8 C 18,7 C 4,8 km/h (1 Bft) 96,23 %
20.06.2019 00:08 18,3 C 25,6 C 16,1 C 79 % 1008,8 hPa 0,0 l/m 2,6 km/h (1 Bft) O 98 0 min 0,000 mm 0,0 UV-I 0 W/m 14,6 C 18,3 C 3,2 km/h (1 Bft) 97,87 %
20.06.2019 00:10 18,1 C 25,6 C 16,1 C 79 % 1008,7 hPa 0,0 l/m 2,5 km/h (1 Bft) O 98 0 min 0,000 mm 0,0 UV-I 0 W/m 14,4 C 18,1 C 3,2 km/h (1 Bft) 96,00 %
20.06.2019 00:12 18,1 C 25,6 C 16,1 C 80 % 1008,8 hPa 0,0 l/m 3,8 km/h (1 Bft) SO 144 0 min 0,000 mm 0,0 UV-I 0 W/m 14,6 C 18,1 C 6,4 km/h (2 Bft) 94,74 %
20.06.2019 00:14 18,2 C 25,6 C 16,1 C 80 % 1008,8 hPa 0,0 l/m 2,4 km/h (1 Bft) SO 144 0 min 0,000 mm 0,0 UV-I 0 W/m 14,7 C 18,2 C 3,2 km/h (1 Bft) 96,43 %
20.06.2019 00:16 18,3 C 25,6 C 16,1 C 79 % 1008,8 hPa 0,0 l/m 2,5 km/h (1 Bft) SO 144 0 min 0,000 mm 0,0 UV-I 0 W/m 14,6 C 18,3 C 4,8 km/h (1 Bft) 95,12 %
20.06.2019 00:18 18,3 C 25,6 C 16,1 C 79 % 1008,8 hPa 0,0 l/m 3,5 km/h (1 Bft) SO 146 0 min 0,000 mm 0,0 UV-I 0 W/m 14,6 C 18,3 C 4,8 km/h (1 Bft) 96,00 %
20.06.2019 00:20 18,3 C 25,6 C 16,1 C 79 % 1008,8 hPa 0,0 l/m 4,0 km/h (1 Bft) S-SW 213 0 min 0,000 mm 0,0 UV-I 0 W/m 14,6 C 18,3 C 4,8 km/h (1 Bft) 93,62 %
20.06.2019 00:22 18,3 C 25,6 C 16,1 C 79 % 1008,8 hPa 0,0 l/m 4,8 km/h (1 Bft) SW 216 0 min 0,000 mm 0,0 UV-I 0 W/m 14,6 C 18,3 C 6,4 km/h (2 Bft) 94,44 %
20.06.2019 00:24 18,4 C 25,6 C 16,1 C 78 % 1008,8 hPa 0,0 l/m 6,6 km/h (2 Bft) SW 216 0 min 0,000 mm 0,0 UV-I 0 W/m 14,5 C 18,3 C 8,0 km/h (2 Bft) 94,55 %
20.06.2019 00:26 18,4 C 25,6 C 16,7 C 78 % 1008,8 hPa 0,0 l/m 3,9 km/h (1 Bft) SW 216 0 min 0,000 mm 0,0 UV-I 0 W/m 14,5 C 18,4 C 6,4 km/h (2 Bft) 94,87 %
20.06.2019 00:28 18,4 C 25,6 C 16,1 C 78 % 1008,8 hPa 0,0 l/m 2,9 km/h (1 Bft) SW 215 0 min 0,000 mm 0,0 UV-I 0 W/m 14,5 C 18,4 C 4,8 km/h (1 Bft) 96,43 %
20.06.2019 00:30 18,5 C 25,6 C 16,1 C 77 % 1008,8 hPa 0,0 l/m 2,2 km/h (1 Bft) SW 215 0 min 0,000 mm 0,0 UV-I 0 W/m 14,4 C 18,5 C 3,2 km/h (1 Bft) 98,00 %
20.06.2019 00:32 18,3 C 25,6 C 16,1 C 78 % 1008,8 hPa 0,0 l/m 1,8 km/h (1 Bft) SW 215 0 min 0,000 mm 0,0 UV-I 0 W/m 14,4 C 18,3 C 3,2 km/h (1 Bft) 97,37 %
20.06.2019 00:34 18,2 C 25,6 C 15,6 C 78 % 1008,8 hPa 0,0 l/m 1,9 km/h (1 Bft) SW 215 0 min 0,000 mm 0,0 UV-I 0 W/m 14,3 C 18,2 C 3,2 km/h (1 Bft) 97,87 %
20.06.2019 00:36 18,2 C 25,6 C 15,6 C 78 % 1008,9 hPa 0,0 l/m 1,7 km/h (1 Bft) SW 216 0 min 0,000 mm 0,0 UV-I 0 W/m 14,3 C 18,2 C 4,8 km/h (1 Bft) 95,74 %
20.06.2019 00:38 17,7 C 25,6 C 15,6 C 80 % 1008,9 hPa 0,0 l/m 2,8 km/h (1 Bft) SW 216 0 min 0,000 mm 0,0 UV-I 0 W/m 14,2 C 17,7 C 4,8 km/h (1 Bft) 98,00 %
20.06.2019 00:40 17,5 C 25,6 C 15,6 C 82 % 1008,9 hPa 0,0 l/m 0,2 km/h (0 Bft) SW 216 0 min 0,000 mm 0,0 UV-I 0 W/m 14,4 C 17,5 C 1,6 km/h (1 Bft) 94,34 %
20.06.2019 00:42 17,6 C 25,6 C 15,0 C 82 % 1008,9 hPa 0,0 l/m 1,9 km/h (1 Bft) SW 216 0 min 0,000 mm 0,0 UV-I 0 W/m 14,5 C 17,6 C 3,2 km/h (1 Bft) 97,14 %
20.06.2019 00:44 17,7 C 25,6 C 15,0 C 81 % 1008,9 hPa 0,0 l/m 1,9 km/h (1 Bft) SW 216 0 min 0,000 mm 0,0 UV-I 0 W/m 14,4 C 17,7 C 3,2 km/h (1 Bft) 97,87 %
20.06.2019 00:46 17,6 C 25,6 C 15,0 C 81 % 1008,9 hPa 0,0 l/m 1,1 km/h (1 Bft) SW 216 0 min 0,000 mm 0,0 UV-I 0 W/m 14,3 C 17,6 C 1,6 km/h (1 Bft) 96,00 %
20.06.2019 00:48 17,6 C 25,6 C 15,0 C 82 % 1008,9 hPa 0,0 l/m 1,3 km/h (1 Bft) SW 216 0 min 0,000 mm 0,0 UV-I 0 W/m 14,5 C 17,6 C 3,2 km/h (1 Bft) 96,23 %
20.06.2019 00:50 17,7 C 25,6 C 15,0 C 82 % 1008,9 hPa 0,0 l/m 2,3 km/h (1 Bft) SW 216 0 min 0,000 mm 0,0 UV-I 0 W/m 14,6 C 17,7 C 3,2 km/h (1 Bft) 100,00 %
20.06.2019 00:52 17,6 C 25,6 C 15,0 C 82 % 1008,9 hPa 0,0 l/m 2,5 km/h (1 Bft) SW 216 0 min 0,000 mm 0,0 UV-I 0 W/m 14,5 C 17,6 C 3,2 km/h (1 Bft) 97,37 %
20.06.2019 00:54 17,4 C 25,6 C 15,0 C 82 % 1008,9 hPa 0,0 l/m 1,3 km/h (1 Bft) SW 216 0 min 0,000 mm 0,0 UV-I 0 W/m 14,3 C 17,4 C 3,2 km/h (1 Bft) 100,00 %
20.06.2019 00:56 17,2 C 25,6 C 15,0 C 83 % 1008,9 hPa 0,0 l/m 1,7 km/h (1 Bft) SW 216 0 min 0,000 mm 0,0 UV-I 0 W/m 14,3 C 17,2 C 3,2 km/h (1 Bft) 96,23 %
20.06.2019 00:58 17,1 C 25,0 C 14,4 C 83 % 1008,9 hPa 0,0 l/m 2,7 km/h (1 Bft) SW 216 0 min 0,000 mm 0,0 UV-I 0 W/m 14,2 C 17,1 C 3,2 km/h (1 Bft) 100,00 %
20.06.2019 01:00 17,2 C 25,0 C 14,4 C 83 % 1008,9 hPa 0,0 l/m 2,1 km/h (1 Bft) SW 216 0 min 0,025 mm 0,0 UV-I 0 W/m 14,3 C 17,2 C 3,2 km/h (1 Bft) 96,15 %
20.06.2019 01:02 17,3 C 25,0 C 14,4 C 83 % 1008,9 hPa 0,0 l/m 1,9 km/h (1 Bft) SW 216 0 min 0,000 mm 0,0 UV-I 0 W/m 14,4 C 17,3 C 3,2 km/h (1 Bft) 100,00 %
20.06.2019 01:04 17,4 C 25,0 C 14,4 C 82 % 1008,9 hPa 0,0 l/m 1,1 km/h (1 Bft) SW 216 0 min 0,000 mm 0,0 UV-I 0 W/m 14,3 C 17,4 C 1,6 km/h (1 Bft) 100,00 %
20.06.2019 01:06 17,6 C 25,0 C 14,4 C 81 % 1008,9 hPa 0,0 l/m 1,7 km/h (1 Bft) SW 216 0 min 0,000 mm 0,0 UV-I 0 W/m 14,3 C 17,6 C 3,2 km/h (1 Bft) 100,00 %
20.06.2019 01:08 17,2 C 25,0 C 14,4 C 82 % 1008,9 hPa 0,0 l/m 0,6 km/h (0 Bft) SW 216 0 min 0,000 mm 0,0 UV-I 0 W/m 14,1 C 17,2 C 1,6 km/h (1 Bft) 100,00 %
20.06.2019 01:10 17,0 C 25,0 C 14,4 C 83 % 1008,9 hPa 0,0 l/m 0,5 km/h (0 Bft) SW 216 0 min 0,000 mm 0,0 UV-I 0 W/m 14,1 C 17,0 C 1,6 km/h (1 Bft) 100,00 %
20.06.2019 01:12 16,9 C 25,0 C 14,4 C 83 % 1009,0 hPa 0,0 l/m 0,0 km/h (0 Bft) SW 216 0 min 0,000 mm 0,0 UV-I 0 W/m 14,0 C 16,9 C 0,0 km/h (0 Bft) 100,00 %
20.06.2019 01:14 17,1 C 25,0 C 14,4 C 83 % 1009,0 hPa 0,0 l/m 0,0 km/h (0 Bft) SW 216 0 min 0,000 mm 0,0 UV-I 0 W/m 14,2 C 17,1 C 0,0 km/h (0 Bft) 97,87 %
20.06.2019 01:16 17,2 C 25,0 C 14,4 C 83 % 1009,0 hPa 0,0 l/m 1,0 km/h (0 Bft) SW 216 0 min 0,000 mm 0,0 UV-I 0 W/m 14,3 C 17,2 C 3,2 km/h (1 Bft) 100,00 %
20.06.2019 01:18 16,9 C 25,0 C 14,4 C 82 % 1009,0 hPa 0,0 l/m 2,7 km/h (1 Bft) SW 216 0 min 0,000 mm 0,0 UV-I 0 W/m 13,8 C 16,9 C 4,8 km/h (1 Bft) 100,00 %
20.06.2019 01:20 16,4 C 25,0 C 14,4 C 84 % 1009,0 hPa 0,0 l/m 0,6 km/h (0 Bft) SW 216 0 min 0,000 mm 0,0 UV-I 0 W/m 13,7 C 16,4 C 1,6 km/h (1 Bft) 100,00 %
20.06.2019 01:22 16,4 C 25,0 C 14,4 C 86 % 1009,0 hPa 0,0 l/m 0,6 km/h (0 Bft) SW 216 0 min 0,000 mm 0,0 UV-I 0 W/m 14,1 C 16,4 C 1,6 km/h (1 Bft) 100,00 %
20.06.2019 01:24 16,4 C 25,0 C 14,4 C 86 % 1009,0 hPa 0,0 l/m 1,9 km/h (1 Bft) SW 216 0 min 0,000 mm 0,0 UV-I 0 W/m 14,1 C 16,4 C 3,2 km/h (1 Bft) 100,00 %
20.06.2019 01:26 16,4 C 25,0 C 14,4 C 85 % 1009,1 hPa 0,0 l/m 5,8 km/h (2 Bft) O-NO 57 0 min 0,000 mm 0,0 UV-I 0 W/m 13,9 C 16,4 C 9,7 km/h (2 Bft) 100,00 %
20.06.2019 01:28 16,2 C 25,0 C 14,4 C 87 % 1009,1 hPa 0,0 l/m 7,5 km/h (2 Bft) O-NO 68 0 min 0,000 mm 0,0 UV-I 0 W/m 14,0 C 15,6 C 9,7 km/h (2 Bft) 100,00 %
20.06.2019 01:30 16,4 C 25,0 C 14,4 C 87 % 1009,1 hPa 0,0 l/m 4,6 km/h (1 Bft) O 84 0 min 0,000 mm 0,0 UV-I 0 W/m 14,2 C 16,4 C 6,4 km/h (2 Bft) 97,56 %
20.06.2019 01:32 16,6 C 25,0 C 14,4 C 87 % 1009,1 hPa 0,0 l/m 3,1 km/h (1 Bft) O 84 0 min 0,000 mm 0,0 UV-I 0 W/m 14,4 C 16,6 C 4,8 km/h (1 Bft) 98,00 %
20.06.2019 01:34 16,7 C 25,0 C 14,4 C 86 % 1009,1 hPa 0,0 l/m 2,7 km/h (1 Bft) O 84 0 min 0,000 mm 0,0 UV-I 0 W/m 14,3 C 16,7 C 3,2 km/h (1 Bft) 97,87 %
20.06.2019 01:36 16,7 C 25,0 C 14,4 C 86 % 1009,1 hPa 0,0 l/m 1,5 km/h (1 Bft) O 84 0 min 0,000 mm 0,0 UV-I 0 W/m 14,3 C 16,7 C 3,2 km/h (1 Bft) 100,00 %
20.06.2019 01:38 16,7 C 25,0 C 15,0 C 86 % 1009,0 hPa 0,0 l/m 2,7 km/h (1 Bft) O 87 0 min 0,000 mm 0,0 UV-I 0 W/m 14,3 C 16,7 C 3,2 km/h (1 Bft) 96,77 %
20.06.2019 01:40 16,7 C 25,0 C 15,0 C 85 % 1009,0 hPa 0,0 l/m 2,3 km/h (1 Bft) O 87 0 min 0,000 mm 0,0 UV-I 0 W/m 14,2 C 16,7 C 3,2 km/h (1 Bft) 98,00 %
20.06.2019 01:42 16,7 C 25,0 C 15,0 C 85 % 1008,9 hPa 0,0 l/m 2,2 km/h (1 Bft) O 87 0 min 0,000 mm 0,0 UV-I 0 W/m 14,2 C 16,7 C 3,2 km/h (1 Bft) 94,00 %
20.06.2019 01:44 16,6 C 25,0 C 15,0 C 85 % 1008,9 hPa 0,0 l/m 1,4 km/h (1 Bft) O 87 0 min 0,000 mm 0,0 UV-I 0 W/m 14,1 C 16,6 C 3,2 km/h (1 Bft) 96,00 %
20.06.2019 01:46 16,4 C 25,0 C 14,4 C 85 % 1008,9 hPa 0,0 l/m 0,9 km/h (0 Bft) O 87 0 min 0,000 mm 0,0 UV-I 0 W/m 13,9 C 16,4 C 1,6 km/h (1 Bft) 95,74 %
20.06.2019 01:48 16,3 C 25,0 C 14,4 C 86 % 1009,0 hPa 0,0 l/m 1,1 km/h (1 Bft) O 87 0 min 0,000 mm 0,0 UV-I 0 W/m 14,0 C 16,3 C 1,6 km/h (1 Bft) 93,62 %
20.06.2019 01:50 16,4 C 25,0 C 14,4 C 86 % 1009,0 hPa 0,0 l/m 1,4 km/h (1 Bft) O 87 0 min 0,000 mm 0,0 UV-I 0 W/m 14,1 C 16,4 C 1,6 km/h (1 Bft) 93,18 %
20.06.2019 01:52 16,5 C 25,0 C 14,4 C 86 % 1009,0 hPa 0,0 l/m 2,0 km/h (1 Bft) O 87 0 min 0,000 mm 0,0 UV-I 0 W/m 14,1 C 16,5 C 3,2 km/h (1 Bft) 94,74 %
20.06.2019 01:54 16,5 C 25,0 C 14,4 C 85 % 1009,0 hPa 0,0 l/m 4,7 km/h (1 Bft) S-SW 203 0 min 0,000 mm 0,0 UV-I 0 W/m 14,0 C 16,5 C 6,4 km/h (2 Bft) 92,68 %
20.06.2019 01:56 16,4 C 25,0 C 15,0 C 85 % 1008,9 hPa 0,0 l/m 4,6 km/h (1 Bft) S-SW 203 0 min 0,000 mm 0,0 UV-I 0 W/m 13,9 C 16,4 C 6,4 km/h (2 Bft) 98,31 %
20.06.2019 01:58 16,4 C 25,0 C 15,0 C 86 % 1008,9 hPa 0,0 l/m 3,5 km/h (1 Bft) S-SW 203 0 min 0,000 mm 0,0 UV-I 0 W/m 14,1 C 16,4 C 4,8 km/h (1 Bft) 98,00 %
20.06.2019 02:00 16,3 C 25,0 C 15,0 C 84 % 1009,0 hPa 0,0 l/m 3,5 km/h (1 Bft) S-SW 202 0 min 0,000 mm 0,0 UV-I 0 W/m 13,6 C 16,3 C 4,8 km/h (1 Bft) 98,00 %
20.06.2019 02:02 16,0 C 25,0 C 14,4 C 85 % 1009,0 hPa 0,0 l/m 2,8 km/h (1 Bft) S-SW 202 0 min 0,000 mm 0,0 UV-I 0 W/m 13,5 C 16,0 C 4,8 km/h (1 Bft) 97,37 %
20.06.2019 02:04 15,9 C 25,0 C 14,4 C 86 % 1009,1 hPa 0,0 l/m 1,2 km/h (1 Bft) S-SW 202 0 min 0,000 mm 0,0 UV-I 0 W/m 13,6 C 15,9 C 3,2 km/h (1 Bft) 96,23 %
20.06.2019 02:06 16,1 C 25,0 C 14,4 C 87 % 1009,1 hPa 0,0 l/m 1,7 km/h (1 Bft) S-SW 202 0 min 0,000 mm 0,0 UV-I 0 W/m 13,9 C 16,1 C 3,2 km/h (1 Bft) 97,56 %
20.06.2019 02:08 16,1 C 25,0 C 14,4 C 87 % 1009,1 hPa 0,0 l/m 3,6 km/h (1 Bft) S-SW 209 0 min 0,000 mm 0,0 UV-I 0 W/m 13,9 C 16,1 C 4,8 km/h (1 Bft) 100,00 %
20.06.2019 02:10 16,1 C 25,0 C 14,4 C 86 % 1009,1 hPa 0,0 l/m 3,8 km/h (1 Bft) S-SW 209 0 min 0,000 mm 0,0 UV-I 0 W/m 13,8 C 16,1 C 4,8 km/h (1 Bft) 97,56 %
20.06.2019 02:12 15,9 C 25,0 C 14,4 C 86 % 1009,0 hPa 0,0 l/m 3,4 km/h (1 Bft) S-SW 209 0 min 0,000 mm 0,0 UV-I 0 W/m 13,6 C 15,9 C 4,8 km/h (1 Bft) 97,87 %
20.06.2019 02:14 15,8 C 25,0 C 14,4 C 87 % 1009,0 hPa 0,0 l/m 3,0 km/h (1 Bft) S-SW 209 0 min 0,000 mm 0,0 UV-I 0 W/m 13,6 C 15,8 C 3,2 km/h (1 Bft) 98,00 %
20.06.2019 02:16 15,7 C 25,0 C 14,4 C 87 % 1009,0 hPa 0,0 l/m 3,6 km/h (1 Bft) S-SW 209 0 min 0,000 mm 0,0 UV-I 0 W/m 13,5 C 15,7 C 4,8 km/h (1 Bft) 97,87 %
20.06.2019 02:18 15,6 C 25,0 C 14,4 C 87 % 1009,0 hPa 0,0 l/m 3,7 km/h (1 Bft) S-SW 209 0 min 0,000 mm 0,0 UV-I 0 W/m 13,4 C 15,6 C 4,8 km/h (1 Bft) 98,11 %
20.06.2019 02:20 15,6 C 25,0 C 14,4 C 88 % 1009,0 hPa 0,0 l/m 3,3 km/h (1 Bft) S-SW 209 0 min 0,000 mm 0,0 UV-I 0 W/m 13,6 C 15,6 C 4,8 km/h (1 Bft) 97,62 %
20.06.2019 02:22 15,7 C 25,0 C 14,4 C 89 % 1009,0 hPa 0,0 l/m 2,4 km/h (1 Bft) S-SW 209 0 min 0,000 mm 0,0 UV-I 0 W/m 13,9 C 15,7 C 3,2 km/h (1 Bft) 96,23 %
20.06.2019 02:24 15,8 C 25,0 C 14,4 C 88 % 1009,0 hPa 0,0 l/m 3,3 km/h (1 Bft) S-SW 209 0 min 0,000 mm 0,0 UV-I 0 W/m 13,8 C 15,8 C 4,8 km/h (1 Bft) 93,62 %
20.06.2019 02:26 16,0 C 25,0 C 14,4 C 88 % 1009,0 hPa 0,0 l/m 3,4 km/h (1 Bft) S-SW 209 0 min 0,000 mm 0,0 UV-I 0 W/m 14,0 C 16,0 C 4,8 km/h (1 Bft) 100,00 %
20.06.2019 02:28 16,2 C 25,0 C 14,4 C 87 % 1009,0 hPa 0,0 l/m 1,7 km/h (1 Bft) S-SW 209 0 min 0,000 mm 0,0 UV-I 0 W/m 14,0 C 16,2 C 3,2 km/h (1 Bft) 93,55 %
20.06.2019 02:30 16,2 C 25,0 C 14,4 C 87 % 1009,0 hPa 0,0 l/m 0,9 km/h (0 Bft) S-SW 209 0 min 0,000 mm 0,0 UV-I 0 W/m 14,0 C 16,2 C 3,2 km/h (1 Bft) 94,00 %
20.06.2019 02:32 16,1 C 25,0 C 14,4 C 86 % 1009,0 hPa 0,0 l/m 4,1 km/h (1 Bft) S-SW 209 0 min 0,000 mm 0,0 UV-I 0 W/m 13,8 C 16,1 C 6,4 km/h (2 Bft) 95,12 %
20.06.2019 02:34 15,9 C 25,0 C 15,0 C 87 % 1009,1 hPa 0,0 l/m 3,5 km/h (1 Bft) S-SW 209 0 min 0,000 mm 0,0 UV-I 0 W/m 13,7 C 15,9 C 4,8 km/h (1 Bft) 96,00 %
20.06.2019 02:36 15,9 C 25,0 C 14,4 C 87 % 1009,1 hPa 0,0 l/m 0,5 km/h (0 Bft) S-SW 209 0 min 0,000 mm 0,0 UV-I 0 W/m 13,7 C 15,9 C 1,6 km/h (1 Bft) 97,37 %
20.06.2019 02:38 16,0 C 25,0 C 14,4 C 87 % 1009,1 hPa 0,0 l/m 2,5 km/h (1 Bft) S-SW 209 0 min 0,000 mm 0,0 UV-I 0 W/m 13,8 C 16,0 C 4,8 km/h (1 Bft) 98,11 %
20.06.2019 02:40 16,0 C 25,0 C 14,4 C 87 % 1009,1 hPa 0,0 l/m 4,2 km/h (1 Bft) S-SW 209 0 min 0,000 mm 0,0 UV-I 0 W/m 13,8 C 16,0 C 6,4 km/h (2 Bft) 97,56 %
20.06.2019 02:42 15,9 C 25,0 C 15,0 C 87 % 1009,1 hPa 0,0 l/m 5,4 km/h (1 Bft) S-SW 210 0 min 0,000 mm 0,0 UV-I 0 W/m 13,7 C 15,9 C 6,4 km/h (2 Bft) 96,00 %
20.06.2019 02:44 15,8 C 25,0 C 14,4 C 87 % 1009,1 hPa 0,0 l/m 4,1 km/h (1 Bft) S-SW 210 0 min 0,000 mm 0,0 UV-I 0 W/m 13,6 C 15,8 C 6,4 km/h (2 Bft) 98,00 %
20.06.2019 02:46 15,7 C 25,0 C 14,4 C 87 % 1009,1 hPa 0,0 l/m 1,6 km/h (1 Bft) S-SW 209 0 min 0,000 mm 0,0 UV-I 0 W/m 13,5 C 15,7 C 3,2 km/h (1 Bft) 97,56 %
20.06.2019 02:48 15,4 C 25,0 C 14,4 C 87 % 1009,1 hPa 0,0 l/m 6,9 km/h (2 Bft) NO 51 0 min 0,000 mm 0,0 UV-I 0 W/m 13,2 C 15,1 C 11,3 km/h (2 Bft) 96,23 %
20.06.2019 02:50 15,2 C 25,0 C 14,4 C 89 % 1009,1 hPa 0,0 l/m 7,4 km/h (2 Bft) O-NO 65 0 min 0,000 mm 0,0 UV-I 0 W/m 13,4 C 14,6 C 11,3 km/h (2 Bft) 97,73 %
20.06.2019 02:52 15,3 C 25,0 C 14,4 C 90 % 1009,1 hPa 0,0 l/m 3,3 km/h (1 Bft) O-NO 67 0 min 0,000 mm 0,0 UV-I 0 W/m 13,7 C 15,3 C 4,8 km/h (1 Bft) 98,00 %
20.06.2019 02:54 15,6 C 25,0 C 13,9 C 90 % 1009,1 hPa 0,0 l/m 1,6 km/h (1 Bft) O-NO 67 0 min 0,000 mm 0,0 UV-I 0 W/m 14,0 C 15,6 C 3,2 km/h (1 Bft) 96,00 %
20.06.2019 02:56 15,6 C 25,0 C 13,9 C 89 % 1009,1 hPa 0,0 l/m 4,0 km/h (1 Bft) O-NO 65 0 min 0,000 mm 0,0 UV-I 0 W/m 13,8 C 15,6 C 6,4 km/h (2 Bft) 92,31 %
20.06.2019 02:58 15,3 C 25,0 C 13,9 C 89 % 1009,1 hPa 0,0 l/m 5,6 km/h (1 Bft) O-NO 63 0 min 0,000 mm 0,0 UV-I 0 W/m 13,5 C 15,3 C 6,4 km/h (2 Bft) 98,00 %
20.06.2019 03:00 15,2 C 25,0 C 13,9 C 89 % 1009,0 hPa 0,0 l/m 2,8 km/h (1 Bft) O 80 0 min 0,000 mm 0,0 UV-I 0 W/m 13,4 C 15,2 C 6,4 km/h (2 Bft) 95,12 %
20.06.2019 03:02 15,4 C 25,0 C 13,9 C 90 % 1008,9 hPa 0,0 l/m 2,5 km/h (1 Bft) SO 136 0 min 0,000 mm 0,0 UV-I 0 W/m 13,8 C 15,4 C 4,8 km/h (1 Bft) 97,73 %
20.06.2019 03:04 15,6 C 25,0 C 13,9 C 90 % 1009,0 hPa 0,0 l/m 2,3 km/h (1 Bft) SO 134 0 min 0,000 mm 0,0 UV-I 0 W/m 14,0 C 15,6 C 4,8 km/h (1 Bft) 98,31 %
20.06.2019 03:06 15,3 C 25,0 C 13,9 C 88 % 1009,0 hPa 0,0 l/m 5,8 km/h (2 Bft) NO 34 0 min 0,000 mm 0,0 UV-I 0 W/m 13,3 C 15,3 C 8,0 km/h (2 Bft) 97,37 %
20.06.2019 03:08 15,0 C 25,0 C 13,9 C 89 % 1009,0 hPa 0,0 l/m 2,4 km/h (1 Bft) NO 34 0 min 0,000 mm 0,0 UV-I 0 W/m 13,2 C 15,0 C 4,8 km/h (1 Bft) 98,00 %
20.06.2019 03:10 15,1 C 25,0 C 13,9 C 90 % 1008,9 hPa 0,0 l/m 2,3 km/h (1 Bft) SO 146 0 min 0,000 mm 0,0 UV-I 0 W/m 13,5 C 15,1 C 3,2 km/h (1 Bft) 97,87 %
20.06.2019 03:12 15,2 C 25,0 C 13,9 C 90 % 1009,0 hPa 0,0 l/m 2,2 km/h (1 Bft) SO 146 0 min 0,000 mm 0,0 UV-I 0 W/m 13,6 C 15,2 C 3,2 km/h (1 Bft) 98,00 %
20.06.2019 03:14 15,0 C 25,0 C 13,9 C 89 % 1009,0 hPa 0,0 l/m 4,4 km/h (1 Bft) N-NO 28 0 min 0,000 mm 0,0 UV-I 0 W/m 13,2 C 15,0 C 12,9 km/h (3 Bft) 97,73 %
20.06.2019 03:16 14,9 C 25,0 C 13,9 C 90 % 1009,0 hPa 0,0 l/m 1,1 km/h (1 Bft) N-NO 28 0 min 0,000 mm 0,0 UV-I 0 W/m 13,3 C 14,9 C 3,2 km/h (1 Bft) 98,00 %
20.06.2019 03:18 14,9 C 25,0 C 13,3 C 90 % 1009,0 hPa 0,0 l/m 0,7 km/h (0 Bft) N-NO 28 0 min 0,000 mm 0,0 UV-I 0 W/m 13,3 C 14,9 C 1,6 km/h (1 Bft) 97,87 %
20.06.2019 03:20 14,9 C 25,0 C 13,3 C 90 % 1008,9 hPa 0,0 l/m 2,7 km/h (1 Bft) N-NO 28 0 min 0,000 mm 0,0 UV-I 0 W/m 13,3 C 14,9 C 4,8 km/h (1 Bft) 100,00 %
20.06.2019 03:22 15,0 C 25,0 C 13,9 C 90 % 1008,9 hPa 0,0 l/m 3,9 km/h (1 Bft) N-NO 28 0 min 0,000 mm 0,0 UV-I 0 W/m 13,4 C 15,0 C 4,8 km/h (1 Bft) 100,00 %
20.06.2019 03:24 15,1 C 25,0 C 13,9 C 90 % 1008,9 hPa 0,0 l/m 1,8 km/h (1 Bft) N-NO 28 0 min 0,000 mm 0,0 UV-I 0 W/m 13,5 C 15,1 C 3,2 km/h (1 Bft) 100,00 %
20.06.2019 03:26 15,1 C 25,0 C 13,9 C 90 % 1008,9 hPa 0,0 l/m 1,7 km/h (1 Bft) N-NO 28 0 min 0,000 mm 0,0 UV-I 0 W/m 13,5 C 15,1 C 3,2 km/h (1 Bft) 100,00 %
20.06.2019 03:28 15,1 C 25,0 C 13,9 C 90 % 1008,8 hPa 0,0 l/m 2,2 km/h (1 Bft) N-NO 28 0 min 0,000 mm 0,0 UV-I 0 W/m 13,5 C 15,1 C 3,2 km/h (1 Bft) 100,00 %
20.06.2019 03:30 15,1 C 25,0 C 13,9 C 90 % 1008,7 hPa 0,0 l/m 3,2 km/h (1 Bft) NO 36 0 min 0,000 mm 0,0 UV-I 0 W/m 13,5 C 15,1 C 4,8 km/h (1 Bft) 97,87 %
20.06.2019 03:32 15,1 C 25,0 C 13,9 C 89 % 1008,7 hPa 0,0 l/m 2,0 km/h (1 Bft) NO 37 0 min 0,000 mm 0,0 UV-I 0 W/m 13,3 C 15,1 C 3,2 km/h (1 Bft) 100,00 %
20.06.2019 03:34 14,9 C 25,0 C 13,9 C 89 % 1008,8 hPa 0,0 l/m 1,4 km/h (1 Bft) NO 37 0 min 0,000 mm 0,0 UV-I 0 W/m 13,1 C 14,9 C 3,2 km/h (1 Bft) 100,00 %
20.06.2019 03:36 14,8 C 25,0 C 13,3 C 89 % 1008,8 hPa 0,0 l/m 0,7 km/h (0 Bft) NO 37 0 min 0,000 mm 0,0 UV-I 0 W/m 13,0 C 14,8 C 1,6 km/h (1 Bft) 98,11 %
20.06.2019 03:38 14,8 C 25,0 C 13,3 C 90 % 1008,8 hPa 0,0 l/m 0,9 km/h (0 Bft) NO 37 0 min 0,000 mm 0,0 UV-I 0 W/m 13,2 C 14,8 C 1,6 km/h (1 Bft) 100,00 %
20.06.2019 03:40 14,8 C 25,0 C 12,8 C 90 % 1008,8 hPa 0,0 l/m 0,1 km/h (0 Bft) NO 37 0 min 0,000 mm 0,0 UV-I 0 W/m 13,2 C 14,8 C 1,6 km/h (1 Bft) 100,00 %
20.06.2019 03:42 14,7 C 25,0 C 12,8 C 90 % 1008,8 hPa 0,0 l/m 0,1 km/h (0 Bft) NO 37 0 min 0,000 mm 0,0 UV-I 0 W/m 13,1 C 14,7 C 1,6 km/h (1 Bft) 100,00 %
20.06.2019 03:44 14,8 C 25,0 C 12,8 C 90 % 1008,8 hPa 0,0 l/m 1,0 km/h (0 Bft) NO 37 0 min 0,000 mm 0,0 UV-I 0 W/m 13,2 C 14,8 C 3,2 km/h (1 Bft) 98,00 %
20.06.2019 03:46 14,9 C 25,0 C 12,8 C 90 % 1008,8 hPa 0,0 l/m 4,1 km/h (1 Bft) NO 37 0 min 0,000 mm 0,0 UV-I 0 W/m 13,3 C 14,9 C 4,8 km/h (1 Bft) 98,00 %
20.06.2019 03:48 15,0 C 25,0 C 13,3 C 90 % 1008,9 hPa 0,0 l/m 2,9 km/h (1 Bft) NO 36 0 min 0,000 mm 0,0 UV-I 0 W/m 13,4 C 15,0 C 4,8 km/h (1 Bft) 100,00 %
20.06.2019 03:50 15,1 C 25,0 C 13,3 C 90 % 1008,9 hPa 0,0 l/m 1,8 km/h (1 Bft) NO 36 0 min 0,000 mm 0,0 UV-I 0 W/m 13,5 C 15,1 C 3,2 km/h (1 Bft) 97,37 %
20.06.2019 03:52 14,9 C 25,0 C 13,3 C 90 % 1008,8 hPa 0,0 l/m 3,3 km/h (1 Bft) NO 36 0 min 0,000 mm 0,0 UV-I 0 W/m 13,3 C 14,9 C 4,8 km/h (1 Bft) 100,00 %
20.06.2019 03:54 14,9 C 25,0 C 13,3 C 90 % 1008,8 hPa 0,0 l/m 5,0 km/h (1 Bft) NO 36 0 min 0,000 mm 0,0 UV-I 0 W/m 13,3 C 14,9 C 6,4 km/h (2 Bft) 100,00 %
20.06.2019 03:56 14,8 C 25,0 C 13,3 C 90 % 1008,8 hPa 0,0 l/m 4,5 km/h (1 Bft) NO 36 0 min 0,000 mm 0,0 UV-I 0 W/m 13,2 C 14,8 C 6,4 km/h (2 Bft) 98,00 %
20.06.2019 03:58 14,7 C 25,0 C 13,3 C 90 % 1008,8 hPa 0,0 l/m 2,6 km/h (1 Bft) O-SO 121 0 min 0,000 mm 0,0 UV-I 0 W/m 13,1 C 14,7 C 4,8 km/h (1 Bft) 100,00 %
20.06.2019 04:00 14,6 C 25,0 C 13,3 C 90 % 1008,8 hPa 0,0 l/m 1,9 km/h (1 Bft) O-SO 121 0 min 0,000 mm 0,0 UV-I 0 W/m 13,0 C 14,6 C 3,2 km/h (1 Bft) 97,87 %
20.06.2019 04:02 14,6 C 25,0 C 13,3 C 90 % 1008,8 hPa 0,0 l/m 4,0 km/h (1 Bft) S-SW 192 0 min 0,000 mm 0,0 UV-I 0 W/m 13,0 C 14,6 C 6,4 km/h (2 Bft) 100,00 %
20.06.2019 04:04 14,6 C 25,0 C 13,3 C 90 % 1008,8 hPa 0,0 l/m 2,7 km/h (1 Bft) S-SW 192 0 min 0,000 mm 0,0 UV-I 0 W/m 13,0 C 14,6 C 4,8 km/h (1 Bft) 100,00 %
20.06.2019 04:06 14,6 C 25,0 C 12,8 C 90 % 1008,8 hPa 0,0 l/m 1,0 km/h (0 Bft) S-SW 192 0 min 0,000 mm 0,0 UV-I 0 W/m 13,0 C 14,6 C 1,6 km/h (1 Bft) 100,00 %
20.06.2019 04:08 14,4 C 25,0 C 12,8 C 90 % 1008,8 hPa 0,0 l/m 0,8 km/h (0 Bft) S-SW 192 0 min 0,000 mm 0,0 UV-I 0 W/m 12,8 C 14,4 C 1,6 km/h (1 Bft) 100,00 %
20.06.2019 04:10 14,4 C 25,0 C 12,8 C 91 % 1008,8 hPa 0,0 l/m 1,4 km/h (1 Bft) S-SW 192 0 min 0,000 mm 0,0 UV-I 0 W/m 12,9 C 14,4 C 3,2 km/h (1 Bft) 100,00 %
20.06.2019 04:12 14,7 C 25,0 C 12,8 C 91 % 1008,8 hPa 0,0 l/m 2,8 km/h (1 Bft) S-SW 192 0 min 0,000 mm 0,0 UV-I 0 W/m 13,2 C 14,7 C 3,2 km/h (1 Bft) 100,00 %
20.06.2019 04:14 14,8 C 25,0 C 12,8 C 91 % 1008,8 hPa 0,0 l/m 1,1 km/h (1 Bft) S-SW 192 0 min 0,000 mm 0,0 UV-I 0 W/m 13,3 C 14,8 C 3,2 km/h (1 Bft) 100,00 %
20.06.2019 04:16 14,8 C 25,0 C 12,8 C 90 % 1008,9 hPa 0,0 l/m 0,0 km/h (0 Bft) S-SW 192 0 min 0,000 mm 0,0 UV-I 0 W/m 13,2 C 14,8 C 0,0 km/h (0 Bft) 100,00 %
20.06.2019 04:18 14,8 C 25,0 C 12,2 C 90 % 1009,0 hPa 0,0 l/m 0,0 km/h (0 Bft) S-SW 192 0 min 0,000 mm 0,0 UV-I 0 W/m 13,2 C 14,8 C 0,0 km/h (0 Bft) 97,87 %
20.06.2019 04:20 14,7 C 25,0 C 12,2 C 90 % 1009,0 hPa 0,0 l/m 0,0 km/h (0 Bft) S-SW 192 0 min 0,000 mm 0,0 UV-I 0 W/m 13,1 C 14,7 C 0,0 km/h (0 Bft) 98,00 %
20.06.2019 04:22 14,8 C 25,0 C 12,2 C 90 % 1009,0 hPa 0,0 l/m 0,0 km/h (0 Bft) S-SW 192 0 min 0,000 mm 0,0 UV-I 0 W/m 13,2 C 14,8 C 0,0 km/h (0 Bft) 98,00 %
20.06.2019 04:24 14,8 C 25,0 C 12,2 C 90 % 1009,0 hPa 0,0 l/m 0,0 km/h (0 Bft) S-SW 192 0 min 0,000 mm 0,0 UV-I 0 W/m 13,2 C 14,8 C 0,0 km/h (0 Bft) 97,87 %
20.06.2019 04:26 14,9 C 25,0 C 12,2 C 91 % 1009,1 hPa 0,0 l/m 0,8 km/h (0 Bft) S-SW 192 0 min 0,000 mm 0,0 UV-I 0 W/m 13,4 C 14,9 C 1,6 km/h (1 Bft) 97,56 %
20.06.2019 04:28 14,8 C 25,0 C 12,2 C 89 % 1009,1 hPa 0,0 l/m 1,5 km/h (1 Bft) S-SW 192 0 min 0,000 mm 0,0 UV-I 0 W/m 13,0 C 14,8 C 1,6 km/h (1 Bft) 96,00 %
20.06.2019 04:30 14,8 C 25,0 C 12,2 C 90 % 1009,1 hPa 0,0 l/m 1,6 km/h (1 Bft) S-SW 192 0 min 0,000 mm 0,0 UV-I 0 W/m 13,2 C 14,8 C 3,2 km/h (1 Bft) 95,12 %
20.06.2019 04:32 14,9 C 25,0 C 12,8 C 90 % 1009,2 hPa 0,0 l/m 2,2 km/h (1 Bft) S-SW 192 0 min 0,000 mm 0,0 UV-I 0 W/m 13,3 C 14,9 C 3,2 km/h (1 Bft) 93,62 %
20.06.2019 04:34 14,9 C 25,0 C 12,8 C 90 % 1009,2 hPa 0,0 l/m 2,1 km/h (1 Bft) S-SW 192 0 min 0,000 mm 0,0 UV-I 0 W/m 13,3 C 14,9 C 3,2 km/h (1 Bft) 96,00 %
20.06.2019 04:36 14,8 C 25,0 C 13,3 C 90 % 1009,2 hPa 0,0 l/m 2,3 km/h (1 Bft) S-SW 192 0 min 0,000 mm 0,0 UV-I 0 W/m 13,2 C 14,8 C 3,2 km/h (1 Bft) 94,00 %
20.06.2019 04:38 14,7 C 25,0 C 13,3 C 90 % 1009,2 hPa 0,0 l/m 1,3 km/h (1 Bft) S-SW 192 0 min 0,000 mm 0,0 UV-I 0 W/m 13,1 C 14,7 C 1,6 km/h (1 Bft) 95,74 %
20.06.2019 04:40 14,6 C 25,0 C 13,3 C 90 % 1009,2 hPa 0,0 l/m 2,7 km/h (1 Bft) S-SW 192 0 min 0,000 mm 0,0 UV-I 0 W/m 13,0 C 14,6 C 4,8 km/h (1 Bft) 93,62 %
20.06.2019 04:42 14,5 C 25,0 C 13,3 C 90 % 1009,3 hPa 0,0 l/m 4,5 km/h (1 Bft) S-SW 193 0 min 0,000 mm 0,0 UV-I 0 W/m 12,9 C 14,5 C 4,8 km/h (1 Bft) 95,12 %
20.06.2019 04:44 14,4 C 25,0 C 12,8 C 91 % 1009,3 hPa 0,0 l/m 3,3 km/h (1 Bft) S-SW 193 0 min 0,000 mm 0,0 UV-I 0 W/m 12,9 C 14,4 C 4,8 km/h (1 Bft) 95,74 %
20.06.2019 04:46 14,5 C 25,0 C 13,3 C 91 % 1009,3 hPa 0,0 l/m 4,8 km/h (1 Bft) SW 221 0 min 0,000 mm 0,0 UV-I 0 W/m 13,0 C 14,5 C 8,0 km/h (2 Bft) 98,11 %
20.06.2019 04:48 14,6 C 25,0 C 13,3 C 91 % 1009,3 hPa 0,0 l/m 6,2 km/h (2 Bft) SW 225 0 min 0,000 mm 0,0 UV-I 0 W/m 13,1 C 14,6 C 8,0 km/h (2 Bft) 97,62 %
20.06.2019 04:50 14,5 C 25,0 C 13,3 C 91 % 1009,4 hPa 0,0 l/m 5,4 km/h (1 Bft) SW 227 0 min 0,000 mm 0,0 UV-I 0 W/m 13,0 C 14,5 C 6,4 km/h (2 Bft) 95,74 %
20.06.2019 04:52 14,6 C 25,0 C 13,3 C 91 % 1009,4 hPa 0,0 l/m 5,5 km/h (1 Bft) SW 226 0 min 0,000 mm 0,0 UV-I 5 W/m 13,1 C 14,6 C 6,4 km/h (2 Bft) 92,00 %
20.06.2019 04:54 14,6 C 25,0 C 13,3 C 91 % 1009,5 hPa 0,0 l/m 4,8 km/h (1 Bft) SW 227 0 min 0,000 mm 0,0 UV-I 5 W/m 13,1 C 14,6 C 6,4 km/h (2 Bft) 96,00 %
20.06.2019 04:56 14,6 C 25,0 C 13,3 C 91 % 1009,7 hPa 0,0 l/m 6,8 km/h (2 Bft) SW 233 0 min 0,000 mm 0,0 UV-I 5 W/m 13,1 C 14,4 C 9,7 km/h (2 Bft) 95,74 %
20.06.2019 04:58 14,6 C 24,4 C 13,9 C 91 % 1010,1 hPa 0,0 l/m 8,9 km/h (2 Bft) SW 227 0 min 0,000 mm 0,0 UV-I 5 W/m 13,1 C 13,2 C 17,7 km/h (3 Bft) 94,74 %
20.06.2019 05:00 14,3 C 24,4 C 13,3 C 90 % 1010,3 hPa 0,0 l/m 15,4 km/h (3 Bft) W-NW 283 0 min 0,000 mm 0,0 UV-I 5 W/m 12,7 C 10,2 C 24,1 km/h (4 Bft) 95,45 %
20.06.2019 05:02 14,6 C 25,0 C 13,9 C 92 % 1010,3 hPa 0,0 l/m 15,2 km/h (3 Bft) W-SW 249 0 min 0,000 mm 0,0 UV-I 6 W/m 13,3 C 10,6 C 20,9 km/h (4 Bft) 96,23 %
20.06.2019 05:04 14,9 C 24,4 C 14,4 C 91 % 1010,2 hPa 0,0 l/m 11,6 km/h (2 Bft) W 264 0 min 0,000 mm 0,0 UV-I 7 W/m 13,4 C 12,3 C 16,1 km/h (3 Bft) 97,56 %
20.06.2019 05:06 15,2 C 24,4 C 14,4 C 90 % 1010,3 hPa 0,0 l/m 14,7 km/h (3 Bft) W 265 0 min 0,000 mm 0,0 UV-I 7 W/m 13,6 C 11,5 C 19,3 km/h (3 Bft) 94,00 %
20.06.2019 05:08 15,3 C 24,4 C 14,4 C 89 % 1010,3 hPa 0,0 l/m 9,7 km/h (2 Bft) W-SW 247 0 min 0,000 mm 0,0 UV-I 8 W/m 13,5 C 13,6 C 14,5 km/h (3 Bft) 97,56 %
20.06.2019 05:10 15,3 C 24,4 C 14,4 C 89 % 1010,2 hPa 0,0 l/m 5,5 km/h (1 Bft) SW 229 0 min 0,000 mm 0,0 UV-I 9 W/m 13,5 C 15,3 C 8,0 km/h (2 Bft) 98,11 %
20.06.2019 05:12 15,3 C 24,4 C 14,4 C 88 % 1010,2 hPa 0,0 l/m 7,5 km/h (2 Bft) S-SW 213 0 min 0,000 mm 0,0 UV-I 11 W/m 13,3 C 14,7 C 12,9 km/h (3 Bft) 97,56 %
20.06.2019 05:14 15,3 C 24,4 C 14,4 C 88 % 1010,1 hPa 0,0 l/m 6,6 km/h (2 Bft) S-SO 150 0 min 0,000 mm 0,0 UV-I 11 W/m 13,3 C 15,2 C 12,9 km/h (3 Bft) 96,43 %
20.06.2019 05:16 15,3 C 24,4 C 14,4 C 88 % 1010,3 hPa 0,0 l/m 7,1 km/h (2 Bft) W 261 2 min 0,000 mm 0,0 UV-I 11 W/m 13,3 C 14,9 C 11,3 km/h (2 Bft) 96,00 %
20.06.2019 05:18 15,2 C 24,4 C 14,4 C 88 % 1010,2 hPa 0,0 l/m 6,9 km/h (2 Bft) S-SW 202 2 min 0,000 mm 0,0 UV-I 12 W/m 13,2 C 14,9 C 14,5 km/h (3 Bft) 94,74 %
20.06.2019 05:20 15,2 C 24,4 C 14,4 C 88 % 1010,1 hPa 0,0 l/m 5,6 km/h (1 Bft) S-SW 200 0 min 0,000 mm 0,0 UV-I 13 W/m 13,2 C 15,2 C 8,0 km/h (2 Bft) 97,87 %
20.06.2019 05:22 15,1 C 24,4 C 14,4 C 88 % 1010,2 hPa 0,0 l/m 8,7 km/h (2 Bft) S-SW 194 0 min 0,000 mm 0,0 UV-I 14 W/m 13,1 C 13,8 C 12,9 km/h (3 Bft) 98,11 %
20.06.2019 05:24 15,0 C 24,4 C 14,4 C 88 % 1010,1 hPa 0,0 l/m 6,2 km/h (2 Bft) S 188 0 min 0,000 mm 0,0 UV-I 17 W/m 13,0 C 15,0 C 9,7 km/h (2 Bft) 97,44 %
20.06.2019 05:26 15,0 C 24,4 C 14,4 C 88 % 1010,1 hPa 0,0 l/m 5,7 km/h (1 Bft) S-SW 207 0 min 0,000 mm 0,0 UV-I 19 W/m 13,0 C 15,0 C 8,0 km/h (2 Bft) 98,08 %
20.06.2019 05:28 15,0 C 24,4 C 14,4 C 89 % 1010,2 hPa 0,0 l/m 4,6 km/h (1 Bft) SW 221 0 min 0,000 mm 0,0 UV-I 23 W/m 13,2 C 15,0 C 6,4 km/h (2 Bft) 98,00 %
20.06.2019 05:30 15,1 C 24,4 C 14,4 C 88 % 1010,2 hPa 0,0 l/m 5,5 km/h (1 Bft) SW 231 2 min 0,000 mm 0,0 UV-I 27 W/m 13,1 C 15,1 C 8,0 km/h (2 Bft) 97,22 %
20.06.2019 05:32 15,1 C 24,4 C 14,4 C 88 % 1010,2 hPa 0,0 l/m 6,0 km/h (2 Bft) SW 217 2 min 0,000 mm 0,0 UV-I 34 W/m 13,1 C 15,1 C 8,0 km/h (2 Bft) 94,55 %
20.06.2019 05:34 15,2 C 24,4 C 14,4 C 88 % 1010,3 hPa 0,0 l/m 6,2 km/h (2 Bft) W-SW 244 2 min 0,000 mm 0,0 UV-I 39 W/m 13,2 C 15,2 C 8,0 km/h (2 Bft) 98,00 %
20.06.2019 05:36 15,2 C 24,4 C 14,4 C 88 % 1010,3 hPa 0,0 l/m 7,1 km/h (2 Bft) W-SW 245 2 min 0,000 mm 0,0 UV-I 43 W/m 13,2 C 14,8 C 11,3 km/h (2 Bft) 97,87 %
20.06.2019 05:38 15,1 C 24,4 C 14,4 C 88 % 1010,3 hPa 0,0 l/m 9,1 km/h (2 Bft) W-SW 244 2 min 0,000 mm 0,0 UV-I 45 W/m 13,1 C 13,6 C 12,9 km/h (3 Bft) 97,37 %
20.06.2019 05:40 15,1 C 24,4 C 14,4 C 88 % 1010,3 hPa 0,0 l/m 10,4 km/h (2 Bft) SW 225 2 min 0,000 mm 0,0 UV-I 49 W/m 13,1 C 13,1 C 16,1 km/h (3 Bft) 96,00 %
20.06.2019 05:42 15,2 C 24,4 C 14,4 C 88 % 1010,4 hPa 0,0 l/m 11,5 km/h (2 Bft) SW 236 2 min 0,000 mm 0,0 UV-I 52 W/m 13,2 C 12,7 C 17,7 km/h (3 Bft) 95,74 %
20.06.2019 05:44 15,4 C 24,4 C 15,0 C 88 % 1010,3 hPa 0,0 l/m 13,6 km/h (3 Bft) SW 221 2 min 0,000 mm 0,0 UV-I 52 W/m 13,4 C 12,1 C 19,3 km/h (3 Bft) 98,00 %
20.06.2019 05:46 15,7 C 24,4 C 15,0 C 87 % 1010,4 hPa 0,0 l/m 14,1 km/h (3 Bft) W-SW 239 2 min 0,000 mm 0,0 UV-I 50 W/m 13,5 C 12,3 C 19,3 km/h (3 Bft) 97,73 %
20.06.2019 05:48 15,9 C 24,4 C 15,0 C 86 % 1010,4 hPa 0,0 l/m 13,7 km/h (3 Bft) SW 228 2 min 0,000 mm 0,0 UV-I 56 W/m 13,6 C 12,7 C 19,3 km/h (3 Bft) 98,00 %
20.06.2019 05:50 16,1 C 24,4 C 15,0 C 85 % 1010,4 hPa 0,0 l/m 14,2 km/h (3 Bft) W 269 2 min 0,000 mm 0,0 UV-I 61 W/m 13,6 C 12,8 C 20,9 km/h (4 Bft) 97,56 %
20.06.2019 05:52 16,2 C 24,4 C 15,6 C 85 % 1010,4 hPa 0,0 l/m 15,1 km/h (3 Bft) W-SW 257 2 min 0,000 mm 0,0 UV-I 66 W/m 13,7 C 12,6 C 20,9 km/h (4 Bft) 98,11 %
20.06.2019 05:54 16,3 C 24,4 C 15,6 C 85 % 1010,4 hPa 0,0 l/m 15,4 km/h (3 Bft) SW 226 2 min 0,000 mm 0,0 UV-I 73 W/m 13,8 C 12,6 C 22,5 km/h (4 Bft) 97,73 %
20.06.2019 05:56 16,4 C 24,4 C 15,6 C 84 % 1010,4 hPa 0,0 l/m 15,7 km/h (3 Bft) SW 234 2 min 0,000 mm 0,0 UV-I 77 W/m 13,7 C 12,7 C 20,9 km/h (4 Bft) 98,11 %
20.06.2019 05:58 16,6 C 24,4 C 16,1 C 83 % 1010,5 hPa 0,0 l/m 16,4 km/h (3 Bft) W-SW 255 2 min 0,000 mm 0,0 UV-I 80 W/m 13,7 C 12,7 C 20,9 km/h (4 Bft) 97,37 %
20.06.2019 06:00 16,7 C 24,4 C 16,1 C 83 % 1010,5 hPa 0,0 l/m 15,7 km/h (3 Bft) SW 231 2 min 0,026 mm 0,0 UV-I 83 W/m 13,8 C 13,0 C 22,5 km/h (4 Bft) 98,00 %
20.06.2019 06:02 16,8 C 24,4 C 16,1 C 82 % 1010,5 hPa 0,0 l/m 17,4 km/h (3 Bft) W-SW 248 2 min 0,000 mm 0,0 UV-I 84 W/m 13,7 C 12,7 C 22,5 km/h (4 Bft) 98,11 %
20.06.2019 06:04 16,9 C 24,4 C 16,1 C 82 % 1010,5 hPa 0,0 l/m 14,6 km/h (3 Bft) W 265 2 min 0,000 mm 0,0 UV-I 89 W/m 13,8 C 13,6 C 19,3 km/h (3 Bft) 97,22 %
20.06.2019 06:06 16,9 C 24,4 C 16,7 C 82 % 1010,5 hPa 0,0 l/m 16,8 km/h (3 Bft) W-SW 248 2 min 0,000 mm 0,0 UV-I 94 W/m 13,8 C 13,0 C 22,5 km/h (4 Bft) 98,00 %
20.06.2019 06:08 17,0 C 24,4 C 16,7 C 82 % 1010,6 hPa 0,0 l/m 15,5 km/h (3 Bft) SW 220 2 min 0,000 mm 0,0 UV-I 98 W/m 13,9 C 13,5 C 20,9 km/h (4 Bft) 100,00 %
20.06.2019 06:10 17,1 C 24,4 C 16,7 C 82 % 1010,5 hPa 0,0 l/m 16,2 km/h (3 Bft) W-SW 237 2 min 0,000 mm 0,0 UV-I 100 W/m 14,0 C 13,4 C 20,9 km/h (4 Bft) 95,12 %
20.06.2019 06:12 17,1 C 24,4 C 16,7 C 81 % 1010,5 hPa 0,0 l/m 13,1 km/h (3 Bft) SW 225 2 min 0,000 mm 0,0 UV-I 104 W/m 13,8 C 14,3 C 22,5 km/h (4 Bft) 100,00 %
20.06.2019 06:14 17,2 C 24,4 C 16,7 C 81 % 1010,4 hPa 0,0 l/m 13,7 km/h (3 Bft) W-SW 242 2 min 0,000 mm 0,0 UV-I 110 W/m 13,9 C 14,2 C 19,3 km/h (3 Bft) 97,37 %
20.06.2019 06:16 17,2 C 24,4 C 16,7 C 80 % 1010,5 hPa 0,0 l/m 14,9 km/h (3 Bft) SW 223 2 min 0,000 mm 0,0 UV-I 115 W/m 13,7 C 13,9 C 20,9 km/h (4 Bft) 100,00 %
20.06.2019 06:18 17,3 C 24,4 C 16,7 C 81 % 1010,4 hPa 0,0 l/m 14,8 km/h (3 Bft) W-SW 244 2 min 0,000 mm 0,0 UV-I 119 W/m 14,0 C 14,0 C 20,9 km/h (4 Bft) 100,00 %
20.06.2019 06:20 17,3 C 24,4 C 16,7 C 80 % 1010,5 hPa 0,0 l/m 14,7 km/h (3 Bft) SW 234 2 min 0,000 mm 0,0 UV-I 124 W/m 13,8 C 14,1 C 19,3 km/h (3 Bft) 100,00 %
20.06.2019 06:22 17,4 C 24,4 C 16,7 C 80 % 1010,5 hPa 0,0 l/m 14,7 km/h (3 Bft) W-SW 246 2 min 0,000 mm 0,0 UV-I 129 W/m 13,9 C 14,2 C 22,5 km/h (4 Bft) 100,00 %
20.06.2019 06:24 17,5 C 24,4 C 16,7 C 80 % 1010,5 hPa 0,0 l/m 13,8 km/h (3 Bft) W-SW 249 2 min 0,000 mm 0,0 UV-I 128 W/m 14,0 C 14,6 C 20,9 km/h (4 Bft) 100,00 %
20.06.2019 06:26 17,6 C 24,4 C 16,7 C 80 % 1010,5 hPa 0,0 l/m 15,3 km/h (3 Bft) SW 228 2 min 0,000 mm 0,0 UV-I 134 W/m 14,1 C 14,3 C 19,3 km/h (3 Bft) 100,00 %
20.06.2019 06:28 17,6 C 24,4 C 17,2 C 79 % 1010,5 hPa 0,0 l/m 15,7 km/h (3 Bft) W-SW 252 2 min 0,000 mm 0,0 UV-I 141 W/m 13,9 C 14,1 C 22,5 km/h (4 Bft) 100,00 %
20.06.2019 06:30 17,7 C 24,4 C 17,2 C 79 % 1010,6 hPa 0,0 l/m 13,2 km/h (3 Bft) SW 236 2 min 0,000 mm 0,0 UV-I 146 W/m 14,0 C 15,0 C 19,3 km/h (3 Bft) 100,00 %
20.06.2019 06:32 17,8 C 24,4 C 17,2 C 78 % 1010,6 hPa 0,0 l/m 13,0 km/h (3 Bft) W-SW 250 2 min 0,000 mm 0,0 UV-I 151 W/m 13,9 C 15,2 C 19,3 km/h (3 Bft) 98,00 %
20.06.2019 06:34 18,0 C 24,4 C 17,2 C 77 % 1010,6 hPa 0,0 l/m 12,7 km/h (3 Bft) SW 222 2 min 0,000 mm 0,0 UV-I 155 W/m 13,9 C 15,5 C 17,7 km/h (3 Bft) 100,00 %
20.06.2019 06:36 18,2 C 24,4 C 17,8 C 77 % 1010,6 hPa 0,0 l/m 12,6 km/h (3 Bft) SW 217 2 min 0,000 mm 0,0 UV-I 159 W/m 14,1 C 15,8 C 20,9 km/h (4 Bft) 98,00 %
20.06.2019 06:38 18,3 C 24,4 C 17,8 C 76 % 1010,6 hPa 0,0 l/m 13,4 km/h (3 Bft) S-SW 207 2 min 0,000 mm 0,0 UV-I 165 W/m 14,0 C 15,6 C 20,9 km/h (4 Bft) 97,44 %
20.06.2019 06:40 18,4 C 24,4 C 17,8 C 75 % 1010,7 hPa 0,0 l/m 13,2 km/h (3 Bft) S-SW 209 2 min 0,000 mm 0,0 UV-I 171 W/m 13,9 C 15,8 C 20,9 km/h (4 Bft) 96,15 %
20.06.2019 06:42 18,6 C 24,4 C 17,8 C 75 % 1010,7 hPa 0,0 l/m 15,4 km/h (3 Bft) W-SW 244 2 min 0,000 mm 0,0 UV-I 175 W/m 14,1 C 15,4 C 24,1 km/h (4 Bft) 97,78 %
20.06.2019 06:44 18,8 C 24,4 C 18,3 C 74 % 1010,7 hPa 0,0 l/m 11,3 km/h (2 Bft) W-SW 237 2 min 0,000 mm 0,0 UV-I 180 W/m 14,1 C 16,9 C 16,1 km/h (3 Bft) 97,73 %
20.06.2019 06:46 18,9 C 24,4 C 18,3 C 74 % 1010,7 hPa 0,0 l/m 13,6 km/h (3 Bft) SW 226 2 min 0,000 mm 0,0 UV-I 185 W/m 14,2 C 16,3 C 20,9 km/h (4 Bft) 96,00 %
20.06.2019 06:48 19,0 C 24,4 C 18,3 C 73 % 1010,8 hPa 0,0 l/m 11,5 km/h (2 Bft) S-SW 212 2 min 0,000 mm 0,0 UV-I 190 W/m 14,0 C 17,0 C 17,7 km/h (3 Bft) 97,87 %
20.06.2019 06:50 19,2 C 24,4 C 18,3 C 73 % 1010,8 hPa 0,0 l/m 12,7 km/h (3 Bft) W-SW 252 2 min 0,000 mm 0,0 UV-I 195 W/m 14,2 C 16,9 C 19,3 km/h (3 Bft) 97,87 %
20.06.2019 06:52 19,2 C 24,4 C 18,9 C 72 % 1010,8 hPa 0,0 l/m 13,1 km/h (3 Bft) SW 221 2 min 0,000 mm 0,0 UV-I 200 W/m 14,0 C 16,8 C 19,3 km/h (3 Bft) 98,00 %
20.06.2019 06:54 19,3 C 24,4 C 18,9 C 72 % 1010,8 hPa 0,0 l/m 13,2 km/h (3 Bft) W-SW 244 2 min 0,000 mm 0,0 UV-I 206 W/m 14,1 C 16,9 C 20,9 km/h (4 Bft) 97,56 %
20.06.2019 06:56 19,4 C 24,4 C 18,9 C 72 % 1010,8 hPa 0,0 l/m 14,3 km/h (3 Bft) SW 236 2 min 0,000 mm 0,0 UV-I 211 W/m 14,2 C 16,7 C 20,9 km/h (4 Bft) 96,00 %
20.06.2019 06:58 19,4 C 24,4 C 18,9 C 72 % 1010,8 hPa 0,0 l/m 12,4 km/h (3 Bft) W 259 2 min 0,000 mm 0,0 UV-I 218 W/m 14,2 C 17,2 C 17,7 km/h (3 Bft) 98,00 %
20.06.2019 07:00 19,5 C 24,4 C 18,9 C 72 % 1010,8 hPa 0,0 l/m 13,9 km/h (3 Bft) W 263 2 min 0,000 mm 0,0 UV-I 222 W/m 14,3 C 16,9 C 24,1 km/h (4 Bft) 97,37 %
20.06.2019 07:02 19,6 C 24,4 C 18,9 C 71 % 1010,8 hPa 0,0 l/m 12,9 km/h (3 Bft) SW 227 2 min 0,127 mm 0,0 UV-I 227 W/m 14,2 C 17,3 C 20,9 km/h (4 Bft) 97,73 %
20.06.2019 07:04 19,7 C 24,4 C 19,4 C 71 % 1010,8 hPa 0,0 l/m 10,1 km/h (2 Bft) SW 229 2 min 0,000 mm 0,0 UV-I 233 W/m 14,3 C 18,3 C 19,3 km/h (3 Bft) 96,00 %
20.06.2019 07:06 19,8 C 24,4 C 19,4 C 71 % 1010,8 hPa 0,0 l/m 13,4 km/h (3 Bft) W-SW 238 2 min 0,000 mm 0,0 UV-I 239 W/m 14,4 C 17,4 C 24,1 km/h (4 Bft) 97,87 %
20.06.2019 07:08 19,9 C 24,4 C 19,4 C 71 % 1010,9 hPa 0,0 l/m 14,8 km/h (3 Bft) W-SW 243 2 min 0,000 mm 0,0 UV-I 244 W/m 14,5 C 17,2 C 19,3 km/h (3 Bft) 93,18 %
20.06.2019 07:10 19,9 C 24,4 C 19,4 C 70 % 1010,9 hPa 0,0 l/m 15,4 km/h (3 Bft) W-SW 242 2 min 0,000 mm 0,4 UV-I 249 W/m 14,3 C 17,0 C 24,1 km/h (4 Bft) 98,15 %
20.06.2019 07:12 20,1 C 24,4 C 19,4 C 69 % 1010,9 hPa 0,0 l/m 15,7 km/h (3 Bft) SW 232 2 min 0,000 mm 0,5 UV-I 255 W/m 14,2 C 17,2 C 22,5 km/h (4 Bft) 95,12 %
20.06.2019 07:14 20,2 C 24,4 C 20,0 C 70 % 1010,9 hPa 0,0 l/m 15,5 km/h (3 Bft) SW 229 2 min 0,000 mm 0,5 UV-I 260 W/m 14,5 C 17,4 C 24,1 km/h (4 Bft) 96,23 %
20.06.2019 07:16 20,2 C 24,4 C 20,0 C 70 % 1010,9 hPa 0,0 l/m 14,2 km/h (3 Bft) W-SW 243 2 min 0,000 mm 0,5 UV-I 266 W/m 14,5 C 17,7 C 19,3 km/h (3 Bft) 97,87 %
20.06.2019 07:18 20,3 C 24,4 C 20,0 C 70 % 1010,9 hPa 0,0 l/m 13,6 km/h (3 Bft) W 262 2 min 0,000 mm 0,5 UV-I 271 W/m 14,6 C 18,0 C 22,5 km/h (4 Bft) 97,62 %
20.06.2019 07:20 20,3 C 24,4 C 20,0 C 68 % 1010,9 hPa 0,0 l/m 16,1 km/h (3 Bft) W-SW 242 2 min 0,000 mm 0,5 UV-I 278 W/m 14,2 C 17,4 C 22,5 km/h (4 Bft) 97,87 %
20.06.2019 07:22 20,4 C 24,4 C 20,0 C 68 % 1010,9 hPa 0,0 l/m 17,6 km/h (3 Bft) SW 229 2 min 0,000 mm 0,6 UV-I 285 W/m 14,3 C 17,2 C 22,5 km/h (4 Bft) 98,21 %
20.06.2019 07:24 20,6 C 24,4 C 20,0 C 68 % 1011,0 hPa 0,0 l/m 18,0 km/h (3 Bft) W 264 2 min 0,000 mm 0,6 UV-I 289 W/m 14,5 C 17,3 C 22,5 km/h (4 Bft) 97,87 %
20.06.2019 07:26 20,7 C 24,4 C 20,0 C 68 % 1010,9 hPa 0,0 l/m 12,3 km/h (3 Bft) SW 232 2 min 0,000 mm 0,6 UV-I 294 W/m 14,6 C 18,8 C 20,9 km/h (4 Bft) 97,37 %
20.06.2019 07:28 20,7 C 24,4 C 20,6 C 67 % 1011,0 hPa 0,0 l/m 13,6 km/h (3 Bft) W 272 2 min 0,000 mm 0,6 UV-I 304 W/m 14,3 C 18,4 C 19,3 km/h (3 Bft) 96,23 %
20.06.2019 07:30 20,8 C 24,4 C 20,6 C 67 % 1011,0 hPa 0,0 l/m 11,9 km/h (2 Bft) W-SW 252 2 min 0,000 mm 0,7 UV-I 311 W/m 14,4 C 19,0 C 16,1 km/h (3 Bft) 95,74 %
20.06.2019 07:32 20,8 C 24,4 C 20,6 C 67 % 1011,0 hPa 0,0 l/m 13,0 km/h (3 Bft) W 269 2 min 0,000 mm 0,7 UV-I 316 W/m 14,4 C 18,7 C 20,9 km/h (4 Bft) 97,87 %
20.06.2019 07:34 20,9 C 24,4 C 20,6 C 66 % 1011,0 hPa 0,0 l/m 15,2 km/h (3 Bft) SW 234 2 min 0,000 mm 0,7 UV-I 322 W/m 14,3 C 18,3 C 22,5 km/h (4 Bft) 100,00 %
20.06.2019 07:36 20,9 C 24,4 C 20,6 C 67 % 1011,0 hPa 0,0 l/m 13,8 km/h (3 Bft) SW 225 2 min 0,000 mm 0,7 UV-I 328 W/m 14,5 C 18,6 C 19,3 km/h (3 Bft) 100,00 %
20.06.2019 07:38 21,1 C 24,4 C 21,1 C 67 % 1011,0 hPa 0,0 l/m 10,6 km/h (2 Bft) W-SW 240 2 min 0,000 mm 0,7 UV-I 335 W/m 14,7 C 19,7 C 17,7 km/h (3 Bft) 100,00 %
20.06.2019 07:40 21,1 C 24,4 C 21,1 C 67 % 1011,0 hPa 0,0 l/m 13,3 km/h (3 Bft) W-SW 249 2 min 0,000 mm 0,8 UV-I 341 W/m 14,7 C 19,0 C 17,7 km/h (3 Bft) 100,00 %
20.06.2019 07:42 21,2 C 24,4 C 21,1 C 67 % 1011,0 hPa 0,0 l/m 14,0 km/h (3 Bft) S-SW 212 2 min 0,000 mm 0,8 UV-I 348 W/m 14,8 C 18,9 C 22,5 km/h (4 Bft) 100,00 %
20.06.2019 07:44 21,2 C 24,4 C 21,1 C 66 % 1011,1 hPa 0,0 l/m 13,5 km/h (3 Bft) W-SW 256 2 min 0,000 mm 0,8 UV-I 354 W/m 14,6 C 19,0 C 19,3 km/h (3 Bft) 100,00 %
20.06.2019 07:46 21,2 C 24,4 C 21,1 C 66 % 1011,1 hPa 0,0 l/m 13,3 km/h (3 Bft) SW 229 2 min 0,000 mm 0,8 UV-I 360 W/m 14,6 C 19,1 C 20,9 km/h (4 Bft) 100,00 %
20.06.2019 07:48 21,3 C 24,4 C 21,1 C 65 % 1011,1 hPa 0,0 l/m 16,4 km/h (3 Bft) W-SW 246 2 min 0,000 mm 0,9 UV-I 366 W/m 14,4 C 18,5 C 22,5 km/h (4 Bft) 97,87 %
20.06.2019 07:50 21,3 C 24,4 C 21,1 C 65 % 1011,0 hPa 0,0 l/m 13,8 km/h (3 Bft) W-SW 256 2 min 0,000 mm 0,9 UV-I 370 W/m 14,4 C 19,1 C 24,1 km/h (4 Bft) 100,00 %
20.06.2019 07:52 21,4 C 24,4 C 21,1 C 65 % 1011,0 hPa 0,0 l/m 13,2 km/h (3 Bft) SW 235 2 min 0,000 mm 0,9 UV-I 371 W/m 14,5 C 19,3 C 19,3 km/h (3 Bft) 100,00 %
20.06.2019 07:54 21,4 C 24,4 C 21,7 C 65 % 1011,0 hPa 0,0 l/m 11,9 km/h (2 Bft) W-SW 249 2 min 0,000 mm 0,9 UV-I 376 W/m 14,5 C 19,7 C 17,7 km/h (3 Bft) 100,00 %
20.06.2019 07:56 21,4 C 24,4 C 21,7 C 65 % 1011,1 hPa 0,0 l/m 13,2 km/h (3 Bft) W 265 2 min 0,000 mm 0,9 UV-I 375 W/m 14,5 C 19,3 C 17,7 km/h (3 Bft) 97,44 %
20.06.2019 07:58 21,5 C 24,4 C 21,7 C 65 % 1011,0 hPa 0,0 l/m 11,3 km/h (2 Bft) SW 215 2 min 0,000 mm 0,9 UV-I 372 W/m 14,6 C 19,9 C 16,1 km/h (3 Bft) 98,31 %
20.06.2019 08:00 21,6 C 24,4 C 21,7 C 65 % 1011,1 hPa 0,0 l/m 10,8 km/h (2 Bft) W-SW 238 2 min 0,000 mm 1,0 UV-I 367 W/m 14,7 C 20,2 C 19,3 km/h (3 Bft) 97,37 %
20.06.2019 08:02 21,6 C 24,4 C 21,7 C 65 % 1011,1 hPa 0,0 l/m 10,6 km/h (2 Bft) SW 222 2 min 0,254 mm 1,0 UV-I 371 W/m 14,7 C 20,2 C 20,9 km/h (4 Bft) 100,00 %
20.06.2019 08:04 21,6 C 24,4 C 21,7 C 64 % 1011,1 hPa 0,0 l/m 18,1 km/h (3 Bft) SW 234 2 min 0,000 mm 1,0 UV-I 354 W/m 14,5 C 18,6 C 24,1 km/h (4 Bft) 100,00 %
20.06.2019 08:06 21,6 C 24,4 C 21,7 C 64 % 1011,0 hPa 0,0 l/m 15,8 km/h (3 Bft) W 263 2 min 0,000 mm 1,0 UV-I 319 W/m 14,5 C 19,0 C 25,7 km/h (4 Bft) 100,00 %
20.06.2019 08:08 21,6 C 24,4 C 21,7 C 65 % 1011,0 hPa 0,0 l/m 17,4 km/h (3 Bft) W-SW 237 2 min 0,000 mm 1,0 UV-I 295 W/m 14,7 C 18,7 C 24,1 km/h (4 Bft) 100,00 %
20.06.2019 08:10 21,5 C 24,4 C 21,7 C 64 % 1011,0 hPa 0,0 l/m 15,5 km/h (3 Bft) W-SW 247 2 min 0,000 mm 1,1 UV-I 331 W/m 14,4 C 19,0 C 25,7 km/h (4 Bft) 100,00 %
20.06.2019 08:12 21,5 C 24,4 C 21,7 C 64 % 1011,0 hPa 0,0 l/m 19,6 km/h (3 Bft) W-SW 249 2 min 0,000 mm 1,1 UV-I 377 W/m 14,4 C 18,2 C 27,4 km/h (4 Bft) 95,45 %
20.06.2019 08:14 21,5 C 24,4 C 21,7 C 65 % 1011,0 hPa 0,0 l/m 15,7 km/h (3 Bft) S 186 2 min 0,000 mm 1,2 UV-I 409 W/m 14,6 C 18,9 C 24,1 km/h (4 Bft) 100,00 %
20.06.2019 08:16 21,6 C 24,4 C 21,7 C 64 % 1011,0 hPa 0,0 l/m 15,0 km/h (3 Bft) SW 221 2 min 0,000 mm 1,2 UV-I 434 W/m 14,5 C 19,2 C 27,4 km/h (4 Bft) 100,00 %
20.06.2019 08:18 21,7 C 24,4 C 22,2 C 64 % 1011,0 hPa 0,0 l/m 19,4 km/h (3 Bft) SW 232 2 min 0,000 mm 1,2 UV-I 430 W/m 14,6 C 18,5 C 29,0 km/h (5 Bft) 100,00 %
20.06.2019 08:20 21,8 C 24,4 C 22,2 C 65 % 1011,0 hPa 0,0 l/m 12,9 km/h (3 Bft) W-SW 242 2 min 0,000 mm 1,3 UV-I 436 W/m 14,9 C 19,9 C 19,3 km/h (3 Bft) 100,00 %
20.06.2019 08:22 21,8 C 24,4 C 22,2 C 63 % 1011,1 hPa 0,0 l/m 18,8 km/h (3 Bft) W-SW 250 2 min 0,000 mm 1,3 UV-I 447 W/m 14,4 C 18,7 C 27,4 km/h (4 Bft) 100,00 %
20.06.2019 08:24 21,8 C 24,4 C 22,8 C 64 % 1011,1 hPa 0,0 l/m 17,1 km/h (3 Bft) W-SW 248 2 min 0,000 mm 1,3 UV-I 460 W/m 14,7 C 19,0 C 25,7 km/h (4 Bft) 100,00 %
20.06.2019 08:26 21,9 C 24,4 C 22,8 C 64 % 1011,0 hPa 0,0 l/m 16,9 km/h (3 Bft) SW 231 2 min 0,000 mm 1,4 UV-I 472 W/m 14,8 C 19,2 C 29,0 km/h (5 Bft) 100,00 %
20.06.2019 08:28 22,0 C 24,4 C 22,8 C 63 % 1011,0 hPa 0,0 l/m 17,1 km/h (3 Bft) SW 224 2 min 0,000 mm 1,4 UV-I 481 W/m 14,6 C 19,3 C 24,1 km/h (4 Bft) 100,00 %
20.06.2019 08:30 22,0 C 24,4 C 22,8 C 63 % 1011,0 hPa 0,0 l/m 16,8 km/h (3 Bft) S-SW 196 2 min 0,000 mm 1,4 UV-I 482 W/m 14,6 C 19,3 C 24,1 km/h (4 Bft) 97,87 %
20.06.2019 08:32 22,1 C 24,4 C 23,3 C 63 % 1011,0 hPa 0,0 l/m 15,8 km/h (3 Bft) W 262 2 min 0,000 mm 1,4 UV-I 470 W/m 14,7 C 19,6 C 25,7 km/h (4 Bft) 95,12 %
20.06.2019 08:34 22,1 C 24,4 C 23,9 C 63 % 1011,0 hPa 0,0 l/m 17,1 km/h (3 Bft) SW 216 2 min 0,000 mm 1,5 UV-I 453 W/m 14,7 C 19,4 C 25,7 km/h (4 Bft) 94,34 %
20.06.2019 08:36 22,2 C 24,4 C 24,4 C 63 % 1011,0 hPa 0,0 l/m 13,6 km/h (3 Bft) W 263 2 min 0,000 mm 1,5 UV-I 499 W/m 14,8 C 20,2 C 25,7 km/h (4 Bft) 95,24 %
20.06.2019 08:38 22,3 C 24,4 C 25,0 C 63 % 1010,9 hPa 0,0 l/m 12,4 km/h (3 Bft) W 259 2 min 0,000 mm 1,5 UV-I 465 W/m 14,9 C 20,6 C 20,9 km/h (4 Bft) 94,00 %
20.06.2019 08:40 22,3 C 24,4 C 25,0 C 63 % 1011,0 hPa 0,0 l/m 13,4 km/h (3 Bft) SW 219 2 min 0,000 mm 1,4 UV-I 365 W/m 14,9 C 20,4 C 22,5 km/h (4 Bft) 87,80 %
20.06.2019 08:42 22,3 C 24,4 C 25,6 C 62 % 1011,0 hPa 0,0 l/m 19,4 km/h (3 Bft) SW 219 2 min 0,000 mm 1,5 UV-I 318 W/m 14,7 C 19,3 C 25,7 km/h (4 Bft) 94,00 %
20.06.2019 08:44 22,3 C 24,4 C 26,7 C 62 % 1011,0 hPa 0,0 l/m 19,0 km/h (3 Bft) SW 232 2 min 0,000 mm 1,6 UV-I 499 W/m 14,7 C 19,3 C 29,0 km/h (5 Bft) 93,62 %
20.06.2019 08:46 22,3 C 24,4 C 27,8 C 62 % 1011,0 hPa 0,0 l/m 18,4 km/h (3 Bft) S-SW 210 2 min 0,000 mm 1,7 UV-I 545 W/m 14,7 C 19,4 C 27,4 km/h (4 Bft) 93,62 %
20.06.2019 08:49 22,5 C 24,4 C 29,4 C 62 % 1011,0 hPa 0,0 l/m 14,1 km/h (3 Bft) W-SW 257 3 min 0,000 mm 1,8 UV-I 551 W/m 14,8 C 20,5 C 25,7 km/h (4 Bft) 91,04 %
20.06.2019 08:50 22,6 C 24,4 C 30,0 C 63 % 1011,0 hPa 0,0 l/m 19,8 km/h (3 Bft) W-SW 246 1 min 0,000 mm 1,8 UV-I 557 W/m 15,2 C 19,6 C 24,1 km/h (4 Bft) 95,83 %
20.06.2019 08:52 22,7 C 24,4 C 30,6 C 62 % 1011,0 hPa 0,0 l/m 17,6 km/h (3 Bft) S-SW 198 2 min 0,000 mm 1,8 UV-I 559 W/m 15,0 C 20,1 C 27,4 km/h (4 Bft) 92,11 %
20.06.2019 08:54 22,7 C 24,4 C 30,6 C 61 % 1011,0 hPa 0,0 l/m 16,4 km/h (3 Bft) SW 223 2 min 0,000 mm 1,9 UV-I 563 W/m 14,8 C 20,3 C 25,7 km/h (4 Bft) 91,80 %
20.06.2019 08:56 22,8 C 24,4 C 31,1 C 61 % 1011,0 hPa 0,0 l/m 14,4 km/h (3 Bft) W-SW 245 2 min 0,000 mm 1,9 UV-I 556 W/m 14,9 C 20,8 C 24,1 km/h (4 Bft) 92,11 %
20.06.2019 08:58 22,8 C 24,4 C 31,1 C 61 % 1011,0 hPa 0,0 l/m 18,9 km/h (3 Bft) W-SW 238 2 min 0,000 mm 1,9 UV-I 563 W/m 14,9 C 20,0 C 25,7 km/h (4 Bft) 94,34 %
20.06.2019 09:00 22,8 C 24,4 C 30,6 C 60 % 1011,0 hPa 0,0 l/m 16,6 km/h (3 Bft) SW 224 2 min 0,355 mm 2,0 UV-I 573 W/m 14,6 C 20,4 C 24,1 km/h (4 Bft) 92,00 %
20.06.2019 09:02 22,8 C 24,4 C 31,7 C 61 % 1010,9 hPa 0,0 l/m 18,0 km/h (3 Bft) W-SW 246 2 min 0,000 mm 2,0 UV-I 580 W/m 14,9 C 20,1 C 25,7 km/h (4 Bft) 93,62 %
20.06.2019 09:04 22,9 C 24,4 C 31,1 C 59 % 1010,9 hPa 0,0 l/m 15,8 km/h (3 Bft) S-SW 213 2 min 0,000 mm 2,1 UV-I 586 W/m 14,5 C 20,6 C 24,1 km/h (4 Bft) 95,74 %
20.06.2019 09:06 22,9 C 24,4 C 31,1 C 60 % 1010,9 hPa 0,0 l/m 12,6 km/h (3 Bft) W-SW 250 2 min 0,000 mm 2,1 UV-I 577 W/m 14,7 C 21,2 C 19,3 km/h (3 Bft) 97,56 %
20.06.2019 09:08 23,0 C 24,4 C 32,2 C 61 % 1011,0 hPa 0,0 l/m 17,5 km/h (3 Bft) SW 215 2 min 0,000 mm 2,1 UV-I 593 W/m 15,1 C 20,5 C 29,0 km/h (5 Bft) 96,23 %
20.06.2019 09:10 23,1 C 24,4 C 32,2 C 60 % 1010,9 hPa 0,0 l/m 13,4 km/h (3 Bft) W-SW 246 2 min 0,000 mm 2,2 UV-I 563 W/m 14,9 C 21,3 C 20,9 km/h (4 Bft) 97,56 %
20.06.2019 09:12 23,0 C 24,4 C 31,1 C 60 % 1011,0 hPa 0,0 l/m 16,1 km/h (3 Bft) SW 219 2 min 0,000 mm 2,1 UV-I 534 W/m 14,8 C 20,7 C 25,7 km/h (4 Bft) 94,00 %
20.06.2019 09:14 23,1 C 24,4 C 31,7 C 61 % 1010,9 hPa 0,0 l/m 11,1 km/h (2 Bft) SW 231 2 min 0,000 mm 2,2 UV-I 580 W/m 15,2 C 21,8 C 17,7 km/h (3 Bft) 97,92 %
20.06.2019 09:16 23,2 C 24,4 C 32,8 C 61 % 1010,9 hPa 0,0 l/m 10,7 km/h (2 Bft) SW 227 2 min 0,000 mm 2,2 UV-I 562 W/m 15,3 C 22,0 C 22,5 km/h (4 Bft) 97,56 %
20.06.2019 09:18 23,3 C 24,4 C 32,8 C 60 % 1011,0 hPa 0,0 l/m 16,0 km/h (3 Bft) W-SW 244 2 min 0,000 mm 2,3 UV-I 625 W/m 15,1 C 21,1 C 24,1 km/h (4 Bft) 97,87 %
20.06.2019 09:20 23,3 C 24,4 C 33,3 C 59 % 1010,9 hPa 0,0 l/m 15,1 km/h (3 Bft) W-SW 244 2 min 0,000 mm 2,3 UV-I 577 W/m 14,8 C 21,2 C 22,5 km/h (4 Bft) 98,21 %
20.06.2019 09:22 23,3 C 24,4 C 32,8 C 59 % 1011,0 hPa 0,0 l/m 16,2 km/h (3 Bft) W-SW 252 2 min 0,000 mm 2,4 UV-I 572 W/m 14,8 C 21,0 C 24,1 km/h (4 Bft) 97,37 %
20.06.2019 09:24 23,3 C 24,4 C 32,2 C 58 % 1011,0 hPa 0,0 l/m 15,9 km/h (3 Bft) SW 227 2 min 0,000 mm 2,4 UV-I 566 W/m 14,6 C 21,1 C 24,1 km/h (4 Bft) 94,74 %
20.06.2019 09:26 23,3 C 24,4 C 33,3 C 59 % 1011,0 hPa 0,0 l/m 15,1 km/h (3 Bft) W-SW 249 2 min 0,000 mm 2,5 UV-I 580 W/m 14,8 C 21,2 C 24,1 km/h (4 Bft) 98,11 %
20.06.2019 09:28 23,3 C 24,4 C 33,3 C 58 % 1010,9 hPa 0,0 l/m 16,1 km/h (3 Bft) SW 234 2 min 0,000 mm 2,5 UV-I 599 W/m 14,6 C 21,1 C 24,1 km/h (4 Bft) 97,87 %
20.06.2019 09:30 23,4 C 24,4 C 34,4 C 60 % 1010,9 hPa 0,0 l/m 12,6 km/h (3 Bft) S-SW 204 2 min 0,000 mm 2,6 UV-I 602 W/m 15,2 C 21,8 C 17,7 km/h (3 Bft) 98,21 %
20.06.2019 09:32 23,6 C 24,4 C 33,3 C 58 % 1010,9 hPa 0,0 l/m 17,3 km/h (3 Bft) W-SW 239 2 min 0,000 mm 2,6 UV-I 625 W/m 14,8 C 21,2 C 25,7 km/h (4 Bft) 97,56 %
20.06.2019 09:34 23,5 C 24,4 C 32,8 C 58 % 1010,9 hPa 0,0 l/m 20,9 km/h (4 Bft) W-SW 245 2 min 0,000 mm 2,7 UV-I 625 W/m 14,7 C 20,6 C 30,6 km/h (5 Bft) 96,30 %
20.06.2019 09:36 23,6 C 24,4 C 32,8 C 58 % 1011,0 hPa 0,0 l/m 17,3 km/h (3 Bft) SW 214 2 min 0,000 mm 2,8 UV-I 618 W/m 14,8 C 21,2 C 27,4 km/h (4 Bft) 95,52 %
20.06.2019 09:38 23,6 C 24,4 C 33,9 C 58 % 1011,0 hPa 0,0 l/m 13,1 km/h (3 Bft) W-SW 240 2 min 0,000 mm 2,8 UV-I 650 W/m 14,8 C 22,0 C 20,9 km/h (4 Bft) 96,00 %
20.06.2019 09:40 23,8 C 24,4 C 34,4 C 57 % 1011,0 hPa 0,0 l/m 11,5 km/h (2 Bft) SW 234 2 min 0,000 mm 2,9 UV-I 653 W/m 14,8 C 22,5 C 19,3 km/h (3 Bft) 95,12 %
20.06.2019 09:42 23,8 C 24,4 C 34,4 C 57 % 1010,9 hPa 0,0 l/m 18,8 km/h (3 Bft) SW 220 2 min 0,000 mm 2,9 UV-I 663 W/m 14,8 C 21,3 C 27,4 km/h (4 Bft) 97,87 %
20.06.2019 09:44 23,9 C 24,4 C 34,4 C 57 % 1010,9 hPa 0,0 l/m 11,1 km/h (2 Bft) W 268 2 min 0,000 mm 2,8 UV-I 661 W/m 14,9 C 22,7 C 20,9 km/h (4 Bft) 98,00 %
20.06.2019 09:46 24,0 C 24,4 C 33,9 C 56 % 1010,9 hPa 0,0 l/m 10,5 km/h (2 Bft) W 261 2 min 0,000 mm 2,8 UV-I 590 W/m 14,7 C 22,9 C 17,7 km/h (3 Bft) 98,11 %
20.06.2019 09:48 24,0 C 24,4 C 33,3 C 56 % 1010,9 hPa 0,0 l/m 12,7 km/h (3 Bft) S-SW 213 2 min 0,000 mm 2,7 UV-I 456 W/m 14,7 C 22,5 C 19,3 km/h (3 Bft) 97,44 %
20.06.2019 09:50 23,9 C 24,4 C 32,8 C 56 % 1010,9 hPa 0,0 l/m 16,6 km/h (3 Bft) W 280 2 min 0,000 mm 2,6 UV-I 504 W/m 14,6 C 21,7 C 22,5 km/h (4 Bft) 100,00 %
20.06.2019 09:52 23,9 C 24,4 C 32,2 C 56 % 1011,0 hPa 0,0 l/m 13,6 km/h (3 Bft) SW 221 2 min 0,000 mm 2,5 UV-I 534 W/m 14,6 C 22,2 C 20,9 km/h (4 Bft) 98,00 %
20.06.2019 09:54 23,9 C 25,0 C 33,3 C 56 % 1011,0 hPa 0,0 l/m 12,6 km/h (3 Bft) W-SW 247 2 min 0,000 mm 2,9 UV-I 549 W/m 14,6 C 22,4 C 19,3 km/h (3 Bft) 100,00 %
20.06.2019 09:56 24,2 C 25,0 C 35,0 C 57 % 1011,0 hPa 0,0 l/m 11,9 km/h (2 Bft) W-SW 238 2 min 0,000 mm 3,1 UV-I 673 W/m 15,1 C 22,9 C 17,7 km/h (3 Bft) 100,00 %
20.06.2019 09:58 24,3 C 25,0 C 35,6 C 56 % 1011,0 hPa 0,0 l/m 12,2 km/h (2 Bft) W 276 2 min 0,000 mm 3,1 UV-I 671 W/m 14,9 C 22,9 C 20,9 km/h (4 Bft) 100,00 %
20.06.2019 10:00 24,4 C 25,0 C 35,6 C 55 % 1011,0 hPa 0,0 l/m 16,8 km/h (3 Bft) W 266 2 min 0,458 mm 3,2 UV-I 675 W/m 14,8 C 22,3 C 25,7 km/h (4 Bft) 100,00 %
20.06.2019 10:02 24,3 C 25,0 C 35,6 C 56 % 1011,1 hPa 0,0 l/m 15,5 km/h (3 Bft) W-SW 254 2 min 0,000 mm 3,2 UV-I 676 W/m 14,9 C 22,4 C 24,1 km/h (4 Bft) 100,00 %
20.06.2019 10:04 24,2 C 25,0 C 35,6 C 55 % 1011,1 hPa 0,0 l/m 17,2 km/h (3 Bft) W-SW 252 2 min 0,000 mm 3,3 UV-I 608 W/m 14,6 C 22,0 C 22,5 km/h (4 Bft) 98,00 %
20.06.2019 10:06 24,2 C 25,0 C 35,0 C 54 % 1011,0 hPa 0,0 l/m 14,7 km/h (3 Bft) W 273 2 min 0,000 mm 3,3 UV-I 673 W/m 14,3 C 22,4 C 19,3 km/h (3 Bft) 100,00 %
20.06.2019 10:08 24,3 C 25,0 C 35,0 C 55 % 1011,1 hPa 0,0 l/m 13,2 km/h (3 Bft) W-SW 244 2 min 0,000 mm 3,4 UV-I 695 W/m 14,7 C 22,8 C 19,3 km/h (3 Bft) 100,00 %
20.06.2019 10:10 24,4 C 25,0 C 35,0 C 56 % 1011,1 hPa 0,0 l/m 16,6 km/h (3 Bft) W 275 2 min 0,000 mm 3,4 UV-I 719 W/m 15,0 C 22,3 C 20,9 km/h (4 Bft) 100,00 %
20.06.2019 10:12 24,4 C 25,0 C 35,6 C 56 % 1011,0 hPa 0,0 l/m 11,5 km/h (2 Bft) SW 220 2 min 0,000 mm 3,5 UV-I 729 W/m 15,0 C 23,2 C 17,7 km/h (3 Bft) 98,00 %
20.06.2019 10:14 24,7 C 25,0 C 36,1 C 56 % 1011,1 hPa 0,0 l/m 10,4 km/h (2 Bft) W-SW 243 2 min 0,000 mm 3,5 UV-I 721 W/m 15,3 C 23,7 C 16,1 km/h (3 Bft) 96,00 %
20.06.2019 10:16 24,7 C 25,0 C 36,1 C 54 % 1011,0 hPa 0,0 l/m 14,2 km/h (3 Bft) W-SW 241 2 min 0,000 mm 3,6 UV-I 731 W/m 14,8 C 23,1 C 20,9 km/h (4 Bft) 100,00 %
20.06.2019 10:18 24,6 C 25,0 C 36,1 C 54 % 1011,0 hPa 0,0 l/m 13,8 km/h (3 Bft) W-SW 252 2 min 0,000 mm 3,6 UV-I 739 W/m 14,7 C 23,0 C 20,9 km/h (4 Bft) 94,92 %
20.06.2019 10:20 24,7 C 25,0 C 36,7 C 55 % 1011,0 hPa 0,0 l/m 10,8 km/h (2 Bft) SW 221 2 min 0,000 mm 3,7 UV-I 743 W/m 15,0 C 23,7 C 19,3 km/h (3 Bft) 97,56 %
20.06.2019 10:22 24,8 C 25,0 C 37,2 C 54 % 1011,1 hPa 0,0 l/m 15,0 km/h (3 Bft) SW 221 2 min 0,000 mm 3,7 UV-I 746 W/m 14,8 C 23,1 C 22,5 km/h (4 Bft) 97,78 %
20.06.2019 10:24 24,8 C 25,0 C 37,2 C 54 % 1011,1 hPa 0,0 l/m 13,1 km/h (3 Bft) S-SW 201 2 min 0,000 mm 3,8 UV-I 760 W/m 14,8 C 23,4 C 17,7 km/h (3 Bft) 97,56 %
20.06.2019 10:26 24,8 C 25,0 C 36,7 C 54 % 1011,1 hPa 0,0 l/m 14,4 km/h (3 Bft) SW 234 2 min 0,000 mm 3,8 UV-I 767 W/m 14,8 C 23,2 C 20,9 km/h (4 Bft) 94,74 %
20.06.2019 10:28 24,9 C 25,0 C 36,7 C 53 % 1011,1 hPa 0,0 l/m 13,0 km/h (3 Bft) W 271 2 min 0,000 mm 3,9 UV-I 791 W/m 14,6 C 23,5 C 19,3 km/h (3 Bft) 92,31 %
20.06.2019 10:30 24,9 C 25,0 C 37,8 C 52 % 1011,1 hPa 0,0 l/m 4,9 km/h (1 Bft) W-SW 238 2 min 0,000 mm 3,8 UV-I 822 W/m 14,4 C 24,9 C 14,5 km/h (3 Bft) 97,22 %
20.06.2019 10:32 25,1 C 25,0 C 38,9 C 52 % 1011,0 hPa 0,0 l/m 8,0 km/h (2 Bft) W 261 2 min 0,000 mm 4,1 UV-I 834 W/m 14,5 C 24,7 C 14,5 km/h (3 Bft) 92,86 %
20.06.2019 10:34 25,2 C 25,0 C 40,0 C 53 % 1011,0 hPa 0,0 l/m 5,3 km/h (1 Bft) W 265 2 min 0,000 mm 4,2 UV-I 865 W/m 14,9 C 25,2 C 11,3 km/h (2 Bft) 95,45 %
20.06.2019 10:36 25,3 C 25,0 C 40,6 C 51 % 1011,0 hPa 0,0 l/m 6,4 km/h (2 Bft) NW 306 2 min 0,000 mm 4,3 UV-I 874 W/m 14,4 C 25,3 C 11,3 km/h (2 Bft) 94,74 %
20.06.2019 10:38 25,6 C 25,0 C 41,1 C 52 % 1011,0 hPa 0,0 l/m 7,5 km/h (2 Bft) W 271 2 min 0,000 mm 4,4 UV-I 889 W/m 15,0 C 25,3 C 16,1 km/h (3 Bft) 96,61 %
20.06.2019 10:40 25,7 C 25,0 C 40,6 C 52 % 1011,0 hPa 0,0 l/m 12,7 km/h (3 Bft) W 263 2 min 0,000 mm 4,4 UV-I 914 W/m 15,1 C 24,5 C 19,3 km/h (3 Bft) 97,56 %
20.06.2019 10:42 25,7 C 25,0 C 40,6 C 51 % 1011,0 hPa 0,0 l/m 10,7 km/h (2 Bft) W-SW 242 2 min 0,000 mm 4,5 UV-I 685 W/m 14,8 C 24,8 C 17,7 km/h (3 Bft) 97,87 %
20.06.2019 10:44 25,7 C 25,0 C 40,6 C 52 % 1011,0 hPa 0,0 l/m 10,9 km/h (2 Bft) S-SW 196 2 min 0,000 mm 4,5 UV-I 725 W/m 15,1 C 24,8 C 19,3 km/h (3 Bft) 98,00 %
20.06.2019 10:46 25,7 C 25,0 C 40,6 C 52 % 1011,0 hPa 0,0 l/m 14,6 km/h (3 Bft) S-SW 206 2 min 0,000 mm 4,4 UV-I 869 W/m 15,1 C 24,2 C 20,9 km/h (4 Bft) 97,56 %
20.06.2019 10:48 25,8 C 25,0 C 39,4 C 52 % 1011,1 hPa 0,0 l/m 17,1 km/h (3 Bft) W-SW 250 2 min 0,000 mm 4,4 UV-I 853 W/m 15,2 C 24,0 C 25,7 km/h (4 Bft) 94,00 %
20.06.2019 10:50 25,7 C 25,0 C 38,9 C 51 % 1011,0 hPa 0,0 l/m 13,4 km/h (3 Bft) S-SW 201 2 min 0,000 mm 4,5 UV-I 857 W/m 14,8 C 24,4 C 20,9 km/h (4 Bft) 98,00 %
20.06.2019 10:52 25,9 C 25,0 C 40,6 C 52 % 1011,0 hPa 0,0 l/m 4,6 km/h (1 Bft) SW 215 2 min 0,000 mm 4,5 UV-I 854 W/m 15,3 C 25,9 C 9,7 km/h (2 Bft) 100,00 %
20.06.2019 10:54 25,9 C 25,0 C 40,6 C 51 % 1011,0 hPa 0,0 l/m 5,4 km/h (1 Bft) SW 227 2 min 0,000 mm 4,5 UV-I 846 W/m 15,0 C 25,9 C 11,3 km/h (2 Bft) 96,23 %
20.06.2019 10:56 26,1 C 25,0 C 40,0 C 52 % 1011,0 hPa 0,0 l/m 7,5 km/h (2 Bft) NW 313 2 min 0,000 mm 4,5 UV-I 838 W/m 15,5 C 25,9 C 14,5 km/h (3 Bft) 97,56 %
20.06.2019 10:58 26,1 C 25,0 C 41,7 C 52 % 1011,0 hPa 0,0 l/m 6,7 km/h (2 Bft) W-SW 256 2 min 0,000 mm 4,5 UV-I 819 W/m 15,5 C 26,0 C 11,3 km/h (2 Bft) 100,00 %
20.06.2019 11:00 26,1 C 25,0 C 40,6 C 51 % 1011,0 hPa 0,0 l/m 9,7 km/h (2 Bft) W-SW 250 2 min 0,558 mm 4,5 UV-I 769 W/m 15,2 C 25,4 C 14,5 km/h (3 Bft) 98,11 %
20.06.2019 11:02 26,1 C 25,0 C 40,0 C 50 % 1011,0 hPa 0,0 l/m 11,6 km/h (2 Bft) S-SW 198 2 min 0,000 mm 4,5 UV-I 794 W/m 14,8 C 25,1 C 20,9 km/h (4 Bft) 100,00 %
20.06.2019 11:04 26,0 C 25,0 C 40,0 C 51 % 1011,0 hPa 0,0 l/m 9,7 km/h (2 Bft) W 266 2 min 0,000 mm 4,5 UV-I 787 W/m 15,1 C 25,3 C 16,1 km/h (3 Bft) 100,00 %
20.06.2019 11:06 26,2 C 25,0 C 40,6 C 52 % 1011,0 hPa 0,0 l/m 10,4 km/h (2 Bft) W 275 2 min 0,000 mm 4,6 UV-I 790 W/m 15,6 C 25,4 C 16,1 km/h (3 Bft) 98,11 %
20.06.2019 11:08 26,2 C 25,0 C 39,4 C 50 % 1011,0 hPa 0,0 l/m 13,1 km/h (3 Bft) W-SW 245 2 min 0,000 mm 4,6 UV-I 765 W/m 14,9 C 25,0 C 17,7 km/h (3 Bft) 100,00 %
20.06.2019 11:10 26,1 C 25,0 C 38,9 C 50 % 1011,0 hPa 0,0 l/m 10,3 km/h (2 Bft) SW 215 2 min 0,000 mm 4,6 UV-I 819 W/m 14,8 C 25,3 C 16,1 km/h (3 Bft) 100,00 %
20.06.2019 11:12 25,9 C 25,0 C 38,3 C 49 % 1011,0 hPa 0,0 l/m 13,6 km/h (3 Bft) SW 233 2 min 0,000 mm 4,7 UV-I 767 W/m 14,4 C 24,6 C 17,7 km/h (3 Bft) 100,00 %
20.06.2019 11:14 25,9 C 25,0 C 38,3 C 50 % 1011,0 hPa 0,0 l/m 12,0 km/h (2 Bft) W 267 2 min 0,000 mm 4,7 UV-I 810 W/m 14,7 C 24,8 C 19,3 km/h (3 Bft) 100,00 %
20.06.2019 11:16 26,1 C 25,0 C 38,3 C 50 % 1011,0 hPa 0,0 l/m 9,8 km/h (2 Bft) SW 236 2 min 0,000 mm 4,8 UV-I 842 W/m 14,8 C 25,4 C 16,1 km/h (3 Bft) 100,00 %
20.06.2019 11:18 26,1 C 25,0 C 39,4 C 51 % 1011,0 hPa 0,0 l/m 7,2 km/h (2 Bft) W-SW 255 2 min 0,000 mm 3,6 UV-I 822 W/m 15,2 C 25,9 C 11,3 km/h (2 Bft) 100,00 %
20.06.2019 11:20 26,1 C 25,0 C 40,6 C 51 % 1011,0 hPa 0,0 l/m 7,1 km/h (2 Bft) SW 217 2 min 0,000 mm 4,9 UV-I 855 W/m 15,2 C 25,9 C 12,9 km/h (3 Bft) 100,00 %
20.06.2019 11:22 26,2 C 25,0 C 41,7 C 50 % 1011,0 hPa 0,0 l/m 5,4 km/h (1 Bft) SW 236 2 min 0,000 mm 4,9 UV-I 848 W/m 14,9 C 26,2 C 9,7 km/h (2 Bft) 100,00 %
20.06.2019 11:24 26,3 C 25,0 C 42,2 C 52 % 1011,0 hPa 0,0 l/m 8,3 km/h (2 Bft) SW 223 2 min 0,000 mm 4,5 UV-I 857 W/m 15,6 C 25,9 C 12,9 km/h (3 Bft) 100,00 %
20.06.2019 11:26 26,4 C 25,0 C 42,2 C 51 % 1011,0 hPa 0,0 l/m 11,1 km/h (2 Bft) W-SW 246 2 min 0,000 mm 5,0 UV-I 861 W/m 15,4 C 25,5 C 16,1 km/h (3 Bft) 100,00 %
20.06.2019 11:28 26,5 C 25,0 C 40,6 C 48 % 1011,1 hPa 0,0 l/m 12,9 km/h (3 Bft) W 271 2 min 0,000 mm 5,0 UV-I 864 W/m 14,6 C 25,4 C 19,3 km/h (3 Bft) 100,00 %
20.06.2019 11:30 26,4 C 25,0 C 40,0 C 48 % 1011,2 hPa 0,0 l/m 15,5 km/h (3 Bft) W-NW 283 2 min 0,000 mm 5,0 UV-I 837 W/m 14,5 C 24,9 C 22,5 km/h (4 Bft) 100,00 %
20.06.2019 11:32 26,2 C 25,0 C 40,0 C 50 % 1011,1 hPa 0,0 l/m 9,1 km/h (2 Bft) W-NW 284 2 min 0,000 mm 5,1 UV-I 868 W/m 14,9 C 25,6 C 14,5 km/h (3 Bft) 97,73 %
20.06.2019 11:34 26,2 C 25,0 C 40,0 C 49 % 1011,1 hPa 0,0 l/m 6,8 km/h (2 Bft) S-SW 205 2 min 0,000 mm 5,1 UV-I 883 W/m 14,6 C 26,1 C 12,9 km/h (3 Bft) 100,00 %
20.06.2019 11:36 26,1 C 25,0 C 39,4 C 49 % 1011,1 hPa 0,0 l/m 11,0 km/h (2 Bft) W-SW 245 2 min 0,000 mm 5,1 UV-I 893 W/m 14,5 C 25,2 C 19,3 km/h (3 Bft) 100,00 %
20.06.2019 11:38 26,2 C 25,0 C 40,0 C 51 % 1011,1 hPa 0,0 l/m 13,2 km/h (3 Bft) S-SW 202 2 min 0,000 mm 5,0 UV-I 894 W/m 15,2 C 25,0 C 17,7 km/h (3 Bft) 100,00 %
20.06.2019 11:40 26,3 C 25,0 C 40,0 C 49 % 1011,1 hPa 0,0 l/m 7,4 km/h (2 Bft) S-SW 213 2 min 0,000 mm 4,8 UV-I 838 W/m 14,7 C 26,1 C 14,5 km/h (3 Bft) 100,00 %
20.06.2019 11:42 26,2 C 25,0 C 38,3 C 50 % 1011,1 hPa 0,0 l/m 10,4 km/h (2 Bft) W-SW 242 2 min 0,000 mm 4,6 UV-I 853 W/m 14,9 C 25,4 C 22,5 km/h (4 Bft) 100,00 %
20.06.2019 11:44 26,4 C 25,0 C 38,3 C 51 % 1011,1 hPa 0,0 l/m 10,3 km/h (2 Bft) W-NW 298 2 min 0,000 mm 4,8 UV-I 853 W/m 15,4 C 25,7 C 17,7 km/h (3 Bft) 100,00 %
20.06.2019 11:46 26,4 C 25,0 C 39,4 C 49 % 1011,1 hPa 0,0 l/m 8,8 km/h (2 Bft) W 261 2 min 0,000 mm 5,2 UV-I 975 W/m 14,8 C 25,9 C 16,1 km/h (3 Bft) 100,00 %
20.06.2019 11:48 26,4 C 25,0 C 41,1 C 51 % 1011,1 hPa 0,0 l/m 3,4 km/h (1 Bft) NO 36 2 min 0,000 mm 5,1 UV-I 962 W/m 15,4 C 26,4 C 6,4 km/h (2 Bft) 96,00 %
20.06.2019 11:50 26,3 C 25,0 C 40,0 C 54 % 1011,1 hPa 0,0 l/m 5,5 km/h (1 Bft) W 270 2 min 0,000 mm 4,5 UV-I 947 W/m 16,2 C 26,3 C 14,5 km/h (3 Bft) 98,00 %
20.06.2019 11:52 26,4 C 25,0 C 39,4 C 50 % 1011,1 hPa 0,0 l/m 11,0 km/h (2 Bft) W 279 2 min 0,000 mm 4,7 UV-I 787 W/m 15,1 C 25,5 C 17,7 km/h (3 Bft) 97,37 %
20.06.2019 11:54 26,3 C 25,0 C 39,4 C 50 % 1011,1 hPa 0,0 l/m 11,6 km/h (2 Bft) W-SW 245 2 min 0,000 mm 5,2 UV-I 905 W/m 15,0 C 25,3 C 16,1 km/h (3 Bft) 96,00 %
20.06.2019 11:56 26,3 C 25,0 C 37,2 C 50 % 1011,2 hPa 0,0 l/m 11,7 km/h (2 Bft) SW 229 2 min 0,000 mm 4,5 UV-I 977 W/m 15,0 C 25,3 C 16,1 km/h (3 Bft) 96,00 %
20.06.2019 11:58 26,2 C 25,0 C 35,6 C 50 % 1011,2 hPa 0,0 l/m 7,9 km/h (2 Bft) W-SW 256 0 min 0,000 mm 3,7 UV-I 395 W/m 14,9 C 25,9 C 12,9 km/h (3 Bft) 96,15 %
20.06.2019 12:00 26,1 C 25,0 C 36,7 C 49 % 1011,1 hPa 0,0 l/m 3,7 km/h (1 Bft) W-SW 251 0 min 0,000 mm 4,5 UV-I 369 W/m 14,5 C 26,1 C 6,4 km/h (2 Bft) 98,46 %
20.06.2019 12:02 26,1 C 25,0 C 39,4 C 53 % 1011,1 hPa 0,0 l/m 5,6 km/h (1 Bft) SW 226 0 min 0,585 mm 5,2 UV-I 369 W/m 15,8 C 26,1 C 8,0 km/h (2 Bft) 97,56 %
20.06.2019 12:04 26,6 C 25,0 C 42,2 C 51 % 1011,1 hPa 0,0 l/m 7,7 km/h (2 Bft) W 261 2 min 0,000 mm 5,4 UV-I 1077 W/m 15,6 C 26,3 C 14,5 km/h (3 Bft) 97,73 %
20.06.2019 12:06 26,7 C 25,0 C 41,1 C 49 % 1011,1 hPa 0,0 l/m 4,9 km/h (1 Bft) N 355 2 min 0,000 mm 4,5 UV-I 1111 W/m 15,1 C 26,7 C 9,7 km/h (2 Bft) 98,11 %
20.06.2019 12:08 26,7 C 25,0 C 41,1 C 50 % 1011,1 hPa 0,0 l/m 7,8 km/h (2 Bft) W 261 2 min 0,000 mm 4,9 UV-I 1083 W/m 15,4 C 26,4 C 12,9 km/h (3 Bft) 94,64 %
20.06.2019 12:10 26,7 C 25,0 C 40,0 C 51 % 1011,2 hPa 0,0 l/m 9,7 km/h (2 Bft) W-SW 248 2 min 0,000 mm 4,4 UV-I 1056 W/m 15,7 C 26,1 C 17,7 km/h (3 Bft) 100,00 %
20.06.2019 12:12 26,7 C 25,0 C 37,2 C 48 % 1011,1 hPa 0,0 l/m 13,0 km/h (3 Bft) W 271 2 min 0,000 mm 3,5 UV-I 644 W/m 14,8 C 25,6 C 17,7 km/h (3 Bft) 94,00 %
20.06.2019 12:14 26,4 C 25,0 C 35,6 C 49 % 1011,1 hPa 0,0 l/m 8,1 km/h (2 Bft) W-SW 250 0 min 0,000 mm 3,5 UV-I 465 W/m 14,8 C 26,1 C 12,9 km/h (3 Bft) 97,87 %
20.06.2019 12:16 26,3 C 25,0 C 36,1 C 51 % 1011,1 hPa 0,0 l/m 6,3 km/h (2 Bft) S-SW 213 2 min 0,000 mm 3,9 UV-I 507 W/m 15,3 C 26,3 C 11,3 km/h (2 Bft) 100,00 %
20.06.2019 12:18 26,4 C 25,6 C 36,7 C 50 % 1011,1 hPa 0,0 l/m 9,0 km/h (2 Bft) W 281 2 min 0,000 mm 4,7 UV-I 526 W/m 15,1 C 25,9 C 17,7 km/h (3 Bft) 100,00 %
20.06.2019 12:20 26,7 C 25,6 C 38,9 C 49 % 1011,0 hPa 0,0 l/m 7,9 km/h (2 Bft) W-SW 257 2 min 0,000 mm 5,3 UV-I 1059 W/m 15,1 C 26,4 C 16,1 km/h (3 Bft) 98,00 %
20.06.2019 12:22 26,8 C 25,0 C 40,6 C 49 % 1011,0 hPa 0,0 l/m 9,8 km/h (2 Bft) W 273 2 min 0,000 mm 5,4 UV-I 1155 W/m 15,2 C 26,2 C 14,5 km/h (3 Bft) 97,62 %
20.06.2019 12:24 27,1 C 25,0 C 41,7 C 50 % 1011,0 hPa 0,0 l/m 10,1 km/h (2 Bft) N 5 2 min 0,000 mm 5,6 UV-I 1067 W/m 15,8 C 26,5 C 19,3 km/h (3 Bft) 98,00 %
20.06.2019 12:26 27,3 C 25,0 C 42,8 C 50 % 1011,1 hPa 0,0 l/m 7,3 km/h (2 Bft) N-NO 14 2 min 0,000 mm 5,6 UV-I 1021 W/m 15,9 C 27,1 C 12,9 km/h (3 Bft) 97,87 %
20.06.2019 12:28 27,3 C 25,0 C 42,2 C 48 % 1011,1 hPa 0,0 l/m 5,5 km/h (1 Bft) W 261 2 min 0,000 mm 5,7 UV-I 997 W/m 15,3 C 27,3 C 11,3 km/h (2 Bft) 97,87 %
20.06.2019 12:30 27,3 C 25,6 C 41,7 C 46 % 1011,1 hPa 0,0 l/m 5,9 km/h (2 Bft) NW 323 2 min 0,000 mm 5,5 UV-I 1031 W/m 14,6 C 27,3 C 12,9 km/h (3 Bft) 93,18 %
20.06.2019 12:32 27,1 C 25,6 C 41,7 C 47 % 1011,1 hPa 0,0 l/m 9,8 km/h (2 Bft) W-NW 291 2 min 0,000 mm 5,9 UV-I 1030 W/m 14,8 C 26,5 C 16,1 km/h (3 Bft) 98,11 %
20.06.2019 12:34 27,1 C 25,6 C 42,2 C 47 % 1011,1 hPa 0,0 l/m 5,8 km/h (2 Bft) W 279 2 min 0,000 mm 5,7 UV-I 978 W/m 14,8 C 27,1 C 9,7 km/h (2 Bft) 94,74 %
20.06.2019 12:36 27,2 C 25,6 C 42,2 C 46 % 1011,1 hPa 0,0 l/m 8,1 km/h (2 Bft) W-SW 256 2 min 0,000 mm 5,9 UV-I 997 W/m 14,6 C 26,9 C 14,5 km/h (3 Bft) 96,23 %
20.06.2019 12:38 27,2 C 25,6 C 42,8 C 46 % 1011,1 hPa 0,0 l/m 8,1 km/h (2 Bft) W-NW 290 2 min 0,000 mm 5,9 UV-I 1007 W/m 14,6 C 26,9 C 14,5 km/h (3 Bft) 97,87 %
20.06.2019 12:40 27,2 C 25,6 C 40,0 C 46 % 1011,1 hPa 0,0 l/m 9,1 km/h (2 Bft) N 355 2 min 0,000 mm 4,6 UV-I 938 W/m 14,6 C 26,7 C 16,1 km/h (3 Bft) 98,00 %
20.06.2019 12:42 26,7 C 25,6 C 36,7 C 46 % 1011,1 hPa 0,0 l/m 7,4 km/h (2 Bft) NW 309 0 min 0,000 mm 3,9 UV-I 385 W/m 14,1 C 26,5 C 14,5 km/h (3 Bft) 97,56 %
20.06.2019 12:44 26,4 C 25,6 C 36,7 C 47 % 1011,1 hPa 0,0 l/m 4,9 km/h (1 Bft) W 277 0 min 0,000 mm 4,6 UV-I 447 W/m 14,2 C 26,4 C 12,9 km/h (3 Bft) 94,34 %
20.06.2019 12:46 26,6 C 25,6 C 38,9 C 50 % 1011,1 hPa 0,0 l/m 11,1 km/h (2 Bft) W-SW 252 2 min 0,000 mm 5,6 UV-I 559 W/m 15,3 C 25,8 C 19,3 km/h (3 Bft) 97,56 %
20.06.2019 12:48 26,6 C 25,6 C 39,4 C 47 % 1011,1 hPa 0,0 l/m 10,9 km/h (2 Bft) W-SW 255 2 min 0,000 mm 5,7 UV-I 900 W/m 14,3 C 25,8 C 17,7 km/h (3 Bft) 95,45 %
20.06.2019 12:50 26,7 C 25,6 C 40,6 C 49 % 1011,0 hPa 0,0 l/m 6,7 km/h (2 Bft) W-NW 300 2 min 0,000 mm 5,8 UV-I 914 W/m 15,1 C 26,6 C 14,5 km/h (3 Bft) 98,11 %
20.06.2019 12:52 26,9 C 25,6 C 42,2 C 50 % 1011,0 hPa 0,0 l/m 3,4 km/h (1 Bft) W-SW 254 2 min 0,000 mm 5,8 UV-I 895 W/m 15,6 C 26,9 C 6,4 km/h (2 Bft) 97,87 %
20.06.2019 12:54 27,1 C 25,6 C 42,8 C 50 % 1011,0 hPa 0,0 l/m 3,5 km/h (1 Bft) W-NW 303 2 min 0,000 mm 5,8 UV-I 904 W/m 15,8 C 27,1 C 11,3 km/h (2 Bft) 100,00 %
20.06.2019 12:56 27,2 C 25,6 C 42,8 C 49 % 1011,0 hPa 0,0 l/m 3,2 km/h (1 Bft) N-NW 348 2 min 0,000 mm 5,8 UV-I 904 W/m 15,5 C 27,2 C 6,4 km/h (2 Bft) 100,00 %
20.06.2019 12:58 27,1 C 25,6 C 42,8 C 45 % 1011,0 hPa 0,0 l/m 3,8 km/h (1 Bft) N-NW 336 2 min 0,000 mm 5,8 UV-I 902 W/m 14,1 C 27,1 C 8,0 km/h (2 Bft) 100,00 %
20.06.2019 13:00 26,9 C 25,6 C 42,8 C 46 % 1011,0 hPa 0,0 l/m 3,2 km/h (1 Bft) W-SW 250 2 min 0,609 mm 5,7 UV-I 904 W/m 14,3 C 26,9 C 6,4 km/h (2 Bft) 94,00 %
20.06.2019 13:02 27,1 C 25,6 C 42,8 C 47 % 1011,0 hPa 0,0 l/m 3,5 km/h (1 Bft) W 265 2 min 0,000 mm 5,7 UV-I 911 W/m 14,8 C 27,1 C 6,4 km/h (2 Bft) 94,00 %
20.06.2019 13:04 27,2 C 25,6 C 42,8 C 44 % 1011,0 hPa 0,0 l/m 13,4 km/h (3 Bft) SW 234 2 min 0,000 mm 5,7 UV-I 860 W/m 13,9 C 26,2 C 19,3 km/h (3 Bft) 97,73 %
20.06.2019 13:06 27,2 C 25,6 C 42,2 C 44 % 1010,9 hPa 0,0 l/m 6,2 km/h (2 Bft) SW 234 2 min 0,000 mm 5,8 UV-I 894 W/m 13,9 C 27,2 C 14,5 km/h (3 Bft) 98,00 %
20.06.2019 13:08 27,3 C 25,6 C 42,8 C 46 % 1010,9 hPa 0,0 l/m 4,8 km/h (1 Bft) W-NW 290 2 min 0,000 mm 5,9 UV-I 910 W/m 14,6 C 27,3 C 12,9 km/h (3 Bft) 95,74 %
20.06.2019 13:10 27,3 C 25,6 C 41,7 C 43 % 1011,0 hPa 0,0 l/m 9,3 km/h (2 Bft) W-SW 240 2 min 0,000 mm 5,9 UV-I 902 W/m 13,6 C 26,8 C 14,5 km/h (3 Bft) 98,00 %
20.06.2019 13:12 27,3 C 25,6 C 42,2 C 47 % 1010,9 hPa 0,0 l/m 6,1 km/h (2 Bft) W 259 2 min 0,000 mm 5,8 UV-I 902 W/m 15,0 C 27,3 C 11,3 km/h (2 Bft) 97,14 %
20.06.2019 13:14 27,3 C 25,6 C 42,2 C 41 % 1010,9 hPa 0,0 l/m 6,0 km/h (2 Bft) SW 219 2 min 0,000 mm 5,9 UV-I 907 W/m 12,9 C 27,3 C 9,7 km/h (2 Bft) 98,11 %
20.06.2019 13:16 27,3 C 25,6 C 42,8 C 43 % 1010,8 hPa 0,0 l/m 5,2 km/h (1 Bft) W-NW 292 2 min 0,000 mm 5,9 UV-I 905 W/m 13,6 C 27,3 C 12,9 km/h (3 Bft) 97,37 %
20.06.2019 13:18 27,5 C 25,6 C 42,8 C 45 % 1010,8 hPa 0,0 l/m 6,1 km/h (2 Bft) W-SW 246 2 min 0,000 mm 5,9 UV-I 907 W/m 14,5 C 27,5 C 12,9 km/h (3 Bft) 98,21 %
20.06.2019 13:20 27,6 C 25,6 C 42,8 C 42 % 1010,8 hPa 0,0 l/m 4,5 km/h (1 Bft) N-NW 334 2 min 0,000 mm 5,9 UV-I 898 W/m 13,5 C 27,6 C 6,4 km/h (2 Bft) 97,87 %
20.06.2019 13:22 27,5 C 25,6 C 42,8 C 42 % 1010,7 hPa 0,0 l/m 6,8 km/h (2 Bft) W-NW 301 2 min 0,000 mm 5,8 UV-I 882 W/m 13,4 C 27,4 C 12,9 km/h (3 Bft) 98,00 %
20.06.2019 13:24 27,5 C 25,6 C 42,2 C 41 % 1010,7 hPa 0,0 l/m 11,8 km/h (2 Bft) W-SW 248 2 min 0,000 mm 5,8 UV-I 903 W/m 13,1 C 26,7 C 19,3 km/h (3 Bft) 95,74 %
20.06.2019 13:26 27,4 C 25,6 C 41,7 C 40 % 1010,7 hPa 0,0 l/m 10,7 km/h (2 Bft) NW 313 2 min 0,000 mm 5,8 UV-I 900 W/m 12,6 C 26,7 C 16,1 km/h (3 Bft) 97,37 %
20.06.2019 13:28 27,4 C 25,6 C 41,7 C 45 % 1010,7 hPa 0,0 l/m 6,3 km/h (2 Bft) N 5 2 min 0,000 mm 5,8 UV-I 893 W/m 14,4 C 27,4 C 12,9 km/h (3 Bft) 96,43 %
20.06.2019 13:30 27,3 C 25,6 C 42,8 C 44 % 1010,6 hPa 0,0 l/m 5,1 km/h (1 Bft) NW 311 2 min 0,000 mm 5,8 UV-I 903 W/m 14,0 C 27,3 C 9,7 km/h (2 Bft) 100,00 %
20.06.2019 13:32 27,3 C 25,6 C 42,8 C 44 % 1010,6 hPa 0,0 l/m 8,8 km/h (2 Bft) SW 229 2 min 0,000 mm 5,8 UV-I 903 W/m 14,0 C 26,9 C 16,1 km/h (3 Bft) 91,84 %
20.06.2019 13:34 27,3 C 25,6 C 42,2 C 41 % 1010,5 hPa 0,0 l/m 11,1 km/h (2 Bft) SW 224 2 min 0,000 mm 5,8 UV-I 900 W/m 12,9 C 26,6 C 16,1 km/h (3 Bft) 94,34 %
20.06.2019 13:36 27,3 C 25,6 C 41,7 C 41 % 1010,5 hPa 0,0 l/m 7,5 km/h (2 Bft) NW 316 2 min 0,000 mm 5,8 UV-I 900 W/m 12,9 C 27,1 C 11,3 km/h (2 Bft) 95,83 %
20.06.2019 13:38 27,4 C 25,6 C 41,7 C 43 % 1010,5 hPa 0,0 l/m 5,1 km/h (1 Bft) W 264 2 min 0,000 mm 5,8 UV-I 895 W/m 13,7 C 27,4 C 11,3 km/h (2 Bft) 94,29 %
20.06.2019 13:40 27,4 C 25,6 C 41,7 C 43 % 1010,4 hPa 0,0 l/m 7,6 km/h (2 Bft) W 280 2 min 0,000 mm 5,7 UV-I 893 W/m 13,7 C 27,2 C 11,3 km/h (2 Bft) 95,45 %
20.06.2019 13:42 27,2 C 25,6 C 41,7 C 43 % 1010,3 hPa 0,0 l/m 6,0 km/h (2 Bft) W-NW 300 2 min 0,000 mm 5,7 UV-I 893 W/m 13,5 C 27,2 C 9,7 km/h (2 Bft) 96,23 %
20.06.2019 13:44 27,2 C 25,6 C 41,7 C 42 % 1010,3 hPa 0,0 l/m 3,8 km/h (1 Bft) W 274 2 min 0,000 mm 5,7 UV-I 890 W/m 13,2 C 27,2 C 6,4 km/h (2 Bft) 96,00 %
20.06.2019 13:46 27,4 C 25,6 C 42,8 C 45 % 1010,3 hPa 0,0 l/m 4,5 km/h (1 Bft) NO 56 2 min 0,000 mm 5,7 UV-I 895 W/m 14,4 C 27,4 C 12,9 km/h (3 Bft) 94,74 %
20.06.2019 13:48 27,4 C 25,6 C 42,8 C 44 % 1010,3 hPa 0,0 l/m 6,6 km/h (2 Bft) N 350 2 min 0,000 mm 5,7 UV-I 894 W/m 14,0 C 27,4 C 11,3 km/h (2 Bft) 96,43 %
20.06.2019 13:50 27,3 C 25,6 C 42,8 C 45 % 1010,3 hPa 0,0 l/m 6,1 km/h (2 Bft) NO 40 2 min 0,000 mm 5,7 UV-I 893 W/m 14,3 C 27,3 C 9,7 km/h (2 Bft) 96,00 %
20.06.2019 13:52 27,3 C 25,6 C 42,8 C 48 % 1010,3 hPa 0,0 l/m 5,1 km/h (1 Bft) N-NO 20 2 min 0,000 mm 5,7 UV-I 892 W/m 15,3 C 27,3 C 8,0 km/h (2 Bft) 91,49 %
20.06.2019 13:54 27,4 C 25,6 C 42,8 C 45 % 1010,2 hPa 0,0 l/m 6,3 km/h (2 Bft) NO 50 2 min 0,000 mm 5,7 UV-I 891 W/m 14,4 C 27,4 C 14,5 km/h (3 Bft) 97,87 %
20.06.2019 13:56 27,3 C 25,6 C 42,8 C 47 % 1010,2 hPa 0,0 l/m 7,2 km/h (2 Bft) W 279 2 min 0,000 mm 5,6 UV-I 890 W/m 15,0 C 27,2 C 12,9 km/h (3 Bft) 97,56 %
20.06.2019 13:58 27,4 C 26,1 C 42,8 C 46 % 1010,1 hPa 0,0 l/m 8,4 km/h (2 Bft) SW 224 2 min 0,000 mm 5,6 UV-I 889 W/m 14,7 C 27,1 C 16,1 km/h (3 Bft) 100,00 %
20.06.2019 14:00 27,6 C 26,1 C 41,1 C 44 % 1010,1 hPa 0,0 l/m 14,5 km/h (3 Bft) W 266 2 min 0,000 mm 5,6 UV-I 889 W/m 14,2 C 26,5 C 24,1 km/h (4 Bft) 97,87 %
20.06.2019 14:02 27,6 C 26,1 C 41,1 C 42 % 1010,1 hPa 0,0 l/m 11,6 km/h (2 Bft) W-SW 240 2 min 0,635 mm 5,5 UV-I 888 W/m 13,5 C 26,8 C 20,9 km/h (4 Bft) 100,00 %
20.06.2019 14:04 27,9 C 26,1 C 42,2 C 44 % 1010,1 hPa 0,0 l/m 6,5 km/h (2 Bft) W-SW 239 2 min 0,000 mm 5,5 UV-I 889 W/m 14,5 C 27,9 C 12,9 km/h (3 Bft) 100,00 %
20.06.2019 14:06 28,3 C 26,1 C 42,8 C 45 % 1010,0 hPa 0,0 l/m 4,8 km/h (1 Bft) W 276 2 min 0,000 mm 5,5 UV-I 887 W/m 15,2 C 28,3 C 11,3 km/h (2 Bft) 98,36 %
20.06.2019 14:08 28,3 C 26,1 C 42,8 C 48 % 1010,1 hPa 0,0 l/m 8,2 km/h (2 Bft) W 273 2 min 0,000 mm 5,5 UV-I 880 W/m 16,2 C 28,0 C 14,5 km/h (3 Bft) 100,00 %
20.06.2019 14:10 28,0 C 26,1 C 43,3 C 43 % 1010,0 hPa 0,0 l/m 3,8 km/h (1 Bft) N 5 2 min 0,000 mm 5,5 UV-I 880 W/m 14,2 C 28,0 C 8,0 km/h (2 Bft) 100,00 %
20.06.2019 14:12 28,0 C 26,1 C 43,3 C 45 % 1010,0 hPa 0,0 l/m 6,8 km/h (2 Bft) W-NW 286 2 min 0,000 mm 5,5 UV-I 880 W/m 14,9 C 27,9 C 17,7 km/h (3 Bft) 100,00 %
20.06.2019 14:14 27,9 C 26,1 C 42,8 C 46 % 1010,0 hPa 0,0 l/m 8,7 km/h (2 Bft) N-NO 21 2 min 0,000 mm 5,4 UV-I 875 W/m 15,2 C 27,5 C 14,5 km/h (3 Bft) 97,87 %
20.06.2019 14:16 27,6 C 26,1 C 42,8 C 45 % 1010,0 hPa 0,0 l/m 4,3 km/h (1 Bft) W-SW 254 2 min 0,000 mm 5,3 UV-I 878 W/m 14,6 C 27,6 C 6,4 km/h (2 Bft) 100,00 %
20.06.2019 14:18 27,5 C 26,1 C 41,7 C 46 % 1010,0 hPa 0,0 l/m 7,6 km/h (2 Bft) N-NW 341 2 min 0,000 mm 5,3 UV-I 873 W/m 14,8 C 27,3 C 14,5 km/h (3 Bft) 97,14 %
20.06.2019 14:20 27,4 C 26,1 C 41,1 C 48 % 1010,0 hPa 0,0 l/m 11,9 km/h (2 Bft) N-NO 28 2 min 0,000 mm 5,3 UV-I 851 W/m 15,4 C 26,6 C 17,7 km/h (3 Bft) 98,21 %
20.06.2019 14:22 27,3 C 26,1 C 40,6 C 49 % 1009,9 hPa 0,0 l/m 8,9 km/h (2 Bft) N-NW 343 2 min 0,000 mm 5,3 UV-I 854 W/m 15,6 C 26,9 C 25,7 km/h (4 Bft) 96,00 %
20.06.2019 14:24 27,2 C 26,1 C 40,0 C 47 % 1009,9 hPa 0,0 l/m 11,3 km/h (2 Bft) N-NW 346 2 min 0,000 mm 5,2 UV-I 851 W/m 14,9 C 26,4 C 17,7 km/h (3 Bft) 94,74 %
20.06.2019 14:26 27,2 C 26,1 C 40,6 C 51 % 1009,9 hPa 0,0 l/m 8,1 km/h (2 Bft) N-NO 29 2 min 0,000 mm 5,2 UV-I 848 W/m 16,2 C 26,9 C 16,1 km/h (3 Bft) 97,87 %
20.06.2019 14:28 27,2 C 26,1 C 40,6 C 46 % 1009,9 hPa 0,0 l/m 7,3 km/h (2 Bft) N-NO 18 2 min 0,000 mm 5,2 UV-I 847 W/m 14,6 C 27,0 C 12,9 km/h (3 Bft) 97,14 %
20.06.2019 14:30 27,2 C 26,1 C 40,6 C 52 % 1009,9 hPa 0,0 l/m 6,6 km/h (2 Bft) N 5 2 min 0,000 mm 5,1 UV-I 845 W/m 16,5 C 27,2 C 9,7 km/h (2 Bft) 98,31 %
20.06.2019 14:32 27,4 C 26,1 C 40,6 C 50 % 1009,9 hPa 0,0 l/m 12,7 km/h (3 Bft) N-NO 13 2 min 0,000 mm 5,1 UV-I 844 W/m 16,0 C 26,5 C 22,5 km/h (4 Bft) 92,86 %
20.06.2019 14:34 27,3 C 26,1 C 40,0 C 45 % 1009,9 hPa 0,0 l/m 6,4 km/h (2 Bft) N-NW 332 2 min 0,000 mm 5,1 UV-I 846 W/m 14,3 C 27,3 C 17,7 km/h (3 Bft) 100,00 %
20.06.2019 14:36 27,3 C 26,1 C 40,6 C 49 % 1009,8 hPa 0,0 l/m 7,6 km/h (2 Bft) N-NW 331 2 min 0,000 mm 5,1 UV-I 845 W/m 15,6 C 27,1 C 14,5 km/h (3 Bft) 96,61 %
20.06.2019 14:38 27,4 C 26,1 C 40,6 C 48 % 1009,8 hPa 0,0 l/m 6,6 km/h (2 Bft) O-NO 57 2 min 0,000 mm 5,0 UV-I 819 W/m 15,4 C 27,4 C 12,9 km/h (3 Bft) 97,87 %
20.06.2019 14:40 27,2 C 26,1 C 41,1 C 47 % 1009,8 hPa 0,0 l/m 7,6 km/h (2 Bft) NW 308 2 min 0,000 mm 4,9 UV-I 814 W/m 14,9 C 27,0 C 14,5 km/h (3 Bft) 97,87 %
20.06.2019 14:42 27,3 C 26,1 C 41,7 C 45 % 1009,9 hPa 0,0 l/m 5,0 km/h (1 Bft) W-NW 289 2 min 0,000 mm 5,0 UV-I 832 W/m 14,3 C 27,3 C 12,9 km/h (3 Bft) 97,56 %
20.06.2019 14:44 27,4 C 26,1 C 42,2 C 44 % 1009,8 hPa 0,0 l/m 5,8 km/h (2 Bft) N-NW 330 2 min 0,000 mm 5,0 UV-I 837 W/m 14,0 C 27,4 C 9,7 km/h (2 Bft) 97,62 %
20.06.2019 14:46 27,3 C 26,1 C 41,7 C 46 % 1009,8 hPa 0,0 l/m 6,4 km/h (2 Bft) W-NW 300 2 min 0,000 mm 4,9 UV-I 833 W/m 14,6 C 27,3 C 14,5 km/h (3 Bft) 96,15 %
20.06.2019 14:48 27,5 C 26,1 C 41,7 C 45 % 1009,8 hPa 0,0 l/m 6,3 km/h (2 Bft) W-NW 291 2 min 0,000 mm 4,9 UV-I 830 W/m 14,5 C 27,5 C 14,5 km/h (3 Bft) 95,83 %
20.06.2019 14:50 27,6 C 26,1 C 41,1 C 44 % 1009,8 hPa 0,0 l/m 7,5 km/h (2 Bft) N-NO 15 2 min 0,000 mm 4,9 UV-I 828 W/m 14,2 C 27,4 C 12,9 km/h (3 Bft) 93,10 %
20.06.2019 14:52 27,6 C 26,1 C 40,6 C 47 % 1009,7 hPa 0,0 l/m 8,9 km/h (2 Bft) NW 306 2 min 0,000 mm 4,8 UV-I 813 W/m 15,3 C 27,2 C 16,1 km/h (3 Bft) 96,77 %
20.06.2019 14:54 27,6 C 26,1 C 41,1 C 45 % 1009,7 hPa 0,0 l/m 8,4 km/h (2 Bft) N 355 2 min 0,000 mm 4,8 UV-I 820 W/m 14,6 C 27,3 C 16,1 km/h (3 Bft) 100,00 %
20.06.2019 14:56 27,5 C 26,1 C 40,6 C 50 % 1009,7 hPa 0,0 l/m 11,1 km/h (2 Bft) NO 50 2 min 0,000 mm 4,7 UV-I 818 W/m 16,1 C 26,8 C 16,1 km/h (3 Bft) 98,11 %
20.06.2019 14:58 27,5 C 26,1 C 40,6 C 50 % 1009,6 hPa 0,0 l/m 5,7 km/h (1 Bft) NW 304 2 min 0,000 mm 4,7 UV-I 812 W/m 16,1 C 27,5 C 9,7 km/h (2 Bft) 97,87 %
20.06.2019 15:00 27,6 C 26,1 C 41,1 C 49 % 1009,5 hPa 0,0 l/m 4,1 km/h (1 Bft) S-SW 197 2 min 0,610 mm 4,6 UV-I 806 W/m 15,9 C 27,6 C 9,7 km/h (2 Bft) 100,00 %
20.06.2019 15:02 27,7 C 26,1 C 41,7 C 51 % 1009,6 hPa 0,0 l/m 4,6 km/h (1 Bft) W-NW 284 2 min 0,000 mm 4,6 UV-I 801 W/m 16,6 C 27,7 C 8,0 km/h (2 Bft) 100,00 %
20.06.2019 15:04 27,8 C 26,1 C 41,7 C 47 % 1009,5 hPa 0,0 l/m 5,9 km/h (2 Bft) N-NO 23 2 min 0,000 mm 4,4 UV-I 772 W/m 15,4 C 27,8 C 11,3 km/h (2 Bft) 100,00 %
20.06.2019 15:06 27,8 C 26,1 C 42,2 C 52 % 1009,5 hPa 0,0 l/m 7,8 km/h (2 Bft) W-NW 301 2 min 0,000 mm 4,4 UV-I 790 W/m 17,0 C 27,6 C 12,9 km/h (3 Bft) 100,00 %
20.06.2019 15:08 27,7 C 26,1 C 42,2 C 45 % 1009,5 hPa 0,0 l/m 5,0 km/h (1 Bft) W-NW 300 2 min 0,000 mm 4,4 UV-I 797 W/m 14,7 C 27,7 C 6,4 km/h (2 Bft) 95,12 %
20.06.2019 15:10 27,8 C 26,1 C 43,3 C 48 % 1009,5 hPa 0,0 l/m 2,9 km/h (1 Bft) W-NW 286 2 min 0,000 mm 4,4 UV-I 790 W/m 15,8 C 27,8 C 6,4 km/h (2 Bft) 98,11 %
20.06.2019 15:12 27,8 C 26,1 C 43,3 C 49 % 1009,5 hPa 0,0 l/m 7,9 km/h (2 Bft) N-NO 13 2 min 0,000 mm 3,3 UV-I 795 W/m 16,1 C 27,6 C 14,5 km/h (3 Bft) 100,00 %
20.06.2019 15:14 27,8 C 26,1 C 42,8 C 49 % 1009,5 hPa 0,0 l/m 5,0 km/h (1 Bft) NO 37 2 min 0,000 mm 4,4 UV-I 794 W/m 16,1 C 27,8 C 8,0 km/h (2 Bft) 95,12 %
20.06.2019 15:16 27,6 C 26,1 C 43,3 C 45 % 1009,4 hPa 0,0 l/m 2,8 km/h (1 Bft) N 5 2 min 0,000 mm 4,3 UV-I 784 W/m 14,6 C 27,6 C 6,4 km/h (2 Bft) 97,56 %
20.06.2019 15:18 27,6 C 26,1 C 42,2 C 47 % 1009,5 hPa 0,0 l/m 8,1 km/h (2 Bft) N-NW 340 2 min 0,000 mm 4,0 UV-I 750 W/m 15,3 C 27,3 C 12,9 km/h (3 Bft) 98,31 %
20.06.2019 15:20 27,6 C 26,1 C 41,7 C 48 % 1009,4 hPa 0,0 l/m 6,6 km/h (2 Bft) N-NO 13 2 min 0,000 mm 4,1 UV-I 790 W/m 15,6 C 27,6 C 14,5 km/h (3 Bft) 98,11 %
20.06.2019 15:22 27,4 C 26,1 C 39,4 C 49 % 1009,4 hPa 0,0 l/m 10,1 km/h (2 Bft) N 5 2 min 0,000 mm 4,1 UV-I 795 W/m 15,7 C 26,8 C 14,5 km/h (3 Bft) 92,11 %
20.06.2019 15:24 27,2 C 26,1 C 35,6 C 53 % 1009,4 hPa 0,0 l/m 11,3 km/h (2 Bft) N-NO 22 2 min 0,000 mm 2,9 UV-I 671 W/m 16,8 C 26,4 C 14,5 km/h (3 Bft) 97,92 %
20.06.2019 15:26 26,8 C 26,1 C 33,9 C 50 % 1009,4 hPa 0,0 l/m 8,3 km/h (2 Bft) N-NO 19 0 min 0,000 mm 3,1 UV-I 188 W/m 15,5 C 26,4 C 16,1 km/h (3 Bft) 95,74 %
20.06.2019 15:28 26,8 C 26,1 C 36,7 C 49 % 1009,4 hPa 0,0 l/m 4,0 km/h (1 Bft) NO 53 2 min 0,000 mm 4,0 UV-I 723 W/m 15,2 C 26,8 C 9,7 km/h (2 Bft) 96,00 %
20.06.2019 15:30 27,1 C 26,1 C 38,3 C 53 % 1009,3 hPa 0,0 l/m 9,5 km/h (2 Bft) N-NO 26 2 min 0,000 mm 4,0 UV-I 778 W/m 16,7 C 26,6 C 16,1 km/h (3 Bft) 100,00 %
20.06.2019 15:32 27,3 C 26,1 C 39,4 C 52 % 1009,3 hPa 0,0 l/m 6,5 km/h (2 Bft) NO 37 2 min 0,000 mm 4,0 UV-I 776 W/m 16,6 C 27,3 C 12,9 km/h (3 Bft) 94,34 %
20.06.2019 15:34 27,6 C 26,1 C 40,0 C 50 % 1009,3 hPa 0,0 l/m 7,3 km/h (2 Bft) NO 41 2 min 0,000 mm 4,0 UV-I 768 W/m 16,2 C 27,4 C 9,7 km/h (2 Bft) 98,11 %
20.06.2019 15:36 27,6 C 26,1 C 40,6 C 49 % 1009,3 hPa 0,0 l/m 10,3 km/h (2 Bft) N-NW 340 2 min 0,000 mm 3,9 UV-I 766 W/m 15,9 C 27,0 C 17,7 km/h (3 Bft) 97,37 %
20.06.2019 15:38 27,6 C 26,1 C 40,0 C 48 % 1009,3 hPa 0,0 l/m 12,3 km/h (3 Bft) N 351 2 min 0,000 mm 3,9 UV-I 770 W/m 15,6 C 26,7 C 16,1 km/h (3 Bft) 97,87 %
20.06.2019 15:40 27,7 C 26,1 C 40,6 C 49 % 1009,3 hPa 0,0 l/m 8,9 km/h (2 Bft) N 11 2 min 0,000 mm 3,4 UV-I 775 W/m 16,0 C 27,3 C 12,9 km/h (3 Bft) 98,00 %
20.06.2019 15:42 27,7 C 26,1 C 41,1 C 50 % 1009,2 hPa 0,0 l/m 10,2 km/h (2 Bft) NO 38 2 min 0,000 mm 3,9 UV-I 773 W/m 16,3 C 27,1 C 17,7 km/h (3 Bft) 100,00 %
20.06.2019 15:44 27,7 C 26,1 C 40,6 C 47 % 1009,2 hPa 0,0 l/m 10,2 km/h (2 Bft) NO 40 2 min 0,000 mm 3,8 UV-I 759 W/m 15,3 C 27,1 C 16,1 km/h (3 Bft) 100,00 %
20.06.2019 15:46 27,8 C 26,1 C 40,6 C 50 % 1009,2 hPa 0,0 l/m 6,5 km/h (2 Bft) N-NW 341 2 min 0,000 mm 3,7 UV-I 758 W/m 16,4 C 27,8 C 9,7 km/h (2 Bft) 100,00 %
20.06.2019 15:48 27,8 C 26,1 C 41,7 C 49 % 1009,2 hPa 0,0 l/m 7,3 km/h (2 Bft) N-NO 14 2 min 0,000 mm 3,7 UV-I 761 W/m 16,1 C 27,7 C 12,9 km/h (3 Bft) 100,00 %
20.06.2019 15:50 27,9 C 26,1 C 42,2 C 50 % 1009,2 hPa 0,0 l/m 5,5 km/h (1 Bft) N-NO 29 2 min 0,000 mm 3,7 UV-I 768 W/m 16,5 C 27,9 C 8,0 km/h (2 Bft) 100,00 %
20.06.2019 15:52 27,9 C 26,1 C 42,8 C 48 % 1009,1 hPa 0,0 l/m 5,9 km/h (2 Bft) NO 47 2 min 0,000 mm 3,7 UV-I 765 W/m 15,9 C 27,9 C 11,3 km/h (2 Bft) 100,00 %
20.06.2019 15:54 27,8 C 26,1 C 41,7 C 51 % 1009,1 hPa 0,0 l/m 9,7 km/h (2 Bft) N-NO 23 2 min 0,000 mm 3,6 UV-I 756 W/m 16,7 C 27,3 C 17,7 km/h (3 Bft) 97,14 %
20.06.2019 15:56 27,8 C 26,1 C 41,1 C 49 % 1009,1 hPa 0,0 l/m 6,5 km/h (2 Bft) N 355 2 min 0,000 mm 3,6 UV-I 772 W/m 16,1 C 27,8 C 11,3 km/h (2 Bft) 100,00 %
20.06.2019 15:58 27,8 C 26,1 C 41,1 C 48 % 1009,0 hPa 0,0 l/m 6,6 km/h (2 Bft) N-NW 327 2 min 0,000 mm 3,3 UV-I 714 W/m 15,8 C 27,8 C 9,7 km/h (2 Bft) 100,00 %
20.06.2019 16:00 27,7 C 26,1 C 39,4 C 44 % 1009,0 hPa 0,0 l/m 3,4 km/h (1 Bft) O-NO 60 2 min 0,000 mm 2,8 UV-I 579 W/m 14,3 C 27,7 C 6,4 km/h (2 Bft) 97,44 %
20.06.2019 16:02 27,5 C 26,1 C 36,7 C 46 % 1009,0 hPa 0,0 l/m 6,0 km/h (2 Bft) W-NW 300 0 min 0,533 mm 2,1 UV-I 305 W/m 14,8 C 27,5 C 8,0 km/h (2 Bft) 100,00 %
20.06.2019 16:04 27,3 C 26,1 C 35,0 C 47 % 1009,0 hPa 0,0 l/m 4,0 km/h (1 Bft) NW 318 0 min 0,000 mm 2,1 UV-I 312 W/m 15,0 C 27,3 C 6,4 km/h (2 Bft) 97,87 %
20.06.2019 16:06 27,2 C 26,1 C 35,0 C 46 % 1009,0 hPa 0,0 l/m 6,7 km/h (2 Bft) N 360 2 min 0,000 mm 2,4 UV-I 431 W/m 14,6 C 27,1 C 11,3 km/h (2 Bft) 100,00 %
20.06.2019 16:08 27,2 C 26,7 C 35,6 C 46 % 1009,0 hPa 0,0 l/m 5,3 km/h (1 Bft) N 351 2 min 0,000 mm 2,7 UV-I 524 W/m 14,6 C 27,2 C 8,0 km/h (2 Bft) 100,00 %
20.06.2019 16:10 27,3 C 26,7 C 37,2 C 47 % 1009,0 hPa 0,0 l/m 6,8 km/h (2 Bft) N 355 2 min 0,000 mm 2,8 UV-I 607 W/m 15,0 C 27,2 C 9,7 km/h (2 Bft) 100,00 %
20.06.2019 16:12 27,3 C 26,7 C 37,8 C 47 % 1008,9 hPa 0,0 l/m 7,8 km/h (2 Bft) N 10 2 min 0,000 mm 2,9 UV-I 608 W/m 15,0 C 27,0 C 12,9 km/h (3 Bft) 100,00 %
20.06.2019 16:14 27,4 C 26,7 C 39,4 C 48 % 1008,9 hPa 0,0 l/m 5,1 km/h (1 Bft) N 5 2 min 0,000 mm 3,2 UV-I 732 W/m 15,4 C 27,4 C 6,4 km/h (2 Bft) 97,87 %
20.06.2019 16:16 27,7 C 26,7 C 41,1 C 42 % 1008,9 hPa 0,0 l/m 2,5 km/h (1 Bft) N-NW 327 2 min 0,000 mm 3,2 UV-I 739 W/m 13,6 C 27,7 C 4,8 km/h (1 Bft) 98,00 %
20.06.2019 16:18 27,9 C 26,7 C 41,7 C 49 % 1008,9 hPa 0,0 l/m 5,0 km/h (1 Bft) W-NW 303 2 min 0,000 mm 3,3 UV-I 747 W/m 16,2 C 27,9 C 6,4 km/h (2 Bft) 96,00 %
20.06.2019 16:20 27,9 C 26,7 C 41,7 C 43 % 1008,8 hPa 0,0 l/m 5,4 km/h (1 Bft) N 5 2 min 0,000 mm 3,2 UV-I 729 W/m 14,1 C 27,9 C 9,7 km/h (2 Bft) 98,00 %
20.06.2019 16:22 28,0 C 26,7 C 41,7 C 46 % 1008,7 hPa 0,0 l/m 7,2 km/h (2 Bft) N-NO 20 2 min 0,000 mm 3,1 UV-I 699 W/m 15,3 C 27,9 C 16,1 km/h (3 Bft) 94,74 %
20.06.2019 16:24 28,1 C 26,7 C 41,7 C 48 % 1008,7 hPa 0,0 l/m 6,3 km/h (2 Bft) N-NO 29 2 min 0,000 mm 3,0 UV-I 687 W/m 16,0 C 28,1 C 12,9 km/h (3 Bft) 93,62 %
20.06.2019 16:26 28,1 C 26,7 C 41,1 C 48 % 1008,7 hPa 0,0 l/m 6,7 km/h (2 Bft) N-NO 16 2 min 0,000 mm 3,0 UV-I 672 W/m 16,0 C 28,1 C 14,5 km/h (3 Bft) 96,23 %
20.06.2019 16:28 28,0 C 26,7 C 40,6 C 48 % 1008,7 hPa 0,0 l/m 11,6 km/h (2 Bft) N-NO 29 2 min 0,000 mm 2,9 UV-I 663 W/m 15,9 C 27,3 C 16,1 km/h (3 Bft) 94,74 %
20.06.2019 16:30 27,9 C 26,7 C 40,6 C 47 % 1008,7 hPa 0,0 l/m 5,4 km/h (1 Bft) NO 43 2 min 0,000 mm 2,8 UV-I 652 W/m 15,5 C 27,9 C 8,0 km/h (2 Bft) 96,43 %
20.06.2019 16:32 27,9 C 26,7 C 40,6 C 47 % 1008,6 hPa 0,0 l/m 6,2 km/h (2 Bft) N 5 2 min 0,000 mm 2,8 UV-I 645 W/m 15,5 C 27,9 C 11,3 km/h (2 Bft) 94,74 %
20.06.2019 16:34 27,9 C 26,7 C 41,1 C 44 % 1008,6 hPa 0,0 l/m 5,7 km/h (1 Bft) W-NW 285 2 min 0,000 mm 2,7 UV-I 639 W/m 14,5 C 27,9 C 9,7 km/h (2 Bft) 93,62 %
20.06.2019 16:36 28,0 C 26,7 C 41,7 C 45 % 1008,5 hPa 0,0 l/m 2,2 km/h (1 Bft) N-NO 13 2 min 0,000 mm 2,7 UV-I 630 W/m 14,9 C 28,0 C 4,8 km/h (1 Bft) 95,74 %
20.06.2019 16:38 28,0 C 26,7 C 41,7 C 46 % 1008,5 hPa 0,0 l/m 2,9 km/h (1 Bft) N 5 2 min 0,000 mm 2,6 UV-I 623 W/m 15,3 C 28,0 C 4,8 km/h (1 Bft) 96,00 %
20.06.2019 16:40 28,1 C 26,7 C 41,7 C 43 % 1008,4 hPa 0,0 l/m 3,3 km/h (1 Bft) N 10 2 min 0,000 mm 2,6 UV-I 614 W/m 14,3 C 28,1 C 6,4 km/h (2 Bft) 94,34 %
20.06.2019 16:42 28,1 C 26,7 C 40,6 C 48 % 1008,4 hPa 0,0 l/m 8,9 km/h (2 Bft) N-NO 25 2 min 0,000 mm 2,5 UV-I 609 W/m 16,0 C 27,7 C 14,5 km/h (3 Bft) 95,56 %
20.06.2019 16:44 28,0 C 26,7 C 40,0 C 45 % 1008,5 hPa 0,0 l/m 9,1 km/h (2 Bft) N 355 2 min 0,000 mm 2,5 UV-I 607 W/m 14,9 C 27,6 C 16,1 km/h (3 Bft) 95,45 %
20.06.2019 16:46 27,9 C 26,7 C 39,4 C 41 % 1008,4 hPa 0,0 l/m 7,2 km/h (2 Bft) N-NO 16 2 min 0,000 mm 2,4 UV-I 603 W/m 13,4 C 27,8 C 11,3 km/h (2 Bft) 95,45 %
20.06.2019 16:48 27,8 C 26,7 C 39,4 C 46 % 1008,4 hPa 0,0 l/m 9,7 km/h (2 Bft) N-NO 16 2 min 0,000 mm 2,4 UV-I 599 W/m 15,1 C 27,3 C 16,1 km/h (3 Bft) 95,12 %
20.06.2019 16:50 27,8 C 26,7 C 39,4 C 43 % 1008,4 hPa 0,0 l/m 7,3 km/h (2 Bft) N-NO 30 2 min 0,000 mm 2,4 UV-I 599 W/m 14,1 C 27,7 C 11,3 km/h (2 Bft) 96,00 %
20.06.2019 16:52 27,9 C 26,7 C 40,0 C 47 % 1008,3 hPa 0,0 l/m 5,6 km/h (1 Bft) N-NO 20 2 min 0,000 mm 2,3 UV-I 594 W/m 15,5 C 27,9 C 12,9 km/h (3 Bft) 93,62 %
20.06.2019 16:54 27,8 C 26,7 C 39,4 C 46 % 1008,3 hPa 0,0 l/m 7,1 km/h (2 Bft) NO 41 2 min 0,000 mm 2,3 UV-I 583 W/m 15,1 C 27,7 C 12,9 km/h (3 Bft) 96,23 %
20.06.2019 16:56 28,0 C 26,7 C 40,0 C 42 % 1008,3 hPa 0,0 l/m 3,8 km/h (1 Bft) W 267 2 min 0,000 mm 2,2 UV-I 565 W/m 13,9 C 28,0 C 8,0 km/h (2 Bft) 90,24 %
20.06.2019 16:58 28,3 C 26,7 C 40,0 C 45 % 1008,3 hPa 0,0 l/m 5,5 km/h (1 Bft) N-NW 342 2 min 0,000 mm 2,1 UV-I 550 W/m 15,2 C 28,3 C 9,7 km/h (2 Bft) 94,34 %
20.06.2019 17:00 28,3 C 26,7 C 40,0 C 41 % 1008,3 hPa 0,0 l/m 4,4 km/h (1 Bft) NW 319 2 min 0,000 mm 2,1 UV-I 540 W/m 13,8 C 28,3 C 9,7 km/h (2 Bft) 94,74 %
20.06.2019 17:02 28,2 C 26,7 C 40,6 C 45 % 1008,4 hPa 0,0 l/m 1,7 km/h (1 Bft) NW 319 2 min 0,457 mm 2,0 UV-I 531 W/m 15,1 C 28,2 C 3,2 km/h (1 Bft) 96,00 %
20.06.2019 17:04 28,3 C 26,7 C 40,6 C 42 % 1008,3 hPa 0,0 l/m 3,4 km/h (1 Bft) W 271 2 min 0,000 mm 2,1 UV-I 532 W/m 14,1 C 28,3 C 6,4 km/h (2 Bft) 92,86 %
20.06.2019 17:06 28,4 C 26,7 C 41,1 C 43 % 1008,3 hPa 0,0 l/m 2,7 km/h (1 Bft) W 272 2 min 0,000 mm 2,0 UV-I 562 W/m 14,6 C 28,4 C 4,8 km/h (1 Bft) 97,37 %
20.06.2019 17:08 28,4 C 26,7 C 39,4 C 46 % 1008,4 hPa 0,0 l/m 7,0 km/h (2 Bft) N-NO 21 2 min 0,000 mm 1,9 UV-I 526 W/m 15,6 C 28,3 C 11,3 km/h (2 Bft) 98,11 %
20.06.2019 17:10 28,1 C 26,7 C 36,7 C 44 % 1008,3 hPa 0,0 l/m 5,5 km/h (1 Bft) N-NO 27 0 min 0,000 mm 1,5 UV-I 212 W/m 14,7 C 28,1 C 8,0 km/h (2 Bft) 98,00 %
20.06.2019 17:12 27,9 C 26,7 C 36,7 C 46 % 1008,4 hPa 0,0 l/m 4,7 km/h (1 Bft) W-NW 293 0 min 0,000 mm 1,6 UV-I 246 W/m 15,2 C 27,9 C 11,3 km/h (2 Bft) 97,56 %
20.06.2019 17:14 27,8 C 26,7 C 37,2 C 46 % 1008,4 hPa 0,0 l/m 5,8 km/h (2 Bft) N-NO 19 2 min 0,000 mm 1,8 UV-I 552 W/m 15,1 C 27,8 C 8,0 km/h (2 Bft) 98,00 %
20.06.2019 17:16 27,7 C 26,7 C 37,8 C 48 % 1008,4 hPa 0,0 l/m 5,8 km/h (2 Bft) N-NO 26 2 min 0,000 mm 1,7 UV-I 532 W/m 15,7 C 27,7 C 8,0 km/h (2 Bft) 97,44 %
20.06.2019 17:18 27,7 C 26,7 C 38,9 C 48 % 1008,3 hPa 0,0 l/m 3,1 km/h (1 Bft) N 5 2 min 0,000 mm 1,7 UV-I 553 W/m 15,7 C 27,7 C 6,4 km/h (2 Bft) 95,45 %
20.06.2019 17:20 27,7 C 26,7 C 38,9 C 48 % 1008,3 hPa 0,0 l/m 3,2 km/h (1 Bft) N-NO 33 2 min 0,000 mm 1,6 UV-I 471 W/m 15,7 C 27,7 C 6,4 km/h (2 Bft) 98,00 %
20.06.2019 17:22 27,7 C 26,7 C 38,3 C 50 % 1008,2 hPa 0,0 l/m 4,8 km/h (1 Bft) NO 42 2 min 0,000 mm 1,5 UV-I 449 W/m 16,3 C 27,7 C 8,0 km/h (2 Bft) 93,62 %
20.06.2019 17:24 27,7 C 26,7 C 37,2 C 45 % 1008,2 hPa 0,0 l/m 3,5 km/h (1 Bft) W-SW 249 2 min 0,000 mm 1,4 UV-I 382 W/m 14,7 C 27,7 C 6,4 km/h (2 Bft) 96,00 %
20.06.2019 17:26 27,7 C 26,7 C 36,1 C 42 % 1008,2 hPa 0,0 l/m 2,8 km/h (1 Bft) W-NW 287 0 min 0,000 mm 1,2 UV-I 245 W/m 13,6 C 27,7 C 4,8 km/h (1 Bft) 100,00 %
20.06.2019 17:28 27,7 C 26,7 C 34,4 C 45 % 1008,2 hPa 0,0 l/m 1,5 km/h (1 Bft) NO 40 0 min 0,000 mm 1,0 UV-I 161 W/m 14,7 C 27,7 C 3,2 km/h (1 Bft) 98,31 %
20.06.2019 17:30 27,4 C 26,7 C 32,8 C 43 % 1008,3 hPa 0,0 l/m 2,8 km/h (1 Bft) W-NW 290 0 min 0,000 mm 0,9 UV-I 146 W/m 13,7 C 27,4 C 4,8 km/h (1 Bft) 100,00 %
20.06.2019 17:32 27,3 C 26,7 C 31,7 C 44 % 1008,2 hPa 0,0 l/m 2,1 km/h (1 Bft) W-NW 288 0 min 0,000 mm 0,9 UV-I 167 W/m 14,0 C 27,3 C 3,2 km/h (1 Bft) 100,00 %
20.06.2019 17:34 27,3 C 26,7 C 32,2 C 44 % 1008,3 hPa 0,0 l/m 2,5 km/h (1 Bft) NO 42 0 min 0,000 mm 1,0 UV-I 245 W/m 14,0 C 27,3 C 6,4 km/h (2 Bft) 100,00 %
20.06.2019 17:36 27,1 C 26,7 C 32,2 C 50 % 1008,4 hPa 0,0 l/m 6,3 km/h (2 Bft) NO 34 0 min 0,000 mm 1,0 UV-I 282 W/m 15,8 C 27,1 C 8,0 km/h (2 Bft) 100,00 %
20.06.2019 17:38 26,9 C 26,7 C 32,8 C 48 % 1008,5 hPa 0,0 l/m 6,1 km/h (2 Bft) N-NO 32 2 min 0,000 mm 1,1 UV-I 365 W/m 14,9 C 26,9 C 8,0 km/h (2 Bft) 100,00 %
20.06.2019 17:40 27,0 C 26,7 C 32,8 C 47 % 1008,5 hPa 0,0 l/m 3,5 km/h (1 Bft) N-NO 27 2 min 0,000 mm 1,0 UV-I 325 W/m 14,7 C 27,0 C 4,8 km/h (1 Bft) 100,00 %
20.06.2019 17:42 26,9 C 26,7 C 32,2 C 48 % 1008,6 hPa 0,0 l/m 3,0 km/h (1 Bft) NW 305 0 min 0,000 mm 1,0 UV-I 230 W/m 14,9 C 26,9 C 6,4 km/h (2 Bft) 100,00 %
20.06.2019 17:44 27,2 C 26,7 C 32,2 C 46 % 1008,6 hPa 0,0 l/m 4,1 km/h (1 Bft) N-NW 328 0 min 0,000 mm 1,0 UV-I 227 W/m 14,6 C 27,2 C 6,4 km/h (2 Bft) 98,00 %
20.06.2019 17:46 27,2 C 26,7 C 31,1 C 46 % 1008,6 hPa 0,0 l/m 2,8 km/h (1 Bft) N-NW 338 0 min 0,000 mm 0,9 UV-I 221 W/m 14,6 C 27,2 C 4,8 km/h (1 Bft) 100,00 %
20.06.2019 17:48 27,1 C 26,7 C 31,1 C 49 % 1008,7 hPa 0,0 l/m 3,8 km/h (1 Bft) NO 39 0 min 0,000 mm 0,9 UV-I 213 W/m 15,4 C 27,1 C 6,4 km/h (2 Bft) 100,00 %
20.06.2019 17:50 26,9 C 26,7 C 30,6 C 49 % 1008,7 hPa 0,0 l/m 2,8 km/h (1 Bft) NO 38 0 min 0,000 mm 0,8 UV-I 202 W/m 15,3 C 26,9 C 4,8 km/h (1 Bft) 100,00 %
20.06.2019 17:52 26,8 C 26,7 C 30,0 C 49 % 1008,8 hPa 0,0 l/m 1,4 km/h (1 Bft) NO 38 0 min 0,000 mm 0,7 UV-I 185 W/m 15,2 C 26,8 C 3,2 km/h (1 Bft) 100,00 %
20.06.2019 17:54 26,7 C 26,7 C 30,0 C 51 % 1008,9 hPa 0,0 l/m 1,7 km/h (1 Bft) N 11 0 min 0,000 mm 0,7 UV-I 171 W/m 15,7 C 26,7 C 4,8 km/h (1 Bft) 100,00 %
20.06.2019 17:56 26,7 C 26,7 C 29,4 C 51 % 1008,9 hPa 0,0 l/m 2,2 km/h (1 Bft) SW 222 0 min 0,000 mm 0,6 UV-I 162 W/m 15,7 C 26,7 C 6,4 km/h (2 Bft) 98,11 %
20.06.2019 17:58 26,7 C 26,7 C 29,4 C 49 % 1008,9 hPa 0,0 l/m 1,9 km/h (1 Bft) NW 314 0 min 0,000 mm 0,6 UV-I 156 W/m 15,1 C 26,7 C 3,2 km/h (1 Bft) 100,00 %
20.06.2019 18:00 26,7 C 26,7 C 28,9 C 49 % 1008,9 hPa 0,0 l/m 4,1 km/h (1 Bft) N-NO 30 0 min 0,000 mm 0,6 UV-I 152 W/m 15,1 C 26,7 C 6,4 km/h (2 Bft) 100,00 %
20.06.2019 18:02 26,6 C 26,7 C 28,9 C 51 % 1008,9 hPa 0,0 l/m 5,0 km/h (1 Bft) N-NW 348 0 min 0,229 mm 0,5 UV-I 150 W/m 15,6 C 26,6 C 6,4 km/h (2 Bft) 100,00 %
20.06.2019 18:04 26,4 C 26,7 C 28,3 C 50 % 1008,9 hPa 0,0 l/m 4,5 km/h (1 Bft) N 360 0 min 0,000 mm 0,5 UV-I 147 W/m 15,1 C 26,4 C 6,4 km/h (2 Bft) 100,00 %
20.06.2019 18:06 26,1 C 26,7 C 28,3 C 56 % 1009,0 hPa 0,0 l/m 5,0 km/h (1 Bft) NO 37 0 min 0,000 mm 0,5 UV-I 141 W/m 16,6 C 26,1 C 8,0 km/h (2 Bft) 100,00 %
20.06.2019 18:08 25,9 C 26,7 C 27,8 C 56 % 1009,0 hPa 0,0 l/m 4,2 km/h (1 Bft) O-NO 60 0 min 0,000 mm 0,5 UV-I 134 W/m 16,4 C 25,9 C 6,4 km/h (2 Bft) 100,00 %
20.06.2019 18:10 25,9 C 26,7 C 27,8 C 52 % 1009,0 hPa 0,0 l/m 2,0 km/h (1 Bft) O-NO 60 0 min 0,000 mm 0,2 UV-I 126 W/m 15,3 C 25,9 C 3,2 km/h (1 Bft) 100,00 %
20.06.2019 18:12 26,1 C 26,7 C 27,8 C 53 % 1009,0 hPa 0,0 l/m 1,8 km/h (1 Bft) O-NO 60 0 min 0,000 mm 0,0 UV-I 118 W/m 15,8 C 26,1 C 4,8 km/h (1 Bft) 100,00 %
20.06.2019 18:14 26,2 C 26,7 C 27,8 C 56 % 1009,0 hPa 0,0 l/m 4,1 km/h (1 Bft) O-NO 69 0 min 0,000 mm 0,0 UV-I 113 W/m 16,7 C 26,2 C 4,8 km/h (1 Bft) 97,87 %
20.06.2019 18:16 26,1 C 26,7 C 27,2 C 53 % 1009,0 hPa 0,0 l/m 3,9 km/h (1 Bft) NO 51 0 min 0,000 mm 0,0 UV-I 106 W/m 15,8 C 26,1 C 6,4 km/h (2 Bft) 100,00 %
20.06.2019 18:18 26,0 C 26,7 C 27,2 C 53 % 1009,0 hPa 0,0 l/m 4,8 km/h (1 Bft) O-NO 59 0 min 0,000 mm 0,0 UV-I 99 W/m 15,7 C 26,0 C 6,4 km/h (2 Bft) 100,00 %
20.06.2019 18:20 25,9 C 26,7 C 26,7 C 52 % 1009,0 hPa 0,0 l/m 4,2 km/h (1 Bft) O-NO 63 0 min 0,000 mm 0,0 UV-I 92 W/m 15,3 C 25,9 C 6,4 km/h (2 Bft) 95,45 %
20.06.2019 18:22 26,0 C 26,7 C 26,7 C 52 % 1009,0 hPa 0,0 l/m 3,5 km/h (1 Bft) O-NO 63 0 min 0,000 mm 0,0 UV-I 88 W/m 15,4 C 26,0 C 4,8 km/h (1 Bft) 98,00 %
20.06.2019 18:24 26,1 C 26,7 C 26,7 C 50 % 1009,1 hPa 0,0 l/m 2,7 km/h (1 Bft) O-NO 63 0 min 0,000 mm 0,0 UV-I 83 W/m 14,8 C 26,1 C 3,2 km/h (1 Bft) 100,00 %
20.06.2019 18:26 26,2 C 26,7 C 26,1 C 51 % 1009,1 hPa 0,0 l/m 2,1 km/h (1 Bft) O-NO 63 0 min 0,000 mm 0,0 UV-I 78 W/m 15,2 C 26,2 C 3,2 km/h (1 Bft) 98,00 %
20.06.2019 18:28 26,2 C 26,7 C 25,6 C 49 % 1009,2 hPa 0,0 l/m 2,0 km/h (1 Bft) O-NO 63 0 min 0,000 mm 0,0 UV-I 74 W/m 14,6 C 26,2 C 3,2 km/h (1 Bft) 97,87 %
20.06.2019 18:30 26,2 C 26,7 C 25,6 C 53 % 1009,3 hPa 0,0 l/m 1,8 km/h (1 Bft) O-NO 63 0 min 0,000 mm 0,0 UV-I 71 W/m 15,8 C 26,2 C 3,2 km/h (1 Bft) 97,22 %
20.06.2019 18:32 26,1 C 26,7 C 25,6 C 50 % 1009,3 hPa 0,0 l/m 1,1 km/h (1 Bft) O-NO 63 0 min 0,000 mm 0,0 UV-I 65 W/m 14,8 C 26,1 C 3,2 km/h (1 Bft) 98,08 %
20.06.2019 18:34 26,2 C 26,7 C 25,6 C 49 % 1009,4 hPa 0,0 l/m 0,6 km/h (0 Bft) O-NO 63 0 min 0,000 mm 0,0 UV-I 62 W/m 14,6 C 26,2 C 1,6 km/h (1 Bft) 96,00 %
20.06.2019 18:36 26,2 C 26,7 C 25,6 C 51 % 1009,4 hPa 0,0 l/m 1,0 km/h (0 Bft) O-NO 63 0 min 0,000 mm 0,0 UV-I 57 W/m 15,2 C 26,2 C 1,6 km/h (1 Bft) 97,92 %
20.06.2019 18:38 26,3 C 26,7 C 25,6 C 48 % 1009,5 hPa 0,0 l/m 0,7 km/h (0 Bft) O-NO 63 0 min 0,000 mm 0,0 UV-I 52 W/m 14,4 C 26,3 C 1,6 km/h (1 Bft) 95,74 %
20.06.2019 18:40 26,4 C 26,7 C 25,6 C 47 % 1009,5 hPa 0,0 l/m 0,6 km/h (0 Bft) O-NO 63 0 min 0,000 mm 0,0 UV-I 47 W/m 14,2 C 26,4 C 1,6 km/h (1 Bft) 95,12 %
20.06.2019 18:42 26,3 C 26,7 C 25,6 C 50 % 1009,5 hPa 0,0 l/m 3,0 km/h (1 Bft) W-NW 303 0 min 0,000 mm 0,0 UV-I 44 W/m 15,0 C 26,3 C 4,8 km/h (1 Bft) 93,62 %
20.06.2019 18:44 26,3 C 26,7 C 25,6 C 52 % 1009,7 hPa 0,0 l/m 2,5 km/h (1 Bft) W 274 0 min 0,000 mm 0,0 UV-I 42 W/m 15,6 C 26,3 C 4,8 km/h (1 Bft) 93,10 %
20.06.2019 18:46 26,1 C 26,7 C 25,6 C 54 % 1009,7 hPa 0,0 l/m 4,1 km/h (1 Bft) W-SW 240 0 min 0,000 mm 0,0 UV-I 41 W/m 16,0 C 26,1 C 6,4 km/h (2 Bft) 95,38 %
20.06.2019 18:48 26,0 C 26,7 C 25,6 C 56 % 1009,8 hPa 0,0 l/m 4,4 km/h (1 Bft) W 267 0 min 0,000 mm 0,0 UV-I 40 W/m 16,5 C 26,0 C 11,3 km/h (2 Bft) 96,23 %
20.06.2019 18:50 25,8 C 26,7 C 25,6 C 52 % 1009,9 hPa 0,0 l/m 8,7 km/h (2 Bft) W 262 0 min 0,000 mm 0,0 UV-I 39 W/m 15,2 C 25,3 C 12,9 km/h (3 Bft) 91,43 %
20.06.2019 18:52 25,7 C 26,7 C 25,6 C 51 % 1010,0 hPa 0,0 l/m 9,4 km/h (2 Bft) W 261 0 min 0,000 mm 0,0 UV-I 36 W/m 14,8 C 25,0 C 16,1 km/h (3 Bft) 96,00 %
20.06.2019 18:54 25,7 C 26,7 C 25,6 C 51 % 1010,1 hPa 0,0 l/m 11,1 km/h (2 Bft) W-SW 250 0 min 0,000 mm 0,0 UV-I 32 W/m 14,8 C 24,7 C 17,7 km/h (3 Bft) 96,00 %
20.06.2019 18:56 25,6 C 26,7 C 25,0 C 51 % 1010,3 hPa 0,0 l/m 15,2 km/h (3 Bft) N-NO 12 0 min 0,000 mm 0,0 UV-I 26 W/m 14,7 C 24,0 C 25,7 km/h (4 Bft) 98,11 %
20.06.2019 18:59 25,4 C 26,7 C 24,4 C 50 % 1010,9 hPa 0,0 l/m 18,6 km/h (3 Bft) W-NW 296 0 min 0,000 mm 0,0 UV-I 17 W/m 14,2 C 23,3 C 27,4 km/h (4 Bft) 95,59 %
20.06.2019 19:00 25,4 C 26,7 C 24,4 C 51 % 1010,9 hPa 0,0 l/m 18,0 km/h (3 Bft) W-SW 256 0 min 0,000 mm 0,0 UV-I 11 W/m 14,5 C 23,4 C 35,4 km/h (5 Bft) 100,00 %
20.06.2019 19:02 25,2 C 26,7 C 23,9 C 51 % 1011,3 hPa 0,0 l/m 42,5 km/h (6 Bft) W 265 0 min 0,102 mm 0,0 UV-I 9 W/m 14,3 C 21,3 C 72,4 km/h (8 Bft) 97,44 %
20.06.2019 19:04 23,9 C 26,7 C 22,8 C 54 % 1011,5 hPa 0,0 l/m 33,9 km/h (5 Bft) W-SW 251 0 min 0,000 mm 0,0 UV-I 6 W/m 14,0 C 19,9 C 49,9 km/h (6 Bft) 98,18 %
20.06.2019 19:06 22,7 C 26,1 C 22,2 C 58 % 1011,5 hPa 0,0 l/m 31,1 km/h (5 Bft) SW 219 0 min 0,000 mm 0,0 UV-I 5 W/m 14,0 C 18,4 C 54,7 km/h (7 Bft) 98,11 %
20.06.2019 19:09 21,3 C 26,1 C 20,6 C 65 % 1011,6 hPa 0,0 l/m 35,7 km/h (5 Bft) W 267 0 min 0,000 mm 0,0 UV-I 8 W/m 14,4 C 16,0 C 61,2 km/h (7 Bft) 100,00 %
20.06.2019 19:10 20,9 C 26,1 C 20,0 C 66 % 1011,6 hPa 0,0 l/m 32,8 km/h (5 Bft) SW 227 0 min 0,000 mm 0,0 UV-I 9 W/m 14,3 C 15,7 C 46,7 km/h (6 Bft) 100,00 %
20.06.2019 19:12 20,3 C 26,7 C 18,9 C 68 % 1011,6 hPa 0,0 l/m 30,9 km/h (5 Bft) W 262 0 min 0,000 mm 0,0 UV-I 9 W/m 14,2 C 15,0 C 49,9 km/h (6 Bft) 100,00 %
20.06.2019 19:14 19,7 C 26,7 C 18,3 C 73 % 1011,8 hPa 0,0 l/m 28,8 km/h (4 Bft) SW 236 0 min 0,000 mm 0,0 UV-I 9 W/m 14,7 C 14,4 C 40,2 km/h (6 Bft) 100,00 %
20.06.2019 19:16 19,2 C 26,7 C 17,8 C 76 % 1011,8 hPa 0,0 l/m 28,6 km/h (4 Bft) W 278 0 min 0,000 mm 0,0 UV-I 9 W/m 14,9 C 13,8 C 48,3 km/h (6 Bft) 100,00 %
20.06.2019 19:18 18,7 C 26,7 C 16,7 C 78 % 1011,9 hPa 0,2 l/m 30,1 km/h (5 Bft) W-SW 246 0 min 0,000 mm 0,0 UV-I 7 W/m 14,8 C 12,9 C 48,3 km/h (6 Bft) 100,00 %
20.06.2019 19:20 18,3 C 26,1 C 16,7 C 81 % 1012,1 hPa 0,2 l/m 27,1 km/h (4 Bft) W-SW 248 0 min 0,000 mm 0,0 UV-I 7 W/m 15,0 C 12,7 C 49,9 km/h (6 Bft) 98,00 %
20.06.2019 19:22 17,8 C 26,7 C 16,7 C 83 % 1012,1 hPa 0,0 l/m 32,1 km/h (5 Bft) W 268 0 min 0,000 mm 0,0 UV-I 7 W/m 14,9 C 11,3 C 41,8 km/h (6 Bft) 100,00 %
20.06.2019 19:24 17,4 C 26,7 C 16,1 C 84 % 1012,2 hPa 0,2 l/m 25,3 km/h (4 Bft) W 259 0 min 0,000 mm 0,0 UV-I 5 W/m 14,7 C 11,8 C 43,5 km/h (6 Bft) 100,00 %
20.06.2019 19:26 17,1 C 26,1 C 16,1 C 86 % 1012,2 hPa 0,2 l/m 24,9 km/h (4 Bft) W 262 0 min 0,000 mm 0,0 UV-I 5 W/m 14,7 C 11,5 C 37,0 km/h (5 Bft) 100,00 %
20.06.2019 19:29 16,8 C 26,1 C 16,1 C 87 % 1012,2 hPa 0,0 l/m 23,8 km/h (4 Bft) W 275 0 min 0,000 mm 0,0 UV-I 5 W/m 14,6 C 11,3 C 38,6 km/h (5 Bft) 100,00 %
20.06.2019 19:30 16,7 C 26,1 C 16,1 C 88 % 1012,4 hPa 0,0 l/m 19,3 km/h (3 Bft) W-NW 286 0 min 0,000 mm 0,0 UV-I 5 W/m 14,7 C 12,1 C 27,4 km/h (4 Bft) 100,00 %
20.06.2019 19:32 16,6 C 26,1 C 16,7 C 89 % 1012,3 hPa 0,0 l/m 22,2 km/h (4 Bft) W-SW 243 0 min 0,000 mm 0,0 UV-I 5 W/m 14,8 C 11,3 C 33,8 km/h (5 Bft) 100,00 %
20.06.2019 19:34 16,6 C 26,1 C 16,1 C 89 % 1012,4 hPa 0,0 l/m 22,3 km/h (4 Bft) W 272 0 min 0,000 mm 0,0 UV-I 5 W/m 14,8 C 11,3 C 33,8 km/h (5 Bft) 97,87 %
20.06.2019 19:36 16,4 C 26,1 C 16,1 C 90 % 1012,4 hPa 0,2 l/m 21,4 km/h (4 Bft) W-SW 257 0 min 0,000 mm 0,0 UV-I 5 W/m 14,8 C 11,2 C 33,8 km/h (5 Bft) 100,00 %
20.06.2019 19:38 16,4 C 26,1 C 16,1 C 91 % 1012,3 hPa 0,0 l/m 16,5 km/h (3 Bft) W-SW 257 0 min 0,000 mm 0,0 UV-I 5 W/m 14,9 C 12,5 C 24,1 km/h (4 Bft) 98,21 %
20.06.2019 19:40 16,3 C 26,1 C 16,1 C 91 % 1012,4 hPa 0,2 l/m 13,7 km/h (3 Bft) W-SW 257 0 min 0,000 mm 0,0 UV-I 5 W/m 14,8 C 13,2 C 17,7 km/h (3 Bft) 100,00 %
20.06.2019 19:42 16,3 C 26,1 C 16,7 C 91 % 1012,3 hPa 0,0 l/m 15,4 km/h (3 Bft) W 281 0 min 0,000 mm 0,0 UV-I 5 W/m 14,8 C 12,6 C 25,7 km/h (4 Bft) 98,00 %
20.06.2019 19:44 16,3 C 26,1 C 16,7 C 91 % 1012,4 hPa 0,0 l/m 16,7 km/h (3 Bft) W-SW 246 0 min 0,000 mm 0,0 UV-I 5 W/m 14,8 C 12,3 C 25,7 km/h (4 Bft) 98,11 %
20.06.2019 19:46 16,3 C 26,1 C 16,1 C 92 % 1012,6 hPa 0,0 l/m 14,1 km/h (3 Bft) SW 233 0 min 0,000 mm 0,0 UV-I 5 W/m 15,0 C 13,0 C 19,3 km/h (3 Bft) 97,62 %
20.06.2019 19:48 16,3 C 26,1 C 16,1 C 92 % 1012,7 hPa 0,2 l/m 16,4 km/h (3 Bft) W 265 0 min 0,000 mm 0,0 UV-I 5 W/m 15,0 C 12,4 C 25,7 km/h (4 Bft) 97,96 %
20.06.2019 19:50 16,2 C 26,1 C 16,1 C 92 % 1012,8 hPa 0,0 l/m 14,3 km/h (3 Bft) W-SW 252 0 min 0,000 mm 0,0 UV-I 5 W/m 14,9 C 12,9 C 20,9 km/h (4 Bft) 96,00 %
20.06.2019 19:52 16,2 C 26,1 C 16,1 C 92 % 1012,8 hPa 0,2 l/m 16,0 km/h (3 Bft) SW 220 0 min 0,000 mm 0,0 UV-I 5 W/m 14,9 C 12,3 C 27,4 km/h (4 Bft) 97,92 %
20.06.2019 19:54 16,2 C 26,1 C 16,1 C 92 % 1012,8 hPa 0,0 l/m 14,0 km/h (3 Bft) S-SW 211 0 min 0,000 mm 0,0 UV-I 5 W/m 14,9 C 13,0 C 24,1 km/h (4 Bft) 97,56 %
20.06.2019 19:56 16,3 C 26,1 C 16,1 C 92 % 1012,7 hPa 0,2 l/m 13,1 km/h (3 Bft) SW 230 0 min 0,000 mm 0,0 UV-I 5 W/m 15,0 C 13,4 C 22,5 km/h (4 Bft) 98,00 %
20.06.2019 19:58 16,3 C 26,1 C 16,7 C 92 % 1012,8 hPa 0,2 l/m 11,1 km/h (2 Bft) S-SW 207 0 min 0,000 mm 0,0 UV-I 5 W/m 15,0 C 14,1 C 17,7 km/h (3 Bft) 97,73 %
20.06.2019 20:00 16,3 C 26,1 C 16,7 C 92 % 1012,8 hPa 0,0 l/m 11,9 km/h (2 Bft) W-SW 237 0 min 0,000 mm 0,0 UV-I 5 W/m 15,0 C 13,8 C 16,1 km/h (3 Bft) 98,00 %
20.06.2019 20:02 16,4 C 26,1 C 16,7 C 93 % 1012,8 hPa 0,0 l/m 8,2 km/h (2 Bft) W-SW 257 0 min 0,076 mm 0,0 UV-I 5 W/m 15,3 C 15,5 C 14,5 km/h (3 Bft) 97,14 %
20.06.2019 20:04 16,3 C 26,1 C 16,7 C 93 % 1012,8 hPa 0,0 l/m 6,4 km/h (2 Bft) W-SW 246 0 min 0,000 mm 0,0 UV-I 5 W/m 15,2 C 16,3 C 11,3 km/h (2 Bft) 98,21 %
20.06.2019 20:06 16,3 C 26,1 C 16,7 C 93 % 1012,9 hPa 0,2 l/m 8,1 km/h (2 Bft) W-SW 251 0 min 0,000 mm 0,0 UV-I 5 W/m 15,2 C 15,4 C 12,9 km/h (3 Bft) 98,00 %
20.06.2019 20:09 16,3 C 26,1 C 16,7 C 93 % 1013,0 hPa 0,0 l/m 7,4 km/h (2 Bft) W-SW 239 0 min 0,000 mm 0,0 UV-I 5 W/m 15,2 C 15,8 C 12,9 km/h (3 Bft) 94,92 %
20.06.2019 20:10 16,3 C 26,1 C 16,7 C 93 % 1013,0 hPa 0,2 l/m 12,3 km/h (3 Bft) SW 223 0 min 0,000 mm 0,0 UV-I 5 W/m 15,2 C 13,7 C 16,1 km/h (3 Bft) 96,55 %
20.06.2019 20:12 16,3 C 26,1 C 16,7 C 93 % 1012,9 hPa 0,0 l/m 10,1 km/h (2 Bft) W-SW 250 0 min 0,000 mm 0,0 UV-I 5 W/m 15,2 C 14,5 C 14,5 km/h (3 Bft) 96,00 %
20.06.2019 20:14 16,3 C 26,1 C 16,7 C 94 % 1012,9 hPa 0,0 l/m 12,6 km/h (3 Bft) W-SW 252 0 min 0,000 mm 0,0 UV-I 5 W/m 15,3 C 13,6 C 17,7 km/h (3 Bft) 93,62 %
20.06.2019 20:16 16,3 C 26,1 C 16,7 C 93 % 1012,8 hPa 0,0 l/m 15,9 km/h (3 Bft) W-SW 255 0 min 0,000 mm 0,0 UV-I 5 W/m 15,2 C 12,5 C 20,9 km/h (4 Bft) 96,00 %
20.06.2019 20:19 16,3 C 26,1 C 16,7 C 94 % 1012,7 hPa 0,0 l/m 15,6 km/h (3 Bft) W 268 0 min 0,000 mm 0,0 UV-I 7 W/m 15,3 C 12,6 C 20,9 km/h (4 Bft) 93,55 %
20.06.2019 20:20 16,3 C 26,1 C 16,7 C 94 % 1012,7 hPa 0,0 l/m 16,3 km/h (3 Bft) W 266 0 min 0,000 mm 0,0 UV-I 7 W/m 15,3 C 12,4 C 20,9 km/h (4 Bft) 86,96 %
20.06.2019 20:22 16,3 C 26,1 C 16,7 C 93 % 1012,8 hPa 0,0 l/m 14,6 km/h (3 Bft) W 266 0 min 0,000 mm 0,0 UV-I 7 W/m 15,2 C 12,9 C 20,9 km/h (4 Bft) 92,31 %
20.06.2019 20:24 16,3 C 26,1 C 16,1 C 93 % 1012,8 hPa 0,0 l/m 15,4 km/h (3 Bft) W-SW 253 0 min 0,000 mm 0,0 UV-I 7 W/m 15,2 C 12,6 C 22,5 km/h (4 Bft) 94,83 %
20.06.2019 20:26 16,2 C 26,1 C 16,1 C 93 % 1012,8 hPa 0,0 l/m 15,9 km/h (3 Bft) W 278 0 min 0,000 mm 0,0 UV-I 9 W/m 15,1 C 12,4 C 22,5 km/h (4 Bft) 95,83 %
20.06.2019 20:28 16,3 C 26,1 C 16,1 C 93 % 1012,8 hPa 0,0 l/m 16,4 km/h (3 Bft) W-NW 290 0 min 0,000 mm 0,0 UV-I 9 W/m 15,2 C 12,4 C 24,1 km/h (4 Bft) 94,00 %
20.06.2019 20:30 16,3 C 26,1 C 16,1 C 93 % 1012,8 hPa 0,0 l/m 16,5 km/h (3 Bft) W 263 0 min 0,000 mm 0,0 UV-I 9 W/m 15,2 C 12,3 C 25,7 km/h (4 Bft) 93,18 %
20.06.2019 20:32 16,3 C 26,1 C 16,1 C 93 % 1012,8 hPa 0,0 l/m 13,9 km/h (3 Bft) W 259 0 min 0,000 mm 0,0 UV-I 9 W/m 15,2 C 13,1 C 19,3 km/h (3 Bft) 94,00 %
20.06.2019 20:34 16,3 C 26,1 C 16,1 C 93 % 1012,9 hPa 0,0 l/m 17,6 km/h (3 Bft) W 277 0 min 0,000 mm 0,0 UV-I 9 W/m 15,2 C 12,0 C 24,1 km/h (4 Bft) 94,74 %
20.06.2019 20:36 16,3 C 26,1 C 16,1 C 93 % 1013,0 hPa 0,0 l/m 15,0 km/h (3 Bft) W-SW 244 0 min 0,000 mm 0,0 UV-I 9 W/m 15,2 C 12,8 C 20,9 km/h (4 Bft) 92,45 %
20.06.2019 20:39 16,2 C 26,1 C 16,1 C 93 % 1013,1 hPa 0,0 l/m 14,9 km/h (3 Bft) W 275 0 min 0,000 mm 0,0 UV-I 9 W/m 15,1 C 12,7 C 20,9 km/h (4 Bft) 98,46 %
20.06.2019 20:40 16,2 C 26,1 C 16,1 C 93 % 1013,1 hPa 0,0 l/m 21,0 km/h (4 Bft) W 275 0 min 0,000 mm 0,0 UV-I 9 W/m 15,1 C 11,1 C 29,0 km/h (5 Bft) 92,31 %
20.06.2019 20:42 16,2 C 26,1 C 16,1 C 93 % 1013,1 hPa 0,2 l/m 17,8 km/h (3 Bft) W-NW 284 0 min 0,000 mm 0,0 UV-I 9 W/m 15,1 C 11,8 C 22,5 km/h (4 Bft) 98,00 %
20.06.2019 20:44 16,2 C 26,1 C 16,1 C 93 % 1013,0 hPa 0,0 l/m 16,9 km/h (3 Bft) NW 315 0 min 0,000 mm 0,0 UV-I 9 W/m 15,1 C 12,1 C 27,4 km/h (4 Bft) 97,87 %
20.06.2019 20:46 16,2 C 26,1 C 16,1 C 93 % 1013,0 hPa 0,0 l/m 13,9 km/h (3 Bft) W-SW 250 0 min 0,000 mm 0,0 UV-I 9 W/m 15,1 C 13,0 C 22,5 km/h (4 Bft) 97,56 %
20.06.2019 20:48 16,2 C 26,1 C 16,1 C 93 % 1013,0 hPa 0,0 l/m 13,5 km/h (3 Bft) W 269 0 min 0,000 mm 0,0 UV-I 9 W/m 15,1 C 13,1 C 19,3 km/h (3 Bft) 97,87 %
20.06.2019 20:50 16,1 C 26,1 C 16,1 C 93 % 1013,0 hPa 0,0 l/m 13,6 km/h (3 Bft) W 265 0 min 0,000 mm 0,0 UV-I 9 W/m 15,0 C 13,0 C 19,3 km/h (3 Bft) 98,11 %
20.06.2019 20:52 16,2 C 26,1 C 16,1 C 93 % 1013,0 hPa 0,0 l/m 14,0 km/h (3 Bft) W 281 0 min 0,000 mm 0,0 UV-I 8 W/m 15,1 C 13,0 C 24,1 km/h (4 Bft) 100,00 %
20.06.2019 20:54 16,2 C 26,1 C 16,1 C 93 % 1013,1 hPa 0,0 l/m 13,3 km/h (3 Bft) W 281 0 min 0,000 mm 0,0 UV-I 7 W/m 15,1 C 13,2 C 22,5 km/h (4 Bft) 97,87 %
20.06.2019 20:56 16,1 C 26,1 C 16,1 C 93 % 1013,1 hPa 0,0 l/m 14,1 km/h (3 Bft) W 279 0 min 0,000 mm 0,0 UV-I 6 W/m 15,0 C 12,8 C 17,7 km/h (3 Bft) 97,56 %
20.06.2019 20:58 16,1 C 26,1 C 16,1 C 93 % 1013,1 hPa 0,0 l/m 13,8 km/h (3 Bft) W 263 0 min 0,000 mm 0,0 UV-I 5 W/m 15,0 C 12,9 C 19,3 km/h (3 Bft) 100,00 %
20.06.2019 21:00 16,1 C 26,1 C 16,1 C 93 % 1013,2 hPa 0,0 l/m 12,2 km/h (2 Bft) W-SW 258 0 min 0,000 mm 0,0 UV-I 5 W/m 15,0 C 13,5 C 17,7 km/h (3 Bft) 100,00 %
20.06.2019 21:02 16,1 C 26,1 C 16,1 C 93 % 1013,3 hPa 0,0 l/m 12,0 km/h (2 Bft) W-NW 294 0 min 0,025 mm 0,0 UV-I 5 W/m 15,0 C 13,5 C 16,1 km/h (3 Bft) 97,87 %
20.06.2019 21:04 16,1 C 26,1 C 16,1 C 93 % 1013,3 hPa 0,0 l/m 13,9 km/h (3 Bft) W 267 0 min 0,000 mm 0,0 UV-I 2 W/m 15,0 C 12,9 C 19,3 km/h (3 Bft) 100,00 %
20.06.2019 21:06 16,1 C 26,1 C 16,1 C 93 % 1013,4 hPa 0,0 l/m 14,9 km/h (3 Bft) SW 236 0 min 0,000 mm 0,0 UV-I 0 W/m 15,0 C 12,6 C 20,9 km/h (4 Bft) 100,00 %
20.06.2019 21:08 16,2 C 26,1 C 16,1 C 93 % 1013,5 hPa 0,0 l/m 13,7 km/h (3 Bft) SW 234 0 min 0,000 mm 0,0 UV-I 0 W/m 15,1 C 13,1 C 17,7 km/h (3 Bft) 97,87 %
20.06.2019 21:10 16,2 C 26,1 C 16,1 C 93 % 1013,6 hPa 0,0 l/m 13,8 km/h (3 Bft) SW 227 0 min 0,000 mm 0,0 UV-I 0 W/m 15,1 C 13,0 C 20,9 km/h (4 Bft) 100,00 %
20.06.2019 21:12 16,2 C 26,1 C 16,7 C 93 % 1013,8 hPa 0,0 l/m 13,1 km/h (3 Bft) W-SW 244 0 min 0,000 mm 0,0 UV-I 0 W/m 15,1 C 13,3 C 24,1 km/h (4 Bft) 100,00 %
20.06.2019 21:14 16,2 C 26,1 C 16,7 C 93 % 1013,9 hPa 0,0 l/m 13,6 km/h (3 Bft) W-SW 238 0 min 0,000 mm 0,0 UV-I 0 W/m 15,1 C 13,1 C 20,9 km/h (4 Bft) 100,00 %
20.06.2019 21:16 16,2 C 26,1 C 16,7 C 93 % 1014,0 hPa 0,0 l/m 8,9 km/h (2 Bft) SW 236 0 min 0,000 mm 0,0 UV-I 0 W/m 15,1 C 14,9 C 11,3 km/h (2 Bft) 97,56 %
20.06.2019 21:18 16,2 C 26,1 C 16,7 C 93 % 1014,1 hPa 0,0 l/m 15,1 km/h (3 Bft) SW 219 0 min 0,000 mm 0,0 UV-I 0 W/m 15,1 C 12,6 C 22,5 km/h (4 Bft) 100,00 %
20.06.2019 21:20 16,1 C 26,1 C 16,7 C 93 % 1014,1 hPa 0,0 l/m 10,2 km/h (2 Bft) W-SW 249 0 min 0,000 mm 0,0 UV-I 0 W/m 15,0 C 14,2 C 17,7 km/h (3 Bft) 100,00 %
20.06.2019 21:22 16,2 C 26,1 C 16,7 C 93 % 1014,2 hPa 0,0 l/m 9,1 km/h (2 Bft) W-SW 250 0 min 0,000 mm 0,0 UV-I 0 W/m 15,1 C 14,8 C 12,9 km/h (3 Bft) 100,00 %
20.06.2019 21:24 16,2 C 26,1 C 16,7 C 94 % 1014,2 hPa 0,0 l/m 8,0 km/h (2 Bft) SW 215 0 min 0,000 mm 0,0 UV-I 0 W/m 15,2 C 15,4 C 14,5 km/h (3 Bft) 100,00 %
20.06.2019 21:26 16,2 C 26,1 C 16,7 C 93 % 1014,3 hPa 0,0 l/m 9,4 km/h (2 Bft) W-SW 247 0 min 0,000 mm 0,0 UV-I 0 W/m 15,1 C 14,7 C 14,5 km/h (3 Bft) 97,87 %
20.06.2019 21:29 16,2 C 26,1 C 16,7 C 93 % 1014,4 hPa 0,0 l/m 8,8 km/h (2 Bft) SW 218 0 min 0,000 mm 0,0 UV-I 0 W/m 15,1 C 15,0 C 12,9 km/h (3 Bft) 98,53 %
20.06.2019 21:30 16,2 C 26,1 C 16,7 C 93 % 1014,4 hPa 0,0 l/m 8,0 km/h (2 Bft) SW 235 0 min 0,000 mm 0,0 UV-I 0 W/m 15,1 C 15,4 C 11,3 km/h (2 Bft) 92,31 %
20.06.2019 21:32 16,2 C 26,1 C 16,7 C 93 % 1014,4 hPa 0,0 l/m 6,4 km/h (2 Bft) SW 219 0 min 0,000 mm 0,0 UV-I 0 W/m 15,1 C 16,2 C 11,3 km/h (2 Bft) 97,14 %
20.06.2019 21:34 16,2 C 26,1 C 16,7 C 93 % 1014,5 hPa 0,0 l/m 6,4 km/h (2 Bft) S-SW 202 0 min 0,000 mm 0,0 UV-I 0 W/m 15,1 C 16,2 C 9,7 km/h (2 Bft) 100,00 %
20.06.2019 21:36 16,2 C 26,1 C 16,7 C 93 % 1014,5 hPa 0,0 l/m 7,4 km/h (2 Bft) SW 217 0 min 0,000 mm 0,0 UV-I 0 W/m 15,1 C 15,7 C 11,3 km/h (2 Bft) 100,00 %
20.06.2019 21:38 16,2 C 26,1 C 16,7 C 93 % 1014,5 hPa 0,0 l/m 8,0 km/h (2 Bft) S-SW 194 0 min 0,000 mm 0,0 UV-I 0 W/m 15,1 C 15,4 C 11,3 km/h (2 Bft) 98,11 %
20.06.2019 21:40 16,2 C 26,1 C 16,7 C 93 % 1014,6 hPa 0,0 l/m 4,8 km/h (1 Bft) SW 219 0 min 0,000 mm 0,0 UV-I 0 W/m 15,1 C 16,2 C 6,4 km/h (2 Bft) 97,62 %
20.06.2019 21:42 16,2 C 26,1 C 16,7 C 93 % 1014,6 hPa 0,0 l/m 6,8 km/h (2 Bft) S-SW 208 0 min 0,000 mm 0,0 UV-I 0 W/m 15,1 C 16,0 C 12,9 km/h (3 Bft) 98,11 %
20.06.2019 21:44 16,3 C 26,1 C 16,7 C 93 % 1014,5 hPa 0,0 l/m 7,3 km/h (2 Bft) SW 226 0 min 0,000 mm 0,0 UV-I 0 W/m 15,2 C 15,8 C 12,9 km/h (3 Bft) 97,37 %
20.06.2019 21:46 16,3 C 26,1 C 16,7 C 93 % 1014,5 hPa 0,0 l/m 8,0 km/h (2 Bft) SW 215 0 min 0,000 mm 0,0 UV-I 0 W/m 15,2 C 15,5 C 11,3 km/h (2 Bft) 98,11 %
20.06.2019 21:48 16,3 C 26,1 C 16,7 C 93 % 1014,5 hPa 0,0 l/m 6,2 km/h (2 Bft) SW 235 0 min 0,000 mm 0,0 UV-I 0 W/m 15,2 C 16,3 C 11,3 km/h (2 Bft) 98,00 %
20.06.2019 21:50 16,3 C 26,1 C 16,7 C 93 % 1014,5 hPa 0,0 l/m 7,6 km/h (2 Bft) W-SW 252 0 min 0,000 mm 0,0 UV-I 0 W/m 15,2 C 15,7 C 14,5 km/h (3 Bft) 94,74 %
20.06.2019 21:55 16,3 C 26,1 C 16,7 C 93 % 1014,5 hPa 0,0 l/m 6,4 km/h (2 Bft) SW 225 0 min 0,000 mm 0,0 UV-I 0 W/m 15,2 C 16,3 C 12,9 km/h (3 Bft) 98,25 %
20.06.2019 21:58 16,3 C 26,1 C 16,7 C 93 % 1014,6 hPa 0,2 l/m 5,4 km/h (1 Bft) W-SW 250 0 min 0,000 mm 0,0 UV-I 0 W/m 15,2 C 16,3 C 8,0 km/h (2 Bft) 97,37 %
20.06.2019 22:00 16,3 C 26,1 C 16,7 C 93 % 1014,6 hPa 0,0 l/m 4,9 km/h (1 Bft) W-SW 244 0 min 0,000 mm 0,0 UV-I 0 W/m 15,2 C 16,3 C 6,4 km/h (2 Bft) 96,23 %
20.06.2019 22:02 16,3 C 26,1 C 16,7 C 93 % 1014,6 hPa 0,0 l/m 6,4 km/h (2 Bft) SW 235 0 min 0,000 mm 0,0 UV-I 0 W/m 15,2 C 16,3 C 9,7 km/h (2 Bft) 97,56 %
20.06.2019 22:04 16,3 C 26,1 C 16,7 C 92 % 1014,6 hPa 0,0 l/m 3,6 km/h (1 Bft) W-SW 255 0 min 0,000 mm 0,0 UV-I 0 W/m 15,0 C 16,3 C 6,4 km/h (2 Bft) 98,00 %
20.06.2019 22:06 16,4 C 26,1 C 16,7 C 93 % 1014,6 hPa 0,0 l/m 4,8 km/h (1 Bft) W 266 0 min 0,000 mm 0,0 UV-I 0 W/m 15,3 C 16,4 C 6,4 km/h (2 Bft) 100,00 %
20.06.2019 22:08 16,4 C 26,1 C 16,7 C 92 % 1014,6 hPa 0,0 l/m 3,6 km/h (1 Bft) W 267 0 min 0,000 mm 0,0 UV-I 0 W/m 15,1 C 16,4 C 6,4 km/h (2 Bft) 100,00 %
20.06.2019 22:10 16,3 C 26,1 C 16,7 C 92 % 1014,6 hPa 0,0 l/m 4,2 km/h (1 Bft) W 261 0 min 0,000 mm 0,0 UV-I 0 W/m 15,0 C 16,3 C 6,4 km/h (2 Bft) 97,87 %
20.06.2019 22:12 16,3 C 26,1 C 16,7 C 92 % 1014,7 hPa 0,0 l/m 4,1 km/h (1 Bft) W 260 0 min 0,000 mm 0,0 UV-I 0 W/m 15,0 C 16,3 C 6,4 km/h (2 Bft) 96,00 %
20.06.2019 22:14 16,3 C 26,1 C 16,7 C 92 % 1014,7 hPa 0,0 l/m 3,3 km/h (1 Bft) W 260 0 min 0,000 mm 0,0 UV-I 0 W/m 15,0 C 16,3 C 6,4 km/h (2 Bft) 100,00 %
20.06.2019 22:16 16,4 C 26,1 C 16,7 C 92 % 1014,7 hPa 0,0 l/m 3,2 km/h (1 Bft) W 261 0 min 0,000 mm 0,0 UV-I 0 W/m 15,1 C 16,4 C 4,8 km/h (1 Bft) 98,00 %
20.06.2019 22:18 16,4 C 26,1 C 16,7 C 92 % 1014,8 hPa 0,0 l/m 4,6 km/h (1 Bft) W 262 0 min 0,000 mm 0,0 UV-I 0 W/m 15,1 C 16,4 C 6,4 km/h (2 Bft) 96,00 %
20.06.2019 22:20 16,4 C 26,1 C 16,7 C 92 % 1014,7 hPa 0,0 l/m 4,2 km/h (1 Bft) W 276 0 min 0,000 mm 0,0 UV-I 0 W/m 15,1 C 16,4 C 6,4 km/h (2 Bft) 97,37 %
20.06.2019 22:22 16,4 C 26,1 C 16,7 C 92 % 1014,7 hPa 0,0 l/m 4,2 km/h (1 Bft) W-SW 258 0 min 0,000 mm 0,0 UV-I 0 W/m 15,1 C 16,4 C 6,4 km/h (2 Bft) 96,00 %
20.06.2019 22:24 16,4 C 26,1 C 16,7 C 92 % 1014,7 hPa 0,0 l/m 5,5 km/h (1 Bft) W 269 0 min 0,000 mm 0,0 UV-I 0 W/m 15,1 C 16,4 C 9,7 km/h (2 Bft) 98,00 %
20.06.2019 22:26 16,4 C 25,6 C 16,7 C 92 % 1014,8 hPa 0,0 l/m 4,6 km/h (1 Bft) W 265 0 min 0,000 mm 0,0 UV-I 0 W/m 15,1 C 16,4 C 6,4 km/h (2 Bft) 98,00 %
20.06.2019 22:28 16,4 C 25,6 C 16,7 C 92 % 1014,7 hPa 0,0 l/m 4,4 km/h (1 Bft) W 267 0 min 0,000 mm 0,0 UV-I 0 W/m 15,1 C 16,4 C 6,4 km/h (2 Bft) 97,92 %
20.06.2019 22:30 16,4 C 25,6 C 16,7 C 92 % 1014,8 hPa 0,0 l/m 4,6 km/h (1 Bft) W 267 0 min 0,000 mm 0,0 UV-I 0 W/m 15,1 C 16,4 C 9,7 km/h (2 Bft) 97,37 %
20.06.2019 22:32 16,4 C 25,6 C 16,7 C 92 % 1014,7 hPa 0,0 l/m 4,2 km/h (1 Bft) W 268 0 min 0,000 mm 0,0 UV-I 0 W/m 15,1 C 16,4 C 6,4 km/h (2 Bft) 96,23 %
20.06.2019 22:34 16,4 C 25,6 C 16,7 C 93 % 1014,7 hPa 0,0 l/m 3,8 km/h (1 Bft) W 268 0 min 0,000 mm 0,0 UV-I 0 W/m 15,3 C 16,4 C 4,8 km/h (1 Bft) 95,12 %
20.06.2019 22:36 16,4 C 26,1 C 16,7 C 93 % 1014,8 hPa 0,0 l/m 4,5 km/h (1 Bft) W 265 0 min 0,000 mm 0,0 UV-I 0 W/m 15,3 C 16,4 C 6,4 km/h (2 Bft) 96,43 %
20.06.2019 22:38 16,4 C 25,6 C 16,7 C 93 % 1014,8 hPa 0,0 l/m 4,0 km/h (1 Bft) W 259 0 min 0,000 mm 0,0 UV-I 0 W/m 15,3 C 16,4 C 6,4 km/h (2 Bft) 97,37 %
20.06.2019 22:40 16,4 C 25,6 C 16,7 C 93 % 1014,7 hPa 0,0 l/m 5,3 km/h (1 Bft) W-SW 250 0 min 0,000 mm 0,0 UV-I 0 W/m 15,3 C 16,4 C 8,0 km/h (2 Bft) 95,74 %
20.06.2019 22:42 16,4 C 25,6 C 16,7 C 93 % 1014,8 hPa 0,0 l/m 5,7 km/h (1 Bft) W 269 0 min 0,000 mm 0,0 UV-I 0 W/m 15,3 C 16,4 C 9,7 km/h (2 Bft) 97,87 %
20.06.2019 22:44 16,4 C 25,6 C 16,7 C 93 % 1014,7 hPa 0,0 l/m 4,6 km/h (1 Bft) W 271 0 min 0,000 mm 0,0 UV-I 0 W/m 15,3 C 16,4 C 8,0 km/h (2 Bft) 97,87 %
20.06.2019 22:46 16,4 C 25,6 C 16,7 C 92 % 1014,8 hPa 0,0 l/m 4,9 km/h (1 Bft) W-NW 286 0 min 0,000 mm 0,0 UV-I 0 W/m 15,1 C 16,4 C 6,4 km/h (2 Bft) 98,11 %
20.06.2019 22:48 16,4 C 25,6 C 16,7 C 93 % 1014,7 hPa 0,0 l/m 5,3 km/h (1 Bft) W 272 0 min 0,000 mm 0,0 UV-I 0 W/m 15,3 C 16,4 C 9,7 km/h (2 Bft) 97,56 %
20.06.2019 22:50 16,4 C 25,6 C 16,7 C 93 % 1014,7 hPa 0,0 l/m 3,9 km/h (1 Bft) W 263 0 min 0,000 mm 0,0 UV-I 0 W/m 15,3 C 16,4 C 6,4 km/h (2 Bft) 93,62 %
20.06.2019 22:52 16,3 C 25,6 C 16,7 C 93 % 1014,7 hPa 0,0 l/m 3,8 km/h (1 Bft) W 270 0 min 0,000 mm 0,0 UV-I 0 W/m 15,2 C 16,3 C 6,4 km/h (2 Bft) 97,87 %
20.06.2019 22:54 16,3 C 25,6 C 16,7 C 93 % 1014,7 hPa 0,0 l/m 4,8 km/h (1 Bft) W 269 0 min 0,000 mm 0,0 UV-I 0 W/m 15,2 C 16,3 C 6,4 km/h (2 Bft) 98,00 %
20.06.2019 22:56 16,3 C 25,6 C 16,7 C 93 % 1014,7 hPa 0,0 l/m 3,6 km/h (1 Bft) W 265 0 min 0,000 mm 0,0 UV-I 0 W/m 15,2 C 16,3 C 9,7 km/h (2 Bft) 100,00 %
20.06.2019 22:58 16,3 C 25,6 C 16,1 C 93 % 1014,7 hPa 0,0 l/m 2,0 km/h (1 Bft) W 267 0 min 0,000 mm 0,0 UV-I 0 W/m 15,2 C 16,3 C 3,2 km/h (1 Bft) 100,00 %
20.06.2019 23:00 16,1 C 25,6 C 16,1 C 93 % 1014,7 hPa 0,0 l/m 1,4 km/h (1 Bft) W 267 0 min 0,000 mm 0,0 UV-I 0 W/m 15,0 C 16,1 C 3,2 km/h (1 Bft) 100,00 %
20.06.2019 23:02 16,0 C 25,6 C 16,1 C 93 % 1014,7 hPa 0,0 l/m 1,7 km/h (1 Bft) W 267 0 min 0,000 mm 0,0 UV-I 0 W/m 14,9 C 16,0 C 3,2 km/h (1 Bft) 97,92 %
20.06.2019 23:04 15,9 C 25,6 C 15,6 C 94 % 1014,7 hPa 0,0 l/m 1,5 km/h (1 Bft) W 267 0 min 0,000 mm 0,0 UV-I 0 W/m 14,9 C 15,9 C 3,2 km/h (1 Bft) 97,96 %
20.06.2019 23:06 15,8 C 25,6 C 15,6 C 94 % 1014,7 hPa 0,0 l/m 1,7 km/h (1 Bft) W 267 0 min 0,000 mm 0,0 UV-I 0 W/m 14,8 C 15,8 C 3,2 km/h (1 Bft) 97,78 %
20.06.2019 23:08 15,8 C 25,6 C 15,6 C 94 % 1014,8 hPa 0,0 l/m 1,8 km/h (1 Bft) W 267 0 min 0,000 mm 0,0 UV-I 0 W/m 14,8 C 15,8 C 3,2 km/h (1 Bft) 97,87 %
20.06.2019 23:10 15,8 C 25,6 C 15,6 C 94 % 1014,8 hPa 0,0 l/m 2,0 km/h (1 Bft) W 267 0 min 0,000 mm 0,0 UV-I 0 W/m 14,8 C 15,8 C 3,2 km/h (1 Bft) 97,87 %
20.06.2019 23:12 16,0 C 25,6 C 16,1 C 94 % 1014,8 hPa 0,0 l/m 3,0 km/h (1 Bft) W 267 0 min 0,000 mm 0,0 UV-I 0 W/m 15,0 C 16,0 C 3,2 km/h (1 Bft) 95,12 %
20.06.2019 23:14 16,1 C 25,6 C 16,1 C 94 % 1014,8 hPa 0,0 l/m 3,6 km/h (1 Bft) W 266 0 min 0,000 mm 0,0 UV-I 0 W/m 15,1 C 16,1 C 4,8 km/h (1 Bft) 93,62 %
20.06.2019 23:16 16,1 C 25,6 C 16,1 C 94 % 1014,8 hPa 0,0 l/m 4,4 km/h (1 Bft) SW 232 0 min 0,000 mm 0,0 UV-I 0 W/m 15,1 C 16,1 C 6,4 km/h (2 Bft) 96,36 %
20.06.2019 23:18 16,1 C 25,6 C 16,1 C 94 % 1014,8 hPa 0,0 l/m 5,2 km/h (1 Bft) W-SW 239 0 min 0,000 mm 0,0 UV-I 0 W/m 15,1 C 16,1 C 6,4 km/h (2 Bft) 95,74 %
20.06.2019 23:20 16,1 C 25,6 C 16,1 C 94 % 1014,8 hPa 0,0 l/m 4,0 km/h (1 Bft) W-SW 237 0 min 0,000 mm 0,0 UV-I 0 W/m 15,1 C 16,1 C 6,4 km/h (2 Bft) 93,62 %
20.06.2019 23:22 16,0 C 25,6 C 16,1 C 94 % 1014,8 hPa 0,0 l/m 4,4 km/h (1 Bft) SW 227 0 min 0,000 mm 0,0 UV-I 0 W/m 15,0 C 16,0 C 6,4 km/h (2 Bft) 93,62 %
20.06.2019 23:24 16,0 C 25,6 C 16,1 C 94 % 1014,8 hPa 0,0 l/m 3,7 km/h (1 Bft) SW 220 0 min 0,000 mm 0,0 UV-I 0 W/m 15,0 C 16,0 C 4,8 km/h (1 Bft) 93,62 %
20.06.2019 23:26 16,0 C 25,6 C 16,1 C 94 % 1014,9 hPa 0,0 l/m 4,8 km/h (1 Bft) SW 220 0 min 0,000 mm 0,0 UV-I 0 W/m 15,0 C 16,0 C 6,4 km/h (2 Bft) 95,12 %
20.06.2019 23:28 15,9 C 25,6 C 16,1 C 94 % 1014,9 hPa 0,0 l/m 4,5 km/h (1 Bft) S-SW 212 0 min 0,000 mm 0,0 UV-I 0 W/m 14,9 C 15,9 C 6,4 km/h (2 Bft) 90,57 %
20.06.2019 23:30 15,9 C 25,6 C 16,1 C 94 % 1014,9 hPa 0,0 l/m 6,0 km/h (2 Bft) SW 216 0 min 0,000 mm 0,0 UV-I 0 W/m 14,9 C 15,9 C 8,0 km/h (2 Bft) 95,45 %
20.06.2019 23:32 15,9 C 25,6 C 16,1 C 94 % 1014,9 hPa 0,0 l/m 5,1 km/h (1 Bft) S-SW 213 0 min 0,000 mm 0,0 UV-I 0 W/m 14,9 C 15,9 C 8,0 km/h (2 Bft) 98,00 %
20.06.2019 23:34 15,9 C 25,6 C 15,6 C 94 % 1014,9 hPa 0,0 l/m 5,4 km/h (1 Bft) S-SW 211 0 min 0,000 mm 0,0 UV-I 0 W/m 14,9 C 15,9 C 8,0 km/h (2 Bft) 95,74 %
20.06.2019 23:36 15,9 C 25,6 C 15,6 C 94 % 1015,0 hPa 0,0 l/m 4,1 km/h (1 Bft) S-SW 211 0 min 0,000 mm 0,0 UV-I 0 W/m 14,9 C 15,9 C 4,8 km/h (1 Bft) 95,12 %
20.06.2019 23:38 15,9 C 25,6 C 15,6 C 94 % 1015,0 hPa 0,0 l/m 3,8 km/h (1 Bft) S-SW 209 0 min 0,000 mm 0,0 UV-I 0 W/m 14,9 C 15,9 C 6,4 km/h (2 Bft) 98,00 %
20.06.2019 23:40 15,9 C 25,6 C 15,6 C 94 % 1015,0 hPa 0,0 l/m 4,5 km/h (1 Bft) S-SW 210 0 min 0,000 mm 0,0 UV-I 0 W/m 14,9 C 15,9 C 6,4 km/h (2 Bft) 96,00 %
20.06.2019 23:42 15,8 C 25,6 C 15,6 C 94 % 1015,0 hPa 0,0 l/m 5,2 km/h (1 Bft) S-SW 213 0 min 0,000 mm 0,0 UV-I 0 W/m 14,8 C 15,8 C 8,0 km/h (2 Bft) 93,62 %
20.06.2019 23:44 15,8 C 25,6 C 15,6 C 94 % 1014,9 hPa 0,0 l/m 3,7 km/h (1 Bft) S-SW 212 0 min 0,000 mm 0,0 UV-I 0 W/m 14,8 C 15,8 C 6,4 km/h (2 Bft) 94,44 %
20.06.2019 23:46 15,8 C 25,6 C 15,6 C 94 % 1014,9 hPa 0,0 l/m 4,3 km/h (1 Bft) SW 217 0 min 0,000 mm 0,0 UV-I 0 W/m 14,8 C 15,8 C 6,4 km/h (2 Bft) 98,11 %
20.06.2019 23:48 15,8 C 25,6 C 15,6 C 95 % 1014,8 hPa 0,0 l/m 4,3 km/h (1 Bft) SW 225 0 min 0,000 mm 0,0 UV-I 0 W/m 15,0 C 15,8 C 6,4 km/h (2 Bft) 94,00 %
20.06.2019 23:50 15,7 C 25,6 C 15,6 C 95 % 1014,8 hPa 0,0 l/m 5,2 km/h (1 Bft) S-SW 209 0 min 0,000 mm 0,0 UV-I 0 W/m 14,9 C 15,7 C 8,0 km/h (2 Bft) 100,00 %
20.06.2019 23:52 15,7 C 25,6 C 15,6 C 94 % 1014,8 hPa 0,0 l/m 6,1 km/h (2 Bft) S-SW 210 0 min 0,000 mm 0,0 UV-I 0 W/m 14,7 C 15,7 C 8,0 km/h (2 Bft) 92,45 %
20.06.2019 23:54 15,7 C 25,6 C 15,6 C 95 % 1014,8 hPa 0,0 l/m 5,4 km/h (1 Bft) SW 215 0 min 0,000 mm 0,0 UV-I 0 W/m 14,9 C 15,7 C 6,4 km/h (2 Bft) 97,87 %
20.06.2019 23:56 15,6 C 25,6 C 15,6 C 95 % 1014,7 hPa 0,0 l/m 4,8 km/h (1 Bft) S-SW 209 0 min 0,000 mm 0,0 UV-I 0 W/m 14,8 C 15,6 C 6,4 km/h (2 Bft) 97,87 %
20.06.2019 23:58 15,6 C 25,6 C 15,6 C 94 % 1014,7 hPa 0,0 l/m 4,5 km/h (1 Bft) S-SW 213 0 min 0,000 mm 0,0 UV-I 0 W/m 14,6 C 15,6 C 6,4 km/h (2 Bft) 96,00 %
_ Min-Zeit 05:00 04:58 04:18 13:26 17:22 - 01:12 - - - - - - 13:26 05:00 01:12 20:20
Minimum _ 14,3 C 24,4 C 12,2 C 40 % 1008,2 hPa - 0,0 km/h (0 Bft) - - - - - - 12,6 C 10,2 C 0,0 km/h (0 Bft) 86,96 %
_ Max-Zeit 17:06 16:08 14:10 23:48 23:36 19:18 19:02 - - 08:49 14:02 12:32 12:22 15:06 17:06 19:02 00:00
Maximum _ 28,4 C 26,7 C 43,3 C 95 % 1015,0 hPa 0,2 l/m 42,5 km/h
W (6 Bft)
- - 3 min 0,635 mm 5,9 UV-I 1155 W/m 17,0 C 28,4 C 72,4 km/h
W-SW (8 Bft)
100,00 %
Durchschnitt _ 21,0 C 25,4 C 25,3 C 70 % 1010,7 hPa #2,8 l/m 8,4 km/h (2 Bft) SW - #11:42 h #5,664 mm 3,4 UV-I 462 W/m 14,6 C 20,1 C 13,3 km/h (3 Bft) 97,49 %